<?xml version="1.0" encoding="UTF-8" standalone="no" ?>
<gpx xmlns="http://www.topografix.com/GPX/1/1" xmlns:xsi="http://www.w3.org/2001/XMLSchema-instance" xsi:schemaLocation="http://www.topografix.com/GPX/1/1 http://www.topografix.com/GPX/1/1/gpx.xsd" version="1.1" creator="VisuGPX - https://www.visugpx.com">
  <metadata>
    <name>Gd et Petit Bargy</name>
    <desc><![CDATA[Gd Bargy par le couloir de Frémieux ; Petit Bargy par le col de l'Encrenaz]]></desc>
  </metadata>
  <trk>
    <name><![CDATA[20180603110957-VBuzp]]></name>
    <trkseg>
      <trkpt lat="46.00669" lon="6.51752">
        <ele>1225</ele>
        <time>2018-01-28T09:11:32Z</time>
      </trkpt>
      <trkpt lat="46.00669" lon="6.51751">
        <ele>1225</ele>
        <time>2018-01-28T09:11:33Z</time>
      </trkpt>
      <trkpt lat="46.00668" lon="6.5175">
        <ele>1225</ele>
        <time>2018-01-28T09:11:34Z</time>
      </trkpt>
      <trkpt lat="46.00668" lon="6.51748">
        <ele>1226</ele>
        <time>2018-01-28T09:11:35Z</time>
      </trkpt>
      <trkpt lat="46.00668" lon="6.51746">
        <ele>1228</ele>
        <time>2018-01-28T09:11:37Z</time>
      </trkpt>
      <trkpt lat="46.00667" lon="6.51745">
        <ele>1228</ele>
        <time>2018-01-28T09:11:38Z</time>
      </trkpt>
      <trkpt lat="46.00663" lon="6.51736">
        <ele>1227</ele>
        <time>2018-01-28T09:11:48Z</time>
      </trkpt>
      <trkpt lat="46.00662" lon="6.51733">
        <ele>1228</ele>
        <time>2018-01-28T09:11:51Z</time>
      </trkpt>
      <trkpt lat="46.00662" lon="6.5173">
        <ele>1228</ele>
        <time>2018-01-28T09:11:54Z</time>
      </trkpt>
      <trkpt lat="46.00661" lon="6.51727">
        <ele>1229</ele>
        <time>2018-01-28T09:11:57Z</time>
      </trkpt>
      <trkpt lat="46.00662" lon="6.51725">
        <ele>1229</ele>
        <time>2018-01-28T09:12:00Z</time>
      </trkpt>
      <trkpt lat="46.00662" lon="6.51725">
        <ele>1229</ele>
        <time>2018-01-28T09:12:02Z</time>
      </trkpt>
      <trkpt lat="46.00663" lon="6.51725">
        <ele>1229</ele>
        <time>2018-01-28T09:12:03Z</time>
      </trkpt>
      <trkpt lat="46.00665" lon="6.51724">
        <ele>1229</ele>
        <time>2018-01-28T09:12:05Z</time>
      </trkpt>
      <trkpt lat="46.00667" lon="6.51724">
        <ele>1229</ele>
        <time>2018-01-28T09:12:06Z</time>
      </trkpt>
      <trkpt lat="46.00668" lon="6.51724">
        <ele>1240</ele>
        <time>2018-01-28T09:12:08Z</time>
      </trkpt>
      <trkpt lat="46.00673" lon="6.51724">
        <ele>1241</ele>
        <time>2018-01-28T09:12:12Z</time>
      </trkpt>
      <trkpt lat="46.00675" lon="6.51723">
        <ele>1241</ele>
        <time>2018-01-28T09:12:15Z</time>
      </trkpt>
      <trkpt lat="46.0068" lon="6.51724">
        <ele>1242</ele>
        <time>2018-01-28T09:12:20Z</time>
      </trkpt>
      <trkpt lat="46.00689" lon="6.51719">
        <ele>1244</ele>
        <time>2018-01-28T09:12:30Z</time>
      </trkpt>
      <trkpt lat="46.00689" lon="6.51716">
        <ele>1245</ele>
        <time>2018-01-28T09:12:32Z</time>
      </trkpt>
      <trkpt lat="46.0069" lon="6.517">
        <ele>1247</ele>
        <time>2018-01-28T09:12:45Z</time>
      </trkpt>
      <trkpt lat="46.00691" lon="6.51685">
        <ele>1249</ele>
        <time>2018-01-28T09:12:57Z</time>
      </trkpt>
      <trkpt lat="46.00694" lon="6.51682">
        <ele>1249</ele>
        <time>2018-01-28T09:13:00Z</time>
      </trkpt>
      <trkpt lat="46.00694" lon="6.51681">
        <ele>1249</ele>
        <time>2018-01-28T09:13:01Z</time>
      </trkpt>
      <trkpt lat="46.00695" lon="6.5168">
        <ele>1250</ele>
        <time>2018-01-28T09:13:02Z</time>
      </trkpt>
      <trkpt lat="46.00706" lon="6.51672">
        <ele>1252</ele>
        <time>2018-01-28T09:13:16Z</time>
      </trkpt>
      <trkpt lat="46.00714" lon="6.51662">
        <ele>1262</ele>
        <time>2018-01-28T09:13:29Z</time>
      </trkpt>
      <trkpt lat="46.00721" lon="6.51657">
        <ele>1263</ele>
        <time>2018-01-28T09:13:42Z</time>
      </trkpt>
      <trkpt lat="46.00723" lon="6.51657">
        <ele>1263</ele>
        <time>2018-01-28T09:13:43Z</time>
      </trkpt>
      <trkpt lat="46.00724" lon="6.51656">
        <ele>1264</ele>
        <time>2018-01-28T09:13:45Z</time>
      </trkpt>
      <trkpt lat="46.00725" lon="6.51647">
        <ele>1264</ele>
        <time>2018-01-28T09:13:56Z</time>
      </trkpt>
      <trkpt lat="46.00724" lon="6.51643">
        <ele>1264</ele>
        <time>2018-01-28T09:14:01Z</time>
      </trkpt>
      <trkpt lat="46.00724" lon="6.51641">
        <ele>1264</ele>
        <time>2018-01-28T09:14:03Z</time>
      </trkpt>
      <trkpt lat="46.00724" lon="6.51639">
        <ele>1264</ele>
        <time>2018-01-28T09:14:04Z</time>
      </trkpt>
      <trkpt lat="46.00725" lon="6.51635">
        <ele>1264</ele>
        <time>2018-01-28T09:14:08Z</time>
      </trkpt>
      <trkpt lat="46.00725" lon="6.51632">
        <ele>1264</ele>
        <time>2018-01-28T09:14:10Z</time>
      </trkpt>
      <trkpt lat="46.00726" lon="6.51631">
        <ele>1265</ele>
        <time>2018-01-28T09:14:11Z</time>
      </trkpt>
      <trkpt lat="46.0073" lon="6.51619">
        <ele>1266</ele>
        <time>2018-01-28T09:14:20Z</time>
      </trkpt>
      <trkpt lat="46.0073" lon="6.51618">
        <ele>1266</ele>
        <time>2018-01-28T09:14:21Z</time>
      </trkpt>
      <trkpt lat="46.00732" lon="6.51613">
        <ele>1267</ele>
        <time>2018-01-28T09:14:25Z</time>
      </trkpt>
      <trkpt lat="46.00732" lon="6.51611">
        <ele>1267</ele>
        <time>2018-01-28T09:14:26Z</time>
      </trkpt>
      <trkpt lat="46.00741" lon="6.51595">
        <ele>1271</ele>
        <time>2018-01-28T09:14:42Z</time>
      </trkpt>
      <trkpt lat="46.00747" lon="6.51584">
        <ele>1275</ele>
        <time>2018-01-28T09:14:54Z</time>
      </trkpt>
      <trkpt lat="46.00748" lon="6.51574">
        <ele>1277</ele>
        <time>2018-01-28T09:15:05Z</time>
      </trkpt>
      <trkpt lat="46.00751" lon="6.51569">
        <ele>1285</ele>
        <time>2018-01-28T09:15:12Z</time>
      </trkpt>
      <trkpt lat="46.00756" lon="6.51567">
        <ele>1286</ele>
        <time>2018-01-28T09:15:24Z</time>
      </trkpt>
      <trkpt lat="46.00758" lon="6.51562">
        <ele>1288</ele>
        <time>2018-01-28T09:15:30Z</time>
      </trkpt>
      <trkpt lat="46.00764" lon="6.51559">
        <ele>1290</ele>
        <time>2018-01-28T09:15:41Z</time>
      </trkpt>
      <trkpt lat="46.00768" lon="6.5156">
        <ele>1290</ele>
        <time>2018-01-28T09:15:45Z</time>
      </trkpt>
      <trkpt lat="46.00769" lon="6.5156">
        <ele>1291</ele>
        <time>2018-01-28T09:15:47Z</time>
      </trkpt>
      <trkpt lat="46.00775" lon="6.51558">
        <ele>1292</ele>
        <time>2018-01-28T09:16:00Z</time>
      </trkpt>
      <trkpt lat="46.00775" lon="6.51556">
        <ele>1292</ele>
        <time>2018-01-28T09:16:02Z</time>
      </trkpt>
      <trkpt lat="46.00775" lon="6.51553">
        <ele>1293</ele>
        <time>2018-01-28T09:16:04Z</time>
      </trkpt>
      <trkpt lat="46.00775" lon="6.51552">
        <ele>1293</ele>
        <time>2018-01-28T09:16:05Z</time>
      </trkpt>
      <trkpt lat="46.00776" lon="6.51544">
        <ele>1293</ele>
        <time>2018-01-28T09:16:12Z</time>
      </trkpt>
      <trkpt lat="46.00778" lon="6.51541">
        <ele>1294</ele>
        <time>2018-01-28T09:16:16Z</time>
      </trkpt>
      <trkpt lat="46.00781" lon="6.51539">
        <ele>1294</ele>
        <time>2018-01-28T09:16:21Z</time>
      </trkpt>
      <trkpt lat="46.00786" lon="6.51537">
        <ele>1295</ele>
        <time>2018-01-28T09:16:27Z</time>
      </trkpt>
      <trkpt lat="46.00787" lon="6.51537">
        <ele>1295</ele>
        <time>2018-01-28T09:16:28Z</time>
      </trkpt>
      <trkpt lat="46.00796" lon="6.51533">
        <ele>1297</ele>
        <time>2018-01-28T09:16:41Z</time>
      </trkpt>
      <trkpt lat="46.00808" lon="6.5154">
        <ele>1299</ele>
        <time>2018-01-28T09:16:56Z</time>
      </trkpt>
      <trkpt lat="46.00823" lon="6.51545">
        <ele>1300</ele>
        <time>2018-01-28T09:17:13Z</time>
      </trkpt>
      <trkpt lat="46.00834" lon="6.51531">
        <ele>1320</ele>
        <time>2018-01-28T09:17:29Z</time>
      </trkpt>
      <trkpt lat="46.00834" lon="6.5153">
        <ele>1320</ele>
        <time>2018-01-28T09:17:30Z</time>
      </trkpt>
      <trkpt lat="46.00842" lon="6.51518">
        <ele>1319</ele>
        <time>2018-01-28T09:17:43Z</time>
      </trkpt>
      <trkpt lat="46.00856" lon="6.51509">
        <ele>1321</ele>
        <time>2018-01-28T09:17:57Z</time>
      </trkpt>
      <trkpt lat="46.00867" lon="6.51497">
        <ele>1323</ele>
        <time>2018-01-28T09:18:11Z</time>
      </trkpt>
      <trkpt lat="46.00867" lon="6.51493">
        <ele>1323</ele>
        <time>2018-01-28T09:18:14Z</time>
      </trkpt>
      <trkpt lat="46.00874" lon="6.51471">
        <ele>1325</ele>
        <time>2018-01-28T09:18:31Z</time>
      </trkpt>
      <trkpt lat="46.00884" lon="6.51463">
        <ele>1327</ele>
        <time>2018-01-28T09:18:45Z</time>
      </trkpt>
      <trkpt lat="46.00885" lon="6.51464">
        <ele>1327</ele>
        <time>2018-01-28T09:18:46Z</time>
      </trkpt>
      <trkpt lat="46.00886" lon="6.51465">
        <ele>1328</ele>
        <time>2018-01-28T09:18:47Z</time>
      </trkpt>
      <trkpt lat="46.00887" lon="6.51467">
        <ele>1328</ele>
        <time>2018-01-28T09:18:48Z</time>
      </trkpt>
      <trkpt lat="46.00887" lon="6.51468">
        <ele>1328</ele>
        <time>2018-01-28T09:18:49Z</time>
      </trkpt>
      <trkpt lat="46.0089" lon="6.51475">
        <ele>1329</ele>
        <time>2018-01-28T09:18:54Z</time>
      </trkpt>
      <trkpt lat="46.00893" lon="6.51488">
        <ele>1331</ele>
        <time>2018-01-28T09:19:07Z</time>
      </trkpt>
      <trkpt lat="46.00893" lon="6.51492">
        <ele>1331</ele>
        <time>2018-01-28T09:19:10Z</time>
      </trkpt>
      <trkpt lat="46.00891" lon="6.51507">
        <ele>1333</ele>
        <time>2018-01-28T09:19:23Z</time>
      </trkpt>
      <trkpt lat="46.0089" lon="6.51533">
        <ele>1332</ele>
        <time>2018-01-28T09:19:38Z</time>
      </trkpt>
      <trkpt lat="46.00888" lon="6.51562">
        <ele>1334</ele>
        <time>2018-01-28T09:19:55Z</time>
      </trkpt>
      <trkpt lat="46.00887" lon="6.51565">
        <ele>1334</ele>
        <time>2018-01-28T09:19:57Z</time>
      </trkpt>
      <trkpt lat="46.00886" lon="6.51566">
        <ele>1334</ele>
        <time>2018-01-28T09:19:58Z</time>
      </trkpt>
      <trkpt lat="46.00886" lon="6.51568">
        <ele>1334</ele>
        <time>2018-01-28T09:19:59Z</time>
      </trkpt>
      <trkpt lat="46.00881" lon="6.5159">
        <ele>1334</ele>
        <time>2018-01-28T09:20:15Z</time>
      </trkpt>
      <trkpt lat="46.0088" lon="6.51597">
        <ele>1333</ele>
        <time>2018-01-28T09:20:19Z</time>
      </trkpt>
      <trkpt lat="46.0088" lon="6.51599">
        <ele>1333</ele>
        <time>2018-01-28T09:20:20Z</time>
      </trkpt>
      <trkpt lat="46.00879" lon="6.51607">
        <ele>1332</ele>
        <time>2018-01-28T09:20:25Z</time>
      </trkpt>
      <trkpt lat="46.00879" lon="6.51609">
        <ele>1332</ele>
        <time>2018-01-28T09:20:26Z</time>
      </trkpt>
      <trkpt lat="46.00879" lon="6.51611">
        <ele>1332</ele>
        <time>2018-01-28T09:20:27Z</time>
      </trkpt>
      <trkpt lat="46.0088" lon="6.51618">
        <ele>1332</ele>
        <time>2018-01-28T09:20:31Z</time>
      </trkpt>
      <trkpt lat="46.0088" lon="6.5162">
        <ele>1332</ele>
        <time>2018-01-28T09:20:32Z</time>
      </trkpt>
      <trkpt lat="46.0088" lon="6.51622">
        <ele>1332</ele>
        <time>2018-01-28T09:20:33Z</time>
      </trkpt>
      <trkpt lat="46.0088" lon="6.51637">
        <ele>1331</ele>
        <time>2018-01-28T09:20:39Z</time>
      </trkpt>
      <trkpt lat="46.0088" lon="6.51678">
        <ele>1326</ele>
        <time>2018-01-28T09:20:56Z</time>
      </trkpt>
      <trkpt lat="46.00885" lon="6.51694">
        <ele>1326</ele>
        <time>2018-01-28T09:21:04Z</time>
      </trkpt>
      <trkpt lat="46.00892" lon="6.51706">
        <ele>1326</ele>
        <time>2018-01-28T09:21:12Z</time>
      </trkpt>
      <trkpt lat="46.00924" lon="6.51755">
        <ele>1332</ele>
        <time>2018-01-28T09:21:41Z</time>
      </trkpt>
      <trkpt lat="46.00938" lon="6.51769">
        <ele>1336</ele>
        <time>2018-01-28T09:21:53Z</time>
      </trkpt>
      <trkpt lat="46.00939" lon="6.5177">
        <ele>1336</ele>
        <time>2018-01-28T09:21:54Z</time>
      </trkpt>
      <trkpt lat="46.0094" lon="6.5177">
        <ele>1336</ele>
        <time>2018-01-28T09:21:55Z</time>
      </trkpt>
      <trkpt lat="46.0095" lon="6.51774">
        <ele>1338</ele>
        <time>2018-01-28T09:22:02Z</time>
      </trkpt>
      <trkpt lat="46.00952" lon="6.51775">
        <ele>1338</ele>
        <time>2018-01-28T09:22:03Z</time>
      </trkpt>
      <trkpt lat="46.00953" lon="6.51776">
        <ele>1339</ele>
        <time>2018-01-28T09:22:04Z</time>
      </trkpt>
      <trkpt lat="46.00955" lon="6.51777">
        <ele>1339</ele>
        <time>2018-01-28T09:22:05Z</time>
      </trkpt>
      <trkpt lat="46.00956" lon="6.51778">
        <ele>1339</ele>
        <time>2018-01-28T09:22:06Z</time>
      </trkpt>
      <trkpt lat="46.00986" lon="6.51801">
        <ele>1341</ele>
        <time>2018-01-28T09:22:32Z</time>
      </trkpt>
      <trkpt lat="46.00996" lon="6.5181">
        <ele>1340</ele>
        <time>2018-01-28T09:22:42Z</time>
      </trkpt>
      <trkpt lat="46.01011" lon="6.51821">
        <ele>1355</ele>
        <time>2018-01-28T09:22:55Z</time>
      </trkpt>
      <trkpt lat="46.01012" lon="6.51823">
        <ele>1356</ele>
        <time>2018-01-28T09:22:56Z</time>
      </trkpt>
      <trkpt lat="46.01014" lon="6.51823">
        <ele>1356</ele>
        <time>2018-01-28T09:22:57Z</time>
      </trkpt>
      <trkpt lat="46.01015" lon="6.51824">
        <ele>1356</ele>
        <time>2018-01-28T09:22:58Z</time>
      </trkpt>
      <trkpt lat="46.01016" lon="6.51825">
        <ele>1356</ele>
        <time>2018-01-28T09:22:59Z</time>
      </trkpt>
      <trkpt lat="46.01017" lon="6.51826">
        <ele>1357</ele>
        <time>2018-01-28T09:23:00Z</time>
      </trkpt>
      <trkpt lat="46.01018" lon="6.51827">
        <ele>1357</ele>
        <time>2018-01-28T09:23:01Z</time>
      </trkpt>
      <trkpt lat="46.01019" lon="6.51828">
        <ele>1357</ele>
        <time>2018-01-28T09:23:02Z</time>
      </trkpt>
      <trkpt lat="46.0102" lon="6.51829">
        <ele>1358</ele>
        <time>2018-01-28T09:23:03Z</time>
      </trkpt>
      <trkpt lat="46.01021" lon="6.5183">
        <ele>1358</ele>
        <time>2018-01-28T09:23:04Z</time>
      </trkpt>
      <trkpt lat="46.01022" lon="6.51831">
        <ele>1359</ele>
        <time>2018-01-28T09:23:05Z</time>
      </trkpt>
      <trkpt lat="46.01029" lon="6.51836">
        <ele>1343</ele>
        <time>2018-01-28T09:23:11Z</time>
      </trkpt>
      <trkpt lat="46.0103" lon="6.51837">
        <ele>1344</ele>
        <time>2018-01-28T09:23:12Z</time>
      </trkpt>
      <trkpt lat="46.01031" lon="6.51838">
        <ele>1344</ele>
        <time>2018-01-28T09:23:13Z</time>
      </trkpt>
      <trkpt lat="46.01032" lon="6.51839">
        <ele>1344</ele>
        <time>2018-01-28T09:23:14Z</time>
      </trkpt>
      <trkpt lat="46.01034" lon="6.5184">
        <ele>1344</ele>
        <time>2018-01-28T09:23:15Z</time>
      </trkpt>
      <trkpt lat="46.01044" lon="6.51851">
        <ele>1346</ele>
        <time>2018-01-28T09:23:24Z</time>
      </trkpt>
      <trkpt lat="46.01045" lon="6.51853">
        <ele>1346</ele>
        <time>2018-01-28T09:23:25Z</time>
      </trkpt>
      <trkpt lat="46.01046" lon="6.51854">
        <ele>1346</ele>
        <time>2018-01-28T09:23:26Z</time>
      </trkpt>
      <trkpt lat="46.01047" lon="6.51855">
        <ele>1346</ele>
        <time>2018-01-28T09:23:27Z</time>
      </trkpt>
      <trkpt lat="46.01048" lon="6.51856">
        <ele>1346</ele>
        <time>2018-01-28T09:23:28Z</time>
      </trkpt>
      <trkpt lat="46.01049" lon="6.51858">
        <ele>1346</ele>
        <time>2018-01-28T09:23:29Z</time>
      </trkpt>
      <trkpt lat="46.01051" lon="6.51859">
        <ele>1346</ele>
        <time>2018-01-28T09:23:30Z</time>
      </trkpt>
      <trkpt lat="46.01052" lon="6.51861">
        <ele>1346</ele>
        <time>2018-01-28T09:23:31Z</time>
      </trkpt>
      <trkpt lat="46.01053" lon="6.51862">
        <ele>1346</ele>
        <time>2018-01-28T09:23:32Z</time>
      </trkpt>
      <trkpt lat="46.01054" lon="6.51864">
        <ele>1346</ele>
        <time>2018-01-28T09:23:33Z</time>
      </trkpt>
      <trkpt lat="46.01055" lon="6.51866">
        <ele>1346</ele>
        <time>2018-01-28T09:23:34Z</time>
      </trkpt>
      <trkpt lat="46.01055" lon="6.51868">
        <ele>1345</ele>
        <time>2018-01-28T09:23:35Z</time>
      </trkpt>
      <trkpt lat="46.01057" lon="6.5187">
        <ele>1345</ele>
        <time>2018-01-28T09:23:36Z</time>
      </trkpt>
      <trkpt lat="46.01058" lon="6.51872">
        <ele>1345</ele>
        <time>2018-01-28T09:23:37Z</time>
      </trkpt>
      <trkpt lat="46.01059" lon="6.51873">
        <ele>1345</ele>
        <time>2018-01-28T09:23:38Z</time>
      </trkpt>
      <trkpt lat="46.0106" lon="6.51875">
        <ele>1345</ele>
        <time>2018-01-28T09:23:39Z</time>
      </trkpt>
      <trkpt lat="46.01061" lon="6.51877">
        <ele>1344</ele>
        <time>2018-01-28T09:23:40Z</time>
      </trkpt>
      <trkpt lat="46.01062" lon="6.51879">
        <ele>1344</ele>
        <time>2018-01-28T09:23:41Z</time>
      </trkpt>
      <trkpt lat="46.01063" lon="6.5188">
        <ele>1344</ele>
        <time>2018-01-28T09:23:42Z</time>
      </trkpt>
      <trkpt lat="46.01066" lon="6.51883">
        <ele>1344</ele>
        <time>2018-01-28T09:23:44Z</time>
      </trkpt>
      <trkpt lat="46.01067" lon="6.51884">
        <ele>1344</ele>
        <time>2018-01-28T09:23:45Z</time>
      </trkpt>
      <trkpt lat="46.01069" lon="6.51885">
        <ele>1344</ele>
        <time>2018-01-28T09:23:46Z</time>
      </trkpt>
      <trkpt lat="46.0107" lon="6.51887">
        <ele>1343</ele>
        <time>2018-01-28T09:23:47Z</time>
      </trkpt>
      <trkpt lat="46.0107" lon="6.51889">
        <ele>1343</ele>
        <time>2018-01-28T09:23:48Z</time>
      </trkpt>
      <trkpt lat="46.01072" lon="6.5189">
        <ele>1343</ele>
        <time>2018-01-28T09:23:49Z</time>
      </trkpt>
      <trkpt lat="46.01072" lon="6.51892">
        <ele>1343</ele>
        <time>2018-01-28T09:23:50Z</time>
      </trkpt>
      <trkpt lat="46.01073" lon="6.51894">
        <ele>1343</ele>
        <time>2018-01-28T09:23:51Z</time>
      </trkpt>
      <trkpt lat="46.01075" lon="6.51895">
        <ele>1342</ele>
        <time>2018-01-28T09:23:52Z</time>
      </trkpt>
      <trkpt lat="46.01076" lon="6.51896">
        <ele>1342</ele>
        <time>2018-01-28T09:23:53Z</time>
      </trkpt>
      <trkpt lat="46.01077" lon="6.51898">
        <ele>1342</ele>
        <time>2018-01-28T09:23:54Z</time>
      </trkpt>
      <trkpt lat="46.01078" lon="6.51899">
        <ele>1342</ele>
        <time>2018-01-28T09:23:55Z</time>
      </trkpt>
      <trkpt lat="46.01079" lon="6.519">
        <ele>1342</ele>
        <time>2018-01-28T09:23:56Z</time>
      </trkpt>
      <trkpt lat="46.01083" lon="6.51904">
        <ele>1342</ele>
        <time>2018-01-28T09:24:00Z</time>
      </trkpt>
      <trkpt lat="46.01085" lon="6.51905">
        <ele>1356</ele>
        <time>2018-01-28T09:24:01Z</time>
      </trkpt>
      <trkpt lat="46.01086" lon="6.51906">
        <ele>1355</ele>
        <time>2018-01-28T09:24:02Z</time>
      </trkpt>
      <trkpt lat="46.01087" lon="6.51908">
        <ele>1354</ele>
        <time>2018-01-28T09:24:03Z</time>
      </trkpt>
      <trkpt lat="46.01088" lon="6.51909">
        <ele>1352</ele>
        <time>2018-01-28T09:24:04Z</time>
      </trkpt>
      <trkpt lat="46.01089" lon="6.51911">
        <ele>1351</ele>
        <time>2018-01-28T09:24:05Z</time>
      </trkpt>
      <trkpt lat="46.01089" lon="6.51913">
        <ele>1351</ele>
        <time>2018-01-28T09:24:06Z</time>
      </trkpt>
      <trkpt lat="46.0109" lon="6.51915">
        <ele>1351</ele>
        <time>2018-01-28T09:24:07Z</time>
      </trkpt>
      <trkpt lat="46.01091" lon="6.51917">
        <ele>1343</ele>
        <time>2018-01-28T09:24:08Z</time>
      </trkpt>
      <trkpt lat="46.01091" lon="6.51918">
        <ele>1344</ele>
        <time>2018-01-28T09:24:09Z</time>
      </trkpt>
      <trkpt lat="46.01092" lon="6.5192">
        <ele>1344</ele>
        <time>2018-01-28T09:24:10Z</time>
      </trkpt>
      <trkpt lat="46.01094" lon="6.51921">
        <ele>1344</ele>
        <time>2018-01-28T09:24:11Z</time>
      </trkpt>
      <trkpt lat="46.01095" lon="6.51923">
        <ele>1345</ele>
        <time>2018-01-28T09:24:12Z</time>
      </trkpt>
      <trkpt lat="46.01096" lon="6.51924">
        <ele>1345</ele>
        <time>2018-01-28T09:24:13Z</time>
      </trkpt>
      <trkpt lat="46.01098" lon="6.51925">
        <ele>1346</ele>
        <time>2018-01-28T09:24:14Z</time>
      </trkpt>
      <trkpt lat="46.01099" lon="6.51926">
        <ele>1346</ele>
        <time>2018-01-28T09:24:15Z</time>
      </trkpt>
      <trkpt lat="46.011" lon="6.51927">
        <ele>1346</ele>
        <time>2018-01-28T09:24:16Z</time>
      </trkpt>
      <trkpt lat="46.01101" lon="6.51928">
        <ele>1346</ele>
        <time>2018-01-28T09:24:17Z</time>
      </trkpt>
      <trkpt lat="46.01103" lon="6.51929">
        <ele>1347</ele>
        <time>2018-01-28T09:24:18Z</time>
      </trkpt>
      <trkpt lat="46.01109" lon="6.51934">
        <ele>1348</ele>
        <time>2018-01-28T09:24:23Z</time>
      </trkpt>
      <trkpt lat="46.01115" lon="6.51938">
        <ele>1349</ele>
        <time>2018-01-28T09:24:29Z</time>
      </trkpt>
      <trkpt lat="46.01119" lon="6.51939">
        <ele>1350</ele>
        <time>2018-01-28T09:24:32Z</time>
      </trkpt>
      <trkpt lat="46.0112" lon="6.51941">
        <ele>1351</ele>
        <time>2018-01-28T09:24:33Z</time>
      </trkpt>
      <trkpt lat="46.01124" lon="6.51944">
        <ele>1351</ele>
        <time>2018-01-28T09:24:36Z</time>
      </trkpt>
      <trkpt lat="46.01126" lon="6.51945">
        <ele>1352</ele>
        <time>2018-01-28T09:24:37Z</time>
      </trkpt>
      <trkpt lat="46.01127" lon="6.51946">
        <ele>1352</ele>
        <time>2018-01-28T09:24:38Z</time>
      </trkpt>
      <trkpt lat="46.01128" lon="6.51947">
        <ele>1352</ele>
        <time>2018-01-28T09:24:39Z</time>
      </trkpt>
      <trkpt lat="46.01129" lon="6.51948">
        <ele>1352</ele>
        <time>2018-01-28T09:24:40Z</time>
      </trkpt>
      <trkpt lat="46.0113" lon="6.51949">
        <ele>1352</ele>
        <time>2018-01-28T09:24:41Z</time>
      </trkpt>
      <trkpt lat="46.01132" lon="6.5195">
        <ele>1352</ele>
        <time>2018-01-28T09:24:43Z</time>
      </trkpt>
      <trkpt lat="46.01133" lon="6.5195">
        <ele>1353</ele>
        <time>2018-01-28T09:24:44Z</time>
      </trkpt>
      <trkpt lat="46.01134" lon="6.51951">
        <ele>1353</ele>
        <time>2018-01-28T09:24:45Z</time>
      </trkpt>
      <trkpt lat="46.01136" lon="6.51951">
        <ele>1353</ele>
        <time>2018-01-28T09:24:46Z</time>
      </trkpt>
      <trkpt lat="46.01138" lon="6.51953">
        <ele>1353</ele>
        <time>2018-01-28T09:24:49Z</time>
      </trkpt>
      <trkpt lat="46.01148" lon="6.51957">
        <ele>1355</ele>
        <time>2018-01-28T09:24:56Z</time>
      </trkpt>
      <trkpt lat="46.01149" lon="6.51957">
        <ele>1355</ele>
        <time>2018-01-28T09:24:57Z</time>
      </trkpt>
      <trkpt lat="46.0115" lon="6.51957">
        <ele>1355</ele>
        <time>2018-01-28T09:24:58Z</time>
      </trkpt>
      <trkpt lat="46.01152" lon="6.51957">
        <ele>1355</ele>
        <time>2018-01-28T09:24:59Z</time>
      </trkpt>
      <trkpt lat="46.01154" lon="6.51957">
        <ele>1355</ele>
        <time>2018-01-28T09:25:00Z</time>
      </trkpt>
      <trkpt lat="46.01155" lon="6.51958">
        <ele>1355</ele>
        <time>2018-01-28T09:25:01Z</time>
      </trkpt>
      <trkpt lat="46.0116" lon="6.51963">
        <ele>1355</ele>
        <time>2018-01-28T09:25:06Z</time>
      </trkpt>
      <trkpt lat="46.01161" lon="6.51963">
        <ele>1355</ele>
        <time>2018-01-28T09:25:07Z</time>
      </trkpt>
      <trkpt lat="46.01162" lon="6.51963">
        <ele>1355</ele>
        <time>2018-01-28T09:25:08Z</time>
      </trkpt>
      <trkpt lat="46.01164" lon="6.51964">
        <ele>1355</ele>
        <time>2018-01-28T09:25:09Z</time>
      </trkpt>
      <trkpt lat="46.01165" lon="6.51965">
        <ele>1355</ele>
        <time>2018-01-28T09:25:10Z</time>
      </trkpt>
      <trkpt lat="46.01166" lon="6.51966">
        <ele>1355</ele>
        <time>2018-01-28T09:25:11Z</time>
      </trkpt>
      <trkpt lat="46.01167" lon="6.51967">
        <ele>1383</ele>
        <time>2018-01-28T09:25:12Z</time>
      </trkpt>
      <trkpt lat="46.01168" lon="6.51968">
        <ele>1383</ele>
        <time>2018-01-28T09:25:13Z</time>
      </trkpt>
      <trkpt lat="46.01169" lon="6.51972">
        <ele>1381</ele>
        <time>2018-01-28T09:25:15Z</time>
      </trkpt>
      <trkpt lat="46.0117" lon="6.51973">
        <ele>1380</ele>
        <time>2018-01-28T09:25:16Z</time>
      </trkpt>
      <trkpt lat="46.01171" lon="6.51976">
        <ele>1379</ele>
        <time>2018-01-28T09:25:17Z</time>
      </trkpt>
      <trkpt lat="46.01183" lon="6.51991">
        <ele>1375</ele>
        <time>2018-01-28T09:25:32Z</time>
      </trkpt>
      <trkpt lat="46.01187" lon="6.51996">
        <ele>1377</ele>
        <time>2018-01-28T09:25:37Z</time>
      </trkpt>
      <trkpt lat="46.01191" lon="6.52002">
        <ele>1363</ele>
        <time>2018-01-28T09:25:43Z</time>
      </trkpt>
      <trkpt lat="46.01202" lon="6.52012">
        <ele>1367</ele>
        <time>2018-01-28T09:25:56Z</time>
      </trkpt>
      <trkpt lat="46.01212" lon="6.52025">
        <ele>1370</ele>
        <time>2018-01-28T09:26:10Z</time>
      </trkpt>
      <trkpt lat="46.01218" lon="6.52035">
        <ele>1370</ele>
        <time>2018-01-28T09:26:21Z</time>
      </trkpt>
      <trkpt lat="46.01219" lon="6.52036">
        <ele>1370</ele>
        <time>2018-01-28T09:26:22Z</time>
      </trkpt>
      <trkpt lat="46.01224" lon="6.5204">
        <ele>1371</ele>
        <time>2018-01-28T09:26:27Z</time>
      </trkpt>
      <trkpt lat="46.01224" lon="6.5204">
        <ele>1371</ele>
        <time>2018-01-28T09:26:28Z</time>
      </trkpt>
      <trkpt lat="46.01225" lon="6.52041">
        <ele>1371</ele>
        <time>2018-01-28T09:26:29Z</time>
      </trkpt>
      <trkpt lat="46.01235" lon="6.52051">
        <ele>1371</ele>
        <time>2018-01-28T09:26:44Z</time>
      </trkpt>
      <trkpt lat="46.01241" lon="6.52056">
        <ele>1372</ele>
        <time>2018-01-28T09:26:52Z</time>
      </trkpt>
      <trkpt lat="46.01242" lon="6.52057">
        <ele>1372</ele>
        <time>2018-01-28T09:26:54Z</time>
      </trkpt>
      <trkpt lat="46.01243" lon="6.52057">
        <ele>1372</ele>
        <time>2018-01-28T09:26:55Z</time>
      </trkpt>
      <trkpt lat="46.01252" lon="6.52065">
        <ele>1397</ele>
        <time>2018-01-28T09:27:07Z</time>
      </trkpt>
      <trkpt lat="46.01255" lon="6.52069">
        <ele>1394</ele>
        <time>2018-01-28T09:27:12Z</time>
      </trkpt>
      <trkpt lat="46.01262" lon="6.52074">
        <ele>1394</ele>
        <time>2018-01-28T09:27:19Z</time>
      </trkpt>
      <trkpt lat="46.01262" lon="6.52075">
        <ele>1395</ele>
        <time>2018-01-28T09:27:20Z</time>
      </trkpt>
      <trkpt lat="46.01275" lon="6.52087">
        <ele>1385</ele>
        <time>2018-01-28T09:27:36Z</time>
      </trkpt>
      <trkpt lat="46.01287" lon="6.52098">
        <ele>1389</ele>
        <time>2018-01-28T09:27:51Z</time>
      </trkpt>
      <trkpt lat="46.01291" lon="6.52105">
        <ele>1390</ele>
        <time>2018-01-28T09:27:56Z</time>
      </trkpt>
      <trkpt lat="46.01293" lon="6.52106">
        <ele>1390</ele>
        <time>2018-01-28T09:27:57Z</time>
      </trkpt>
      <trkpt lat="46.01293" lon="6.52107">
        <ele>1390</ele>
        <time>2018-01-28T09:27:58Z</time>
      </trkpt>
      <trkpt lat="46.01308" lon="6.52121">
        <ele>1392</ele>
        <time>2018-01-28T09:28:16Z</time>
      </trkpt>
      <trkpt lat="46.01322" lon="6.52131">
        <ele>1393</ele>
        <time>2018-01-28T09:28:33Z</time>
      </trkpt>
      <trkpt lat="46.01339" lon="6.52147">
        <ele>1417</ele>
        <time>2018-01-28T09:28:53Z</time>
      </trkpt>
      <trkpt lat="46.01351" lon="6.52159">
        <ele>1417</ele>
        <time>2018-01-28T09:29:07Z</time>
      </trkpt>
      <trkpt lat="46.01359" lon="6.52172">
        <ele>1406</ele>
        <time>2018-01-28T09:29:20Z</time>
      </trkpt>
      <trkpt lat="46.01363" lon="6.52175">
        <ele>1407</ele>
        <time>2018-01-28T09:29:25Z</time>
      </trkpt>
      <trkpt lat="46.01373" lon="6.52182">
        <ele>1411</ele>
        <time>2018-01-28T09:29:36Z</time>
      </trkpt>
      <trkpt lat="46.01379" lon="6.52193">
        <ele>1412</ele>
        <time>2018-01-28T09:29:46Z</time>
      </trkpt>
      <trkpt lat="46.01381" lon="6.52196">
        <ele>1412</ele>
        <time>2018-01-28T09:29:49Z</time>
      </trkpt>
      <trkpt lat="46.01381" lon="6.52196">
        <ele>1412</ele>
        <time>2018-01-28T09:29:50Z</time>
      </trkpt>
      <trkpt lat="46.01382" lon="6.52197">
        <ele>1412</ele>
        <time>2018-01-28T09:29:51Z</time>
      </trkpt>
      <trkpt lat="46.01383" lon="6.52197">
        <ele>1413</ele>
        <time>2018-01-28T09:29:52Z</time>
      </trkpt>
      <trkpt lat="46.01384" lon="6.52199">
        <ele>1413</ele>
        <time>2018-01-28T09:29:54Z</time>
      </trkpt>
      <trkpt lat="46.01385" lon="6.522">
        <ele>1413</ele>
        <time>2018-01-28T09:29:55Z</time>
      </trkpt>
      <trkpt lat="46.01399" lon="6.52212">
        <ele>1414</ele>
        <time>2018-01-28T09:30:13Z</time>
      </trkpt>
      <trkpt lat="46.0141" lon="6.52221">
        <ele>1416</ele>
        <time>2018-01-28T09:30:26Z</time>
      </trkpt>
      <trkpt lat="46.01419" lon="6.52227">
        <ele>1441</ele>
        <time>2018-01-28T09:30:38Z</time>
      </trkpt>
      <trkpt lat="46.01423" lon="6.5223">
        <ele>1440</ele>
        <time>2018-01-28T09:30:46Z</time>
      </trkpt>
      <trkpt lat="46.01425" lon="6.52232">
        <ele>1439</ele>
        <time>2018-01-28T09:30:48Z</time>
      </trkpt>
      <trkpt lat="46.01431" lon="6.52235">
        <ele>1440</ele>
        <time>2018-01-28T09:31:04Z</time>
      </trkpt>
      <trkpt lat="46.0143" lon="6.52232">
        <ele>1441</ele>
        <time>2018-01-28T09:31:06Z</time>
      </trkpt>
      <trkpt lat="46.01429" lon="6.52229">
        <ele>1442</ele>
        <time>2018-01-28T09:31:08Z</time>
      </trkpt>
      <trkpt lat="46.01426" lon="6.52216">
        <ele>1446</ele>
        <time>2018-01-28T09:31:22Z</time>
      </trkpt>
      <trkpt lat="46.01425" lon="6.52211">
        <ele>1447</ele>
        <time>2018-01-28T09:31:26Z</time>
      </trkpt>
      <trkpt lat="46.01424" lon="6.52208">
        <ele>1447</ele>
        <time>2018-01-28T09:31:29Z</time>
      </trkpt>
      <trkpt lat="46.0142" lon="6.52184">
        <ele>1449</ele>
        <time>2018-01-28T09:31:49Z</time>
      </trkpt>
      <trkpt lat="46.01419" lon="6.52181">
        <ele>1449</ele>
        <time>2018-01-28T09:31:51Z</time>
      </trkpt>
      <trkpt lat="46.01414" lon="6.52167">
        <ele>1444</ele>
        <time>2018-01-28T09:32:05Z</time>
      </trkpt>
      <trkpt lat="46.01414" lon="6.52166">
        <ele>1446</ele>
        <time>2018-01-28T09:32:06Z</time>
      </trkpt>
      <trkpt lat="46.01413" lon="6.52162">
        <ele>1444</ele>
        <time>2018-01-28T09:32:10Z</time>
      </trkpt>
      <trkpt lat="46.0141" lon="6.52148">
        <ele>1442</ele>
        <time>2018-01-28T09:32:24Z</time>
      </trkpt>
      <trkpt lat="46.0141" lon="6.52146">
        <ele>1442</ele>
        <time>2018-01-28T09:32:26Z</time>
      </trkpt>
      <trkpt lat="46.0141" lon="6.52144">
        <ele>1442</ele>
        <time>2018-01-28T09:32:28Z</time>
      </trkpt>
      <trkpt lat="46.01416" lon="6.52144">
        <ele>1443</ele>
        <time>2018-01-28T09:32:42Z</time>
      </trkpt>
      <trkpt lat="46.01418" lon="6.52145">
        <ele>1464</ele>
        <time>2018-01-28T09:32:44Z</time>
      </trkpt>
      <trkpt lat="46.01427" lon="6.52148">
        <ele>1464</ele>
        <time>2018-01-28T09:32:59Z</time>
      </trkpt>
      <trkpt lat="46.01427" lon="6.52145">
        <ele>1465</ele>
        <time>2018-01-28T09:33:08Z</time>
      </trkpt>
      <trkpt lat="46.01426" lon="6.52144">
        <ele>1466</ele>
        <time>2018-01-28T09:33:09Z</time>
      </trkpt>
      <trkpt lat="46.01426" lon="6.52142">
        <ele>1466</ele>
        <time>2018-01-28T09:33:10Z</time>
      </trkpt>
      <trkpt lat="46.01426" lon="6.52141">
        <ele>1467</ele>
        <time>2018-01-28T09:33:11Z</time>
      </trkpt>
      <trkpt lat="46.01425" lon="6.52139">
        <ele>1467</ele>
        <time>2018-01-28T09:33:13Z</time>
      </trkpt>
      <trkpt lat="46.01424" lon="6.52134">
        <ele>1469</ele>
        <time>2018-01-28T09:33:19Z</time>
      </trkpt>
      <trkpt lat="46.01421" lon="6.52122">
        <ele>1471</ele>
        <time>2018-01-28T09:33:30Z</time>
      </trkpt>
      <trkpt lat="46.0142" lon="6.5212">
        <ele>1472</ele>
        <time>2018-01-28T09:33:32Z</time>
      </trkpt>
      <trkpt lat="46.01416" lon="6.52107">
        <ele>1452</ele>
        <time>2018-01-28T09:33:45Z</time>
      </trkpt>
      <trkpt lat="46.01416" lon="6.521">
        <ele>1456</ele>
        <time>2018-01-28T09:33:51Z</time>
      </trkpt>
      <trkpt lat="46.01416" lon="6.52086">
        <ele>1471</ele>
        <time>2018-01-28T09:34:05Z</time>
      </trkpt>
      <trkpt lat="46.01424" lon="6.52089">
        <ele>1475</ele>
        <time>2018-01-28T09:34:16Z</time>
      </trkpt>
      <trkpt lat="46.01433" lon="6.52096">
        <ele>1476</ele>
        <time>2018-01-28T09:34:29Z</time>
      </trkpt>
      <trkpt lat="46.01437" lon="6.52092">
        <ele>1476</ele>
        <time>2018-01-28T09:34:45Z</time>
      </trkpt>
      <trkpt lat="46.01437" lon="6.5209">
        <ele>1476</ele>
        <time>2018-01-28T09:34:47Z</time>
      </trkpt>
      <trkpt lat="46.01438" lon="6.5208">
        <ele>1485</ele>
        <time>2018-01-28T09:34:56Z</time>
      </trkpt>
      <trkpt lat="46.01438" lon="6.52077">
        <ele>1485</ele>
        <time>2018-01-28T09:34:58Z</time>
      </trkpt>
      <trkpt lat="46.01438" lon="6.52072">
        <ele>1486</ele>
        <time>2018-01-28T09:35:03Z</time>
      </trkpt>
      <trkpt lat="46.01439" lon="6.52063">
        <ele>1487</ele>
        <time>2018-01-28T09:35:09Z</time>
      </trkpt>
      <trkpt lat="46.01439" lon="6.52061">
        <ele>1488</ele>
        <time>2018-01-28T09:35:11Z</time>
      </trkpt>
      <trkpt lat="46.01439" lon="6.52047">
        <ele>1490</ele>
        <time>2018-01-28T09:35:25Z</time>
      </trkpt>
      <trkpt lat="46.01441" lon="6.52047">
        <ele>1490</ele>
        <time>2018-01-28T09:35:29Z</time>
      </trkpt>
      <trkpt lat="46.01442" lon="6.52048">
        <ele>1490</ele>
        <time>2018-01-28T09:35:31Z</time>
      </trkpt>
      <trkpt lat="46.01444" lon="6.52048">
        <ele>1490</ele>
        <time>2018-01-28T09:35:33Z</time>
      </trkpt>
      <trkpt lat="46.01445" lon="6.52049">
        <ele>1490</ele>
        <time>2018-01-28T09:35:34Z</time>
      </trkpt>
      <trkpt lat="46.01448" lon="6.52051">
        <ele>1491</ele>
        <time>2018-01-28T09:35:38Z</time>
      </trkpt>
      <trkpt lat="46.0145" lon="6.52052">
        <ele>1491</ele>
        <time>2018-01-28T09:35:40Z</time>
      </trkpt>
      <trkpt lat="46.01451" lon="6.52053">
        <ele>1491</ele>
        <time>2018-01-28T09:35:42Z</time>
      </trkpt>
      <trkpt lat="46.01453" lon="6.52055">
        <ele>1491</ele>
        <time>2018-01-28T09:35:44Z</time>
      </trkpt>
      <trkpt lat="46.0146" lon="6.52059">
        <ele>1492</ele>
        <time>2018-01-28T09:35:56Z</time>
      </trkpt>
      <trkpt lat="46.01464" lon="6.52056">
        <ele>1493</ele>
        <time>2018-01-28T09:36:06Z</time>
      </trkpt>
      <trkpt lat="46.01464" lon="6.52055">
        <ele>1493</ele>
        <time>2018-01-28T09:36:08Z</time>
      </trkpt>
      <trkpt lat="46.01464" lon="6.52053">
        <ele>1493</ele>
        <time>2018-01-28T09:36:10Z</time>
      </trkpt>
      <trkpt lat="46.01464" lon="6.52051">
        <ele>1493</ele>
        <time>2018-01-28T09:36:12Z</time>
      </trkpt>
      <trkpt lat="46.01463" lon="6.52042">
        <ele>1493</ele>
        <time>2018-01-28T09:36:21Z</time>
      </trkpt>
      <trkpt lat="46.01468" lon="6.5204">
        <ele>1494</ele>
        <time>2018-01-28T09:36:32Z</time>
      </trkpt>
      <trkpt lat="46.01473" lon="6.5204">
        <ele>1495</ele>
        <time>2018-01-28T09:36:40Z</time>
      </trkpt>
      <trkpt lat="46.0148" lon="6.52047">
        <ele>1495</ele>
        <time>2018-01-28T09:36:53Z</time>
      </trkpt>
      <trkpt lat="46.01485" lon="6.52052">
        <ele>1496</ele>
        <time>2018-01-28T09:37:05Z</time>
      </trkpt>
      <trkpt lat="46.01487" lon="6.52041">
        <ele>1497</ele>
        <time>2018-01-28T09:37:18Z</time>
      </trkpt>
      <trkpt lat="46.01488" lon="6.5204">
        <ele>1497</ele>
        <time>2018-01-28T09:37:19Z</time>
      </trkpt>
      <trkpt lat="46.01489" lon="6.52033">
        <ele>1498</ele>
        <time>2018-01-28T09:37:26Z</time>
      </trkpt>
      <trkpt lat="46.01489" lon="6.52027">
        <ele>1499</ele>
        <time>2018-01-28T09:37:32Z</time>
      </trkpt>
      <trkpt lat="46.01489" lon="6.52023">
        <ele>1499</ele>
        <time>2018-01-28T09:37:35Z</time>
      </trkpt>
      <trkpt lat="46.0149" lon="6.52015">
        <ele>1501</ele>
        <time>2018-01-28T09:37:44Z</time>
      </trkpt>
      <trkpt lat="46.0149" lon="6.52013">
        <ele>1502</ele>
        <time>2018-01-28T09:37:46Z</time>
      </trkpt>
      <trkpt lat="46.0149" lon="6.52011">
        <ele>1502</ele>
        <time>2018-01-28T09:37:48Z</time>
      </trkpt>
      <trkpt lat="46.01489" lon="6.52002">
        <ele>1504</ele>
        <time>2018-01-28T09:37:55Z</time>
      </trkpt>
      <trkpt lat="46.0149" lon="6.51998">
        <ele>1508</ele>
        <time>2018-01-28T09:37:58Z</time>
      </trkpt>
      <trkpt lat="46.01489" lon="6.51987">
        <ele>1508</ele>
        <time>2018-01-28T09:38:09Z</time>
      </trkpt>
      <trkpt lat="46.01489" lon="6.51985">
        <ele>1508</ele>
        <time>2018-01-28T09:38:11Z</time>
      </trkpt>
      <trkpt lat="46.01489" lon="6.5198">
        <ele>1508</ele>
        <time>2018-01-28T09:38:15Z</time>
      </trkpt>
      <trkpt lat="46.01488" lon="6.51977">
        <ele>1508</ele>
        <time>2018-01-28T09:38:18Z</time>
      </trkpt>
      <trkpt lat="46.01488" lon="6.51976">
        <ele>1508</ele>
        <time>2018-01-28T09:38:19Z</time>
      </trkpt>
      <trkpt lat="46.01488" lon="6.51973">
        <ele>1508</ele>
        <time>2018-01-28T09:38:22Z</time>
      </trkpt>
      <trkpt lat="46.01488" lon="6.51971">
        <ele>1508</ele>
        <time>2018-01-28T09:38:24Z</time>
      </trkpt>
      <trkpt lat="46.01488" lon="6.51966">
        <ele>1508</ele>
        <time>2018-01-28T09:38:29Z</time>
      </trkpt>
      <trkpt lat="46.0149" lon="6.51962">
        <ele>1509</ele>
        <time>2018-01-28T09:38:33Z</time>
      </trkpt>
      <trkpt lat="46.01496" lon="6.51955">
        <ele>1510</ele>
        <time>2018-01-28T09:38:44Z</time>
      </trkpt>
      <trkpt lat="46.01497" lon="6.51954">
        <ele>1510</ele>
        <time>2018-01-28T09:38:46Z</time>
      </trkpt>
      <trkpt lat="46.01498" lon="6.51953">
        <ele>1510</ele>
        <time>2018-01-28T09:38:48Z</time>
      </trkpt>
      <trkpt lat="46.01499" lon="6.51952">
        <ele>1510</ele>
        <time>2018-01-28T09:38:50Z</time>
      </trkpt>
      <trkpt lat="46.01503" lon="6.51951">
        <ele>1522</ele>
        <time>2018-01-28T09:38:56Z</time>
      </trkpt>
      <trkpt lat="46.01506" lon="6.51947">
        <ele>1522</ele>
        <time>2018-01-28T09:39:01Z</time>
      </trkpt>
      <trkpt lat="46.01508" lon="6.51944">
        <ele>1523</ele>
        <time>2018-01-28T09:39:05Z</time>
      </trkpt>
      <trkpt lat="46.0151" lon="6.51941">
        <ele>1523</ele>
        <time>2018-01-28T09:39:09Z</time>
      </trkpt>
      <trkpt lat="46.01512" lon="6.51937">
        <ele>1523</ele>
        <time>2018-01-28T09:39:13Z</time>
      </trkpt>
      <trkpt lat="46.01516" lon="6.51929">
        <ele>1523</ele>
        <time>2018-01-28T09:39:22Z</time>
      </trkpt>
      <trkpt lat="46.01516" lon="6.51928">
        <ele>1523</ele>
        <time>2018-01-28T09:39:23Z</time>
      </trkpt>
      <trkpt lat="46.01517" lon="6.51924">
        <ele>1523</ele>
        <time>2018-01-28T09:39:26Z</time>
      </trkpt>
      <trkpt lat="46.01518" lon="6.51923">
        <ele>1524</ele>
        <time>2018-01-28T09:39:27Z</time>
      </trkpt>
      <trkpt lat="46.0152" lon="6.5192">
        <ele>1524</ele>
        <time>2018-01-28T09:39:31Z</time>
      </trkpt>
      <trkpt lat="46.01521" lon="6.51918">
        <ele>1524</ele>
        <time>2018-01-28T09:39:33Z</time>
      </trkpt>
      <trkpt lat="46.01522" lon="6.51916">
        <ele>1531</ele>
        <time>2018-01-28T09:39:35Z</time>
      </trkpt>
      <trkpt lat="46.01524" lon="6.5191">
        <ele>1532</ele>
        <time>2018-01-28T09:39:40Z</time>
      </trkpt>
      <trkpt lat="46.01525" lon="6.51907">
        <ele>1532</ele>
        <time>2018-01-28T09:39:42Z</time>
      </trkpt>
      <trkpt lat="46.01525" lon="6.51905">
        <ele>1533</ele>
        <time>2018-01-28T09:39:44Z</time>
      </trkpt>
      <trkpt lat="46.01526" lon="6.51903">
        <ele>1533</ele>
        <time>2018-01-28T09:39:46Z</time>
      </trkpt>
      <trkpt lat="46.01528" lon="6.51894">
        <ele>1535</ele>
        <time>2018-01-28T09:39:53Z</time>
      </trkpt>
      <trkpt lat="46.01528" lon="6.51891">
        <ele>1535</ele>
        <time>2018-01-28T09:39:55Z</time>
      </trkpt>
      <trkpt lat="46.01529" lon="6.51886">
        <ele>1536</ele>
        <time>2018-01-28T09:40:00Z</time>
      </trkpt>
      <trkpt lat="46.01529" lon="6.51884">
        <ele>1536</ele>
        <time>2018-01-28T09:40:02Z</time>
      </trkpt>
      <trkpt lat="46.01529" lon="6.51882">
        <ele>1536</ele>
        <time>2018-01-28T09:40:04Z</time>
      </trkpt>
      <trkpt lat="46.01529" lon="6.51879">
        <ele>1537</ele>
        <time>2018-01-28T09:40:07Z</time>
      </trkpt>
      <trkpt lat="46.01529" lon="6.51875">
        <ele>1537</ele>
        <time>2018-01-28T09:40:11Z</time>
      </trkpt>
      <trkpt lat="46.01529" lon="6.5187">
        <ele>1537</ele>
        <time>2018-01-28T09:40:16Z</time>
      </trkpt>
      <trkpt lat="46.01529" lon="6.51868">
        <ele>1538</ele>
        <time>2018-01-28T09:40:18Z</time>
      </trkpt>
      <trkpt lat="46.01529" lon="6.51863">
        <ele>1538</ele>
        <time>2018-01-28T09:40:22Z</time>
      </trkpt>
      <trkpt lat="46.0153" lon="6.51861">
        <ele>1538</ele>
        <time>2018-01-28T09:40:24Z</time>
      </trkpt>
      <trkpt lat="46.0153" lon="6.51856">
        <ele>1539</ele>
        <time>2018-01-28T09:40:28Z</time>
      </trkpt>
      <trkpt lat="46.01531" lon="6.5185">
        <ele>1539</ele>
        <time>2018-01-28T09:40:33Z</time>
      </trkpt>
      <trkpt lat="46.01531" lon="6.51848">
        <ele>1539</ele>
        <time>2018-01-28T09:40:35Z</time>
      </trkpt>
      <trkpt lat="46.01532" lon="6.51846">
        <ele>1539</ele>
        <time>2018-01-28T09:40:37Z</time>
      </trkpt>
      <trkpt lat="46.01532" lon="6.51843">
        <ele>1539</ele>
        <time>2018-01-28T09:40:39Z</time>
      </trkpt>
      <trkpt lat="46.01532" lon="6.51842">
        <ele>1540</ele>
        <time>2018-01-28T09:40:40Z</time>
      </trkpt>
      <trkpt lat="46.01533" lon="6.5184">
        <ele>1540</ele>
        <time>2018-01-28T09:40:42Z</time>
      </trkpt>
      <trkpt lat="46.01534" lon="6.51837">
        <ele>1540</ele>
        <time>2018-01-28T09:40:44Z</time>
      </trkpt>
      <trkpt lat="46.01534" lon="6.51834">
        <ele>1540</ele>
        <time>2018-01-28T09:40:47Z</time>
      </trkpt>
      <trkpt lat="46.01537" lon="6.51817">
        <ele>1552</ele>
        <time>2018-01-28T09:41:02Z</time>
      </trkpt>
      <trkpt lat="46.01537" lon="6.51815">
        <ele>1552</ele>
        <time>2018-01-28T09:41:04Z</time>
      </trkpt>
      <trkpt lat="46.01537" lon="6.51814">
        <ele>1553</ele>
        <time>2018-01-28T09:41:05Z</time>
      </trkpt>
      <trkpt lat="46.01538" lon="6.51795">
        <ele>1555</ele>
        <time>2018-01-28T09:41:21Z</time>
      </trkpt>
      <trkpt lat="46.01538" lon="6.51794">
        <ele>1555</ele>
        <time>2018-01-28T09:41:22Z</time>
      </trkpt>
      <trkpt lat="46.01538" lon="6.51779">
        <ele>1556</ele>
        <time>2018-01-28T09:41:37Z</time>
      </trkpt>
      <trkpt lat="46.0154" lon="6.51764">
        <ele>1558</ele>
        <time>2018-01-28T09:41:50Z</time>
      </trkpt>
      <trkpt lat="46.0154" lon="6.51761">
        <ele>1558</ele>
        <time>2018-01-28T09:41:52Z</time>
      </trkpt>
      <trkpt lat="46.0154" lon="6.51749">
        <ele>1568</ele>
        <time>2018-01-28T09:42:01Z</time>
      </trkpt>
      <trkpt lat="46.01539" lon="6.51737">
        <ele>1569</ele>
        <time>2018-01-28T09:42:12Z</time>
      </trkpt>
      <trkpt lat="46.01538" lon="6.51729">
        <ele>1569</ele>
        <time>2018-01-28T09:42:18Z</time>
      </trkpt>
      <trkpt lat="46.01536" lon="6.5171">
        <ele>1570</ele>
        <time>2018-01-28T09:42:34Z</time>
      </trkpt>
      <trkpt lat="46.01536" lon="6.51697">
        <ele>1571</ele>
        <time>2018-01-28T09:42:44Z</time>
      </trkpt>
      <trkpt lat="46.01536" lon="6.51695">
        <ele>1571</ele>
        <time>2018-01-28T09:42:46Z</time>
      </trkpt>
      <trkpt lat="46.01536" lon="6.51693">
        <ele>1571</ele>
        <time>2018-01-28T09:42:48Z</time>
      </trkpt>
      <trkpt lat="46.01539" lon="6.51677">
        <ele>1572</ele>
        <time>2018-01-28T09:43:03Z</time>
      </trkpt>
      <trkpt lat="46.01539" lon="6.51675">
        <ele>1573</ele>
        <time>2018-01-28T09:43:05Z</time>
      </trkpt>
      <trkpt lat="46.0154" lon="6.51668">
        <ele>1573</ele>
        <time>2018-01-28T09:43:12Z</time>
      </trkpt>
      <trkpt lat="46.0154" lon="6.51662">
        <ele>1584</ele>
        <time>2018-01-28T09:43:18Z</time>
      </trkpt>
      <trkpt lat="46.01541" lon="6.51659">
        <ele>1584</ele>
        <time>2018-01-28T09:43:20Z</time>
      </trkpt>
      <trkpt lat="46.01541" lon="6.51654">
        <ele>1584</ele>
        <time>2018-01-28T09:43:24Z</time>
      </trkpt>
      <trkpt lat="46.01541" lon="6.5165">
        <ele>1585</ele>
        <time>2018-01-28T09:43:28Z</time>
      </trkpt>
      <trkpt lat="46.01542" lon="6.51648">
        <ele>1585</ele>
        <time>2018-01-28T09:43:30Z</time>
      </trkpt>
      <trkpt lat="46.01542" lon="6.51638">
        <ele>1586</ele>
        <time>2018-01-28T09:43:40Z</time>
      </trkpt>
      <trkpt lat="46.01542" lon="6.51636">
        <ele>1587</ele>
        <time>2018-01-28T09:43:42Z</time>
      </trkpt>
      <trkpt lat="46.0154" lon="6.5163">
        <ele>1587</ele>
        <time>2018-01-28T09:43:47Z</time>
      </trkpt>
      <trkpt lat="46.01538" lon="6.51614">
        <ele>1588</ele>
        <time>2018-01-28T09:44:03Z</time>
      </trkpt>
      <trkpt lat="46.01537" lon="6.5161">
        <ele>1588</ele>
        <time>2018-01-28T09:44:07Z</time>
      </trkpt>
      <trkpt lat="46.01537" lon="6.51608">
        <ele>1588</ele>
        <time>2018-01-28T09:44:09Z</time>
      </trkpt>
      <trkpt lat="46.01536" lon="6.51606">
        <ele>1588</ele>
        <time>2018-01-28T09:44:11Z</time>
      </trkpt>
      <trkpt lat="46.01535" lon="6.51602">
        <ele>1588</ele>
        <time>2018-01-28T09:44:15Z</time>
      </trkpt>
      <trkpt lat="46.01535" lon="6.51597">
        <ele>1589</ele>
        <time>2018-01-28T09:44:20Z</time>
      </trkpt>
      <trkpt lat="46.01535" lon="6.51595">
        <ele>1589</ele>
        <time>2018-01-28T09:44:22Z</time>
      </trkpt>
      <trkpt lat="46.01537" lon="6.51585">
        <ele>1590</ele>
        <time>2018-01-28T09:44:34Z</time>
      </trkpt>
      <trkpt lat="46.01542" lon="6.51582">
        <ele>1603</ele>
        <time>2018-01-28T09:44:42Z</time>
      </trkpt>
      <trkpt lat="46.01551" lon="6.51582">
        <ele>1607</ele>
        <time>2018-01-28T09:44:56Z</time>
      </trkpt>
      <trkpt lat="46.0156" lon="6.51579">
        <ele>1610</ele>
        <time>2018-01-28T09:45:11Z</time>
      </trkpt>
      <trkpt lat="46.01559" lon="6.51575">
        <ele>1609</ele>
        <time>2018-01-28T09:45:16Z</time>
      </trkpt>
      <trkpt lat="46.01559" lon="6.51573">
        <ele>1609</ele>
        <time>2018-01-28T09:45:18Z</time>
      </trkpt>
      <trkpt lat="46.01558" lon="6.5157">
        <ele>1609</ele>
        <time>2018-01-28T09:45:22Z</time>
      </trkpt>
      <trkpt lat="46.01555" lon="6.51558">
        <ele>1608</ele>
        <time>2018-01-28T09:45:34Z</time>
      </trkpt>
      <trkpt lat="46.01553" lon="6.51551">
        <ele>1608</ele>
        <time>2018-01-28T09:45:42Z</time>
      </trkpt>
      <trkpt lat="46.01551" lon="6.51534">
        <ele>1609</ele>
        <time>2018-01-28T09:45:57Z</time>
      </trkpt>
      <trkpt lat="46.01552" lon="6.51528">
        <ele>1610</ele>
        <time>2018-01-28T09:46:03Z</time>
      </trkpt>
      <trkpt lat="46.01555" lon="6.51525">
        <ele>1611</ele>
        <time>2018-01-28T09:46:18Z</time>
      </trkpt>
      <trkpt lat="46.01564" lon="6.51526">
        <ele>1613</ele>
        <time>2018-01-28T09:46:34Z</time>
      </trkpt>
      <trkpt lat="46.01561" lon="6.51517">
        <ele>1614</ele>
        <time>2018-01-28T09:46:46Z</time>
      </trkpt>
      <trkpt lat="46.0156" lon="6.51508">
        <ele>1615</ele>
        <time>2018-01-28T09:46:54Z</time>
      </trkpt>
      <trkpt lat="46.0156" lon="6.51506">
        <ele>1615</ele>
        <time>2018-01-28T09:46:56Z</time>
      </trkpt>
      <trkpt lat="46.0156" lon="6.51504">
        <ele>1615</ele>
        <time>2018-01-28T09:46:58Z</time>
      </trkpt>
      <trkpt lat="46.01559" lon="6.51492">
        <ele>1625</ele>
        <time>2018-01-28T09:47:10Z</time>
      </trkpt>
      <trkpt lat="46.0156" lon="6.5148">
        <ele>1625</ele>
        <time>2018-01-28T09:47:24Z</time>
      </trkpt>
      <trkpt lat="46.0156" lon="6.51478">
        <ele>1625</ele>
        <time>2018-01-28T09:47:26Z</time>
      </trkpt>
      <trkpt lat="46.0156" lon="6.51469">
        <ele>1626</ele>
        <time>2018-01-28T09:47:38Z</time>
      </trkpt>
      <trkpt lat="46.01561" lon="6.51455">
        <ele>1627</ele>
        <time>2018-01-28T09:47:54Z</time>
      </trkpt>
      <trkpt lat="46.01562" lon="6.51449">
        <ele>1629</ele>
        <time>2018-01-28T09:47:59Z</time>
      </trkpt>
      <trkpt lat="46.01562" lon="6.51447">
        <ele>1629</ele>
        <time>2018-01-28T09:48:01Z</time>
      </trkpt>
      <trkpt lat="46.01562" lon="6.51445">
        <ele>1629</ele>
        <time>2018-01-28T09:48:03Z</time>
      </trkpt>
      <trkpt lat="46.01564" lon="6.51431">
        <ele>1633</ele>
        <time>2018-01-28T09:48:19Z</time>
      </trkpt>
      <trkpt lat="46.01565" lon="6.51427">
        <ele>1635</ele>
        <time>2018-01-28T09:48:22Z</time>
      </trkpt>
      <trkpt lat="46.01569" lon="6.51418">
        <ele>1639</ele>
        <time>2018-01-28T09:48:38Z</time>
      </trkpt>
      <trkpt lat="46.0157" lon="6.51418">
        <ele>1639</ele>
        <time>2018-01-28T09:48:39Z</time>
      </trkpt>
      <trkpt lat="46.01573" lon="6.51423">
        <ele>1640</ele>
        <time>2018-01-28T09:48:46Z</time>
      </trkpt>
      <trkpt lat="46.01578" lon="6.51429">
        <ele>1640</ele>
        <time>2018-01-28T09:48:56Z</time>
      </trkpt>
      <trkpt lat="46.0158" lon="6.5143">
        <ele>1639</ele>
        <time>2018-01-28T09:49:00Z</time>
      </trkpt>
      <trkpt lat="46.01583" lon="6.51432">
        <ele>1639</ele>
        <time>2018-01-28T09:49:04Z</time>
      </trkpt>
      <trkpt lat="46.01584" lon="6.51433">
        <ele>1657</ele>
        <time>2018-01-28T09:49:06Z</time>
      </trkpt>
      <trkpt lat="46.01587" lon="6.51435">
        <ele>1657</ele>
        <time>2018-01-28T09:49:10Z</time>
      </trkpt>
      <trkpt lat="46.01589" lon="6.51435">
        <ele>1658</ele>
        <time>2018-01-28T09:49:14Z</time>
      </trkpt>
      <trkpt lat="46.01592" lon="6.51436">
        <ele>1658</ele>
        <time>2018-01-28T09:49:18Z</time>
      </trkpt>
      <trkpt lat="46.01596" lon="6.51439">
        <ele>1659</ele>
        <time>2018-01-28T09:49:24Z</time>
      </trkpt>
      <trkpt lat="46.01602" lon="6.51444">
        <ele>1661</ele>
        <time>2018-01-28T09:49:37Z</time>
      </trkpt>
      <trkpt lat="46.01603" lon="6.51436">
        <ele>1661</ele>
        <time>2018-01-28T09:49:51Z</time>
      </trkpt>
      <trkpt lat="46.01604" lon="6.51428">
        <ele>1661</ele>
        <time>2018-01-28T09:50:01Z</time>
      </trkpt>
      <trkpt lat="46.01613" lon="6.51427">
        <ele>1664</ele>
        <time>2018-01-28T09:50:21Z</time>
      </trkpt>
      <trkpt lat="46.01622" lon="6.5143">
        <ele>1667</ele>
        <time>2018-01-28T09:50:34Z</time>
      </trkpt>
      <trkpt lat="46.01622" lon="6.51423">
        <ele>1668</ele>
        <time>2018-01-28T09:50:49Z</time>
      </trkpt>
      <trkpt lat="46.01622" lon="6.51421">
        <ele>1668</ele>
        <time>2018-01-28T09:50:51Z</time>
      </trkpt>
      <trkpt lat="46.0162" lon="6.51408">
        <ele>1681</ele>
        <time>2018-01-28T09:51:07Z</time>
      </trkpt>
      <trkpt lat="46.01628" lon="6.51408">
        <ele>1685</ele>
        <time>2018-01-28T09:51:25Z</time>
      </trkpt>
      <trkpt lat="46.01634" lon="6.51412">
        <ele>1687</ele>
        <time>2018-01-28T09:51:37Z</time>
      </trkpt>
      <trkpt lat="46.01638" lon="6.51414">
        <ele>1688</ele>
        <time>2018-01-28T09:51:44Z</time>
      </trkpt>
      <trkpt lat="46.01637" lon="6.51408">
        <ele>1688</ele>
        <time>2018-01-28T09:52:24Z</time>
      </trkpt>
      <trkpt lat="46.01633" lon="6.51394">
        <ele>1688</ele>
        <time>2018-01-28T09:52:45Z</time>
      </trkpt>
      <trkpt lat="46.01632" lon="6.51387">
        <ele>1688</ele>
        <time>2018-01-28T09:53:06Z</time>
      </trkpt>
      <trkpt lat="46.01631" lon="6.51387">
        <ele>1688</ele>
        <time>2018-01-28T09:53:31Z</time>
      </trkpt>
      <trkpt lat="46.01631" lon="6.51386">
        <ele>1688</ele>
        <time>2018-01-28T09:53:37Z</time>
      </trkpt>
      <trkpt lat="46.01632" lon="6.51386">
        <ele>1688</ele>
        <time>2018-01-28T09:53:41Z</time>
      </trkpt>
      <trkpt lat="46.01634" lon="6.51388">
        <ele>1689</ele>
        <time>2018-01-28T09:53:51Z</time>
      </trkpt>
      <trkpt lat="46.01636" lon="6.5139">
        <ele>1689</ele>
        <time>2018-01-28T09:54:02Z</time>
      </trkpt>
      <trkpt lat="46.01642" lon="6.51394">
        <ele>1690</ele>
        <time>2018-01-28T09:54:29Z</time>
      </trkpt>
      <trkpt lat="46.01641" lon="6.51395">
        <ele>1690</ele>
        <time>2018-01-28T09:54:46Z</time>
      </trkpt>
      <trkpt lat="46.01644" lon="6.51398">
        <ele>1691</ele>
        <time>2018-01-28T09:55:06Z</time>
      </trkpt>
      <trkpt lat="46.01649" lon="6.51397">
        <ele>1692</ele>
        <time>2018-01-28T09:55:28Z</time>
      </trkpt>
      <trkpt lat="46.01648" lon="6.5139">
        <ele>1692</ele>
        <time>2018-01-28T09:55:36Z</time>
      </trkpt>
      <trkpt lat="46.01648" lon="6.51389">
        <ele>1692</ele>
        <time>2018-01-28T09:55:38Z</time>
      </trkpt>
      <trkpt lat="46.01647" lon="6.51383">
        <ele>1692</ele>
        <time>2018-01-28T09:55:44Z</time>
      </trkpt>
      <trkpt lat="46.01648" lon="6.51382">
        <ele>1693</ele>
        <time>2018-01-28T09:55:51Z</time>
      </trkpt>
      <trkpt lat="46.01656" lon="6.51384">
        <ele>1694</ele>
        <time>2018-01-28T09:56:04Z</time>
      </trkpt>
      <trkpt lat="46.01658" lon="6.51384">
        <ele>1695</ele>
        <time>2018-01-28T09:56:12Z</time>
      </trkpt>
      <trkpt lat="46.01657" lon="6.51372">
        <ele>1696</ele>
        <time>2018-01-28T09:56:24Z</time>
      </trkpt>
      <trkpt lat="46.01657" lon="6.51361">
        <ele>1700</ele>
        <time>2018-01-28T09:56:49Z</time>
      </trkpt>
      <trkpt lat="46.01656" lon="6.51354">
        <ele>1703</ele>
        <time>2018-01-28T09:57:06Z</time>
      </trkpt>
      <trkpt lat="46.01655" lon="6.51354">
        <ele>1702</ele>
        <time>2018-01-28T09:57:08Z</time>
      </trkpt>
      <trkpt lat="46.01649" lon="6.51338">
        <ele>1706</ele>
        <time>2018-01-28T09:57:35Z</time>
      </trkpt>
      <trkpt lat="46.01645" lon="6.51324">
        <ele>1717</ele>
        <time>2018-01-28T09:57:58Z</time>
      </trkpt>
      <trkpt lat="46.01642" lon="6.51314">
        <ele>1716</ele>
        <time>2018-01-28T09:58:14Z</time>
      </trkpt>
      <trkpt lat="46.01641" lon="6.5131">
        <ele>1716</ele>
        <time>2018-01-28T09:58:19Z</time>
      </trkpt>
      <trkpt lat="46.01635" lon="6.51296">
        <ele>1716</ele>
        <time>2018-01-28T09:58:44Z</time>
      </trkpt>
      <trkpt lat="46.01632" lon="6.51283">
        <ele>1718</ele>
        <time>2018-01-28T09:59:03Z</time>
      </trkpt>
      <trkpt lat="46.01629" lon="6.51271">
        <ele>1719</ele>
        <time>2018-01-28T09:59:23Z</time>
      </trkpt>
      <trkpt lat="46.01626" lon="6.51259">
        <ele>1719</ele>
        <time>2018-01-28T09:59:41Z</time>
      </trkpt>
      <trkpt lat="46.01623" lon="6.51245">
        <ele>1738</ele>
        <time>2018-01-28T09:59:58Z</time>
      </trkpt>
      <trkpt lat="46.0163" lon="6.51249">
        <ele>1741</ele>
        <time>2018-01-28T10:00:19Z</time>
      </trkpt>
      <trkpt lat="46.01638" lon="6.51253">
        <ele>1726</ele>
        <time>2018-01-28T10:00:31Z</time>
      </trkpt>
      <trkpt lat="46.01642" lon="6.51257">
        <ele>1728</ele>
        <time>2018-01-28T10:00:47Z</time>
      </trkpt>
      <trkpt lat="46.0164" lon="6.51251">
        <ele>1728</ele>
        <time>2018-01-28T10:00:55Z</time>
      </trkpt>
      <trkpt lat="46.0164" lon="6.5125">
        <ele>1728</ele>
        <time>2018-01-28T10:00:56Z</time>
      </trkpt>
      <trkpt lat="46.01636" lon="6.51234">
        <ele>1744</ele>
        <time>2018-01-28T10:01:13Z</time>
      </trkpt>
      <trkpt lat="46.01631" lon="6.5122">
        <ele>1744</ele>
        <time>2018-01-28T10:01:29Z</time>
      </trkpt>
      <trkpt lat="46.01625" lon="6.51202">
        <ele>1746</ele>
        <time>2018-01-28T10:01:50Z</time>
      </trkpt>
      <trkpt lat="46.01624" lon="6.512">
        <ele>1746</ele>
        <time>2018-01-28T10:01:52Z</time>
      </trkpt>
      <trkpt lat="46.01624" lon="6.51197">
        <ele>1746</ele>
        <time>2018-01-28T10:01:54Z</time>
      </trkpt>
      <trkpt lat="46.01623" lon="6.51195">
        <ele>1746</ele>
        <time>2018-01-28T10:01:56Z</time>
      </trkpt>
      <trkpt lat="46.01622" lon="6.51191">
        <ele>1746</ele>
        <time>2018-01-28T10:02:00Z</time>
      </trkpt>
      <trkpt lat="46.0162" lon="6.51184">
        <ele>1747</ele>
        <time>2018-01-28T10:02:07Z</time>
      </trkpt>
      <trkpt lat="46.0162" lon="6.5118">
        <ele>1747</ele>
        <time>2018-01-28T10:02:12Z</time>
      </trkpt>
      <trkpt lat="46.01622" lon="6.51182">
        <ele>1748</ele>
        <time>2018-01-28T10:02:18Z</time>
      </trkpt>
      <trkpt lat="46.01624" lon="6.51182">
        <ele>1749</ele>
        <time>2018-01-28T10:02:20Z</time>
      </trkpt>
      <trkpt lat="46.0163" lon="6.51186">
        <ele>1751</ele>
        <time>2018-01-28T10:02:30Z</time>
      </trkpt>
      <trkpt lat="46.01632" lon="6.51187">
        <ele>1751</ele>
        <time>2018-01-28T10:02:34Z</time>
      </trkpt>
      <trkpt lat="46.0164" lon="6.51194">
        <ele>1753</ele>
        <time>2018-01-28T10:02:49Z</time>
      </trkpt>
      <trkpt lat="46.01642" lon="6.51195">
        <ele>1754</ele>
        <time>2018-01-28T10:02:53Z</time>
      </trkpt>
      <trkpt lat="46.01648" lon="6.51197">
        <ele>1755</ele>
        <time>2018-01-28T10:03:11Z</time>
      </trkpt>
      <trkpt lat="46.01647" lon="6.51194">
        <ele>1756</ele>
        <time>2018-01-28T10:03:14Z</time>
      </trkpt>
      <trkpt lat="46.01644" lon="6.51187">
        <ele>1757</ele>
        <time>2018-01-28T10:03:20Z</time>
      </trkpt>
      <trkpt lat="46.01643" lon="6.51186">
        <ele>1757</ele>
        <time>2018-01-28T10:03:21Z</time>
      </trkpt>
      <trkpt lat="46.0164" lon="6.5118">
        <ele>1757</ele>
        <time>2018-01-28T10:03:27Z</time>
      </trkpt>
      <trkpt lat="46.01637" lon="6.51166">
        <ele>1777</ele>
        <time>2018-01-28T10:03:43Z</time>
      </trkpt>
      <trkpt lat="46.01637" lon="6.51164">
        <ele>1777</ele>
        <time>2018-01-28T10:03:45Z</time>
      </trkpt>
      <trkpt lat="46.01637" lon="6.51161">
        <ele>1777</ele>
        <time>2018-01-28T10:03:48Z</time>
      </trkpt>
      <trkpt lat="46.01642" lon="6.51161">
        <ele>1779</ele>
        <time>2018-01-28T10:03:57Z</time>
      </trkpt>
      <trkpt lat="46.01651" lon="6.51166">
        <ele>1783</ele>
        <time>2018-01-28T10:04:11Z</time>
      </trkpt>
      <trkpt lat="46.01655" lon="6.51165">
        <ele>1784</ele>
        <time>2018-01-28T10:04:24Z</time>
      </trkpt>
      <trkpt lat="46.01654" lon="6.51164">
        <ele>1784</ele>
        <time>2018-01-28T10:04:26Z</time>
      </trkpt>
      <trkpt lat="46.01654" lon="6.51162">
        <ele>1784</ele>
        <time>2018-01-28T10:04:28Z</time>
      </trkpt>
      <trkpt lat="46.01653" lon="6.51157">
        <ele>1783</ele>
        <time>2018-01-28T10:04:32Z</time>
      </trkpt>
      <trkpt lat="46.01653" lon="6.51155">
        <ele>1783</ele>
        <time>2018-01-28T10:04:34Z</time>
      </trkpt>
      <trkpt lat="46.01652" lon="6.51153">
        <ele>1783</ele>
        <time>2018-01-28T10:04:36Z</time>
      </trkpt>
      <trkpt lat="46.01649" lon="6.51145">
        <ele>1782</ele>
        <time>2018-01-28T10:04:45Z</time>
      </trkpt>
      <trkpt lat="46.01649" lon="6.51143">
        <ele>1782</ele>
        <time>2018-01-28T10:04:47Z</time>
      </trkpt>
      <trkpt lat="46.01648" lon="6.51141">
        <ele>1782</ele>
        <time>2018-01-28T10:04:49Z</time>
      </trkpt>
      <trkpt lat="46.01647" lon="6.51137">
        <ele>1783</ele>
        <time>2018-01-28T10:04:54Z</time>
      </trkpt>
      <trkpt lat="46.01646" lon="6.51131">
        <ele>1783</ele>
        <time>2018-01-28T10:05:00Z</time>
      </trkpt>
      <trkpt lat="46.01641" lon="6.51118">
        <ele>1785</ele>
        <time>2018-01-28T10:05:15Z</time>
      </trkpt>
      <trkpt lat="46.0164" lon="6.51111">
        <ele>1787</ele>
        <time>2018-01-28T10:05:22Z</time>
      </trkpt>
      <trkpt lat="46.01637" lon="6.51095">
        <ele>1790</ele>
        <time>2018-01-28T10:05:39Z</time>
      </trkpt>
      <trkpt lat="46.01634" lon="6.51091">
        <ele>1789</ele>
        <time>2018-01-28T10:05:46Z</time>
      </trkpt>
      <trkpt lat="46.01633" lon="6.5108">
        <ele>1810</ele>
        <time>2018-01-28T10:05:57Z</time>
      </trkpt>
      <trkpt lat="46.01631" lon="6.5106">
        <ele>1811</ele>
        <time>2018-01-28T10:06:22Z</time>
      </trkpt>
      <trkpt lat="46.01629" lon="6.51055">
        <ele>1811</ele>
        <time>2018-01-28T10:06:28Z</time>
      </trkpt>
      <trkpt lat="46.01629" lon="6.51053">
        <ele>1811</ele>
        <time>2018-01-28T10:06:30Z</time>
      </trkpt>
      <trkpt lat="46.01629" lon="6.51051">
        <ele>1811</ele>
        <time>2018-01-28T10:06:32Z</time>
      </trkpt>
      <trkpt lat="46.01625" lon="6.5104">
        <ele>1812</ele>
        <time>2018-01-28T10:06:48Z</time>
      </trkpt>
      <trkpt lat="46.01624" lon="6.51036">
        <ele>1812</ele>
        <time>2018-01-28T10:06:53Z</time>
      </trkpt>
      <trkpt lat="46.0162" lon="6.51022">
        <ele>1813</ele>
        <time>2018-01-28T10:07:11Z</time>
      </trkpt>
      <trkpt lat="46.01615" lon="6.51007">
        <ele>1812</ele>
        <time>2018-01-28T10:07:31Z</time>
      </trkpt>
      <trkpt lat="46.01609" lon="6.50997">
        <ele>1829</ele>
        <time>2018-01-28T10:07:46Z</time>
      </trkpt>
      <trkpt lat="46.01602" lon="6.50986">
        <ele>1828</ele>
        <time>2018-01-28T10:08:02Z</time>
      </trkpt>
      <trkpt lat="46.01601" lon="6.50984">
        <ele>1828</ele>
        <time>2018-01-28T10:08:04Z</time>
      </trkpt>
      <trkpt lat="46.01606" lon="6.50978">
        <ele>1833</ele>
        <time>2018-01-28T10:08:20Z</time>
      </trkpt>
      <trkpt lat="46.01606" lon="6.50976">
        <ele>1834</ele>
        <time>2018-01-28T10:08:21Z</time>
      </trkpt>
      <trkpt lat="46.01602" lon="6.50969">
        <ele>1835</ele>
        <time>2018-01-28T10:08:31Z</time>
      </trkpt>
      <trkpt lat="46.01601" lon="6.50968">
        <ele>1835</ele>
        <time>2018-01-28T10:08:33Z</time>
      </trkpt>
      <trkpt lat="46.01599" lon="6.50967">
        <ele>1835</ele>
        <time>2018-01-28T10:08:36Z</time>
      </trkpt>
      <trkpt lat="46.01597" lon="6.50963">
        <ele>1835</ele>
        <time>2018-01-28T10:08:40Z</time>
      </trkpt>
      <trkpt lat="46.01596" lon="6.50962">
        <ele>1836</ele>
        <time>2018-01-28T10:08:42Z</time>
      </trkpt>
      <trkpt lat="46.01594" lon="6.50953">
        <ele>1838</ele>
        <time>2018-01-28T10:08:52Z</time>
      </trkpt>
      <trkpt lat="46.01591" lon="6.50946">
        <ele>1839</ele>
        <time>2018-01-28T10:09:01Z</time>
      </trkpt>
      <trkpt lat="46.0159" lon="6.50942">
        <ele>1839</ele>
        <time>2018-01-28T10:09:05Z</time>
      </trkpt>
      <trkpt lat="46.01589" lon="6.5094">
        <ele>1839</ele>
        <time>2018-01-28T10:09:07Z</time>
      </trkpt>
      <trkpt lat="46.01589" lon="6.50938">
        <ele>1839</ele>
        <time>2018-01-28T10:09:09Z</time>
      </trkpt>
      <trkpt lat="46.01588" lon="6.50936">
        <ele>1839</ele>
        <time>2018-01-28T10:09:11Z</time>
      </trkpt>
      <trkpt lat="46.01588" lon="6.50932">
        <ele>1839</ele>
        <time>2018-01-28T10:09:15Z</time>
      </trkpt>
      <trkpt lat="46.01587" lon="6.50928">
        <ele>1838</ele>
        <time>2018-01-28T10:09:19Z</time>
      </trkpt>
      <trkpt lat="46.01585" lon="6.5092">
        <ele>1836</ele>
        <time>2018-01-28T10:09:27Z</time>
      </trkpt>
      <trkpt lat="46.01584" lon="6.50918">
        <ele>1836</ele>
        <time>2018-01-28T10:09:29Z</time>
      </trkpt>
      <trkpt lat="46.01584" lon="6.50916">
        <ele>1836</ele>
        <time>2018-01-28T10:09:31Z</time>
      </trkpt>
      <trkpt lat="46.01583" lon="6.50915">
        <ele>1833</ele>
        <time>2018-01-28T10:09:32Z</time>
      </trkpt>
      <trkpt lat="46.01582" lon="6.50911">
        <ele>1831</ele>
        <time>2018-01-28T10:09:36Z</time>
      </trkpt>
      <trkpt lat="46.01582" lon="6.50909">
        <ele>1830</ele>
        <time>2018-01-28T10:09:38Z</time>
      </trkpt>
      <trkpt lat="46.0158" lon="6.50905">
        <ele>1828</ele>
        <time>2018-01-28T10:09:42Z</time>
      </trkpt>
      <trkpt lat="46.01576" lon="6.50892">
        <ele>1824</ele>
        <time>2018-01-28T10:09:56Z</time>
      </trkpt>
      <trkpt lat="46.01575" lon="6.50889">
        <ele>1824</ele>
        <time>2018-01-28T10:09:59Z</time>
      </trkpt>
      <trkpt lat="46.01575" lon="6.50888">
        <ele>1824</ele>
        <time>2018-01-28T10:10:00Z</time>
      </trkpt>
      <trkpt lat="46.01574" lon="6.50886">
        <ele>1824</ele>
        <time>2018-01-28T10:10:02Z</time>
      </trkpt>
      <trkpt lat="46.01572" lon="6.50883">
        <ele>1823</ele>
        <time>2018-01-28T10:10:06Z</time>
      </trkpt>
      <trkpt lat="46.01565" lon="6.50873">
        <ele>1823</ele>
        <time>2018-01-28T10:10:21Z</time>
      </trkpt>
      <trkpt lat="46.0156" lon="6.50862">
        <ele>1824</ele>
        <time>2018-01-28T10:10:36Z</time>
      </trkpt>
      <trkpt lat="46.01556" lon="6.50851">
        <ele>1825</ele>
        <time>2018-01-28T10:10:57Z</time>
      </trkpt>
      <trkpt lat="46.01564" lon="6.50852">
        <ele>1829</ele>
        <time>2018-01-28T10:11:13Z</time>
      </trkpt>
      <trkpt lat="46.01566" lon="6.50848">
        <ele>1832</ele>
        <time>2018-01-28T10:11:31Z</time>
      </trkpt>
      <trkpt lat="46.01564" lon="6.50834">
        <ele>1835</ele>
        <time>2018-01-28T10:11:48Z</time>
      </trkpt>
      <trkpt lat="46.01563" lon="6.50824">
        <ele>1847</ele>
        <time>2018-01-28T10:12:02Z</time>
      </trkpt>
      <trkpt lat="46.01564" lon="6.50813">
        <ele>1847</ele>
        <time>2018-01-28T10:12:17Z</time>
      </trkpt>
      <trkpt lat="46.01565" lon="6.50808">
        <ele>1848</ele>
        <time>2018-01-28T10:12:21Z</time>
      </trkpt>
      <trkpt lat="46.01564" lon="6.50802">
        <ele>1848</ele>
        <time>2018-01-28T10:12:50Z</time>
      </trkpt>
      <trkpt lat="46.01565" lon="6.50799">
        <ele>1849</ele>
        <time>2018-01-28T10:13:00Z</time>
      </trkpt>
      <trkpt lat="46.01566" lon="6.50794">
        <ele>1850</ele>
        <time>2018-01-28T10:13:07Z</time>
      </trkpt>
      <trkpt lat="46.01566" lon="6.5079">
        <ele>1851</ele>
        <time>2018-01-28T10:13:12Z</time>
      </trkpt>
      <trkpt lat="46.01566" lon="6.50787">
        <ele>1852</ele>
        <time>2018-01-28T10:13:17Z</time>
      </trkpt>
      <trkpt lat="46.01569" lon="6.50777">
        <ele>1856</ele>
        <time>2018-01-28T10:13:34Z</time>
      </trkpt>
      <trkpt lat="46.01571" lon="6.5078">
        <ele>1856</ele>
        <time>2018-01-28T10:13:42Z</time>
      </trkpt>
      <trkpt lat="46.01573" lon="6.50781">
        <ele>1855</ele>
        <time>2018-01-28T10:13:47Z</time>
      </trkpt>
      <trkpt lat="46.01574" lon="6.50776">
        <ele>1858</ele>
        <time>2018-01-28T10:14:10Z</time>
      </trkpt>
      <trkpt lat="46.0158" lon="6.50778">
        <ele>1859</ele>
        <time>2018-01-28T10:14:33Z</time>
      </trkpt>
      <trkpt lat="46.01581" lon="6.50779">
        <ele>1859</ele>
        <time>2018-01-28T10:14:35Z</time>
      </trkpt>
      <trkpt lat="46.01588" lon="6.50786">
        <ele>1896</ele>
        <time>2018-01-28T10:14:51Z</time>
      </trkpt>
      <trkpt lat="46.01596" lon="6.5079">
        <ele>1897</ele>
        <time>2018-01-28T10:15:03Z</time>
      </trkpt>
      <trkpt lat="46.01605" lon="6.50795">
        <ele>1899</ele>
        <time>2018-01-28T10:15:19Z</time>
      </trkpt>
      <trkpt lat="46.01615" lon="6.50801">
        <ele>1901</ele>
        <time>2018-01-28T10:15:36Z</time>
      </trkpt>
      <trkpt lat="46.01615" lon="6.50796">
        <ele>1902</ele>
        <time>2018-01-28T10:15:52Z</time>
      </trkpt>
      <trkpt lat="46.01614" lon="6.50785">
        <ele>1904</ele>
        <time>2018-01-28T10:16:05Z</time>
      </trkpt>
      <trkpt lat="46.01614" lon="6.50784">
        <ele>1904</ele>
        <time>2018-01-28T10:16:06Z</time>
      </trkpt>
      <trkpt lat="46.01615" lon="6.50771">
        <ele>1906</ele>
        <time>2018-01-28T10:16:23Z</time>
      </trkpt>
      <trkpt lat="46.01614" lon="6.50755">
        <ele>1906</ele>
        <time>2018-01-28T10:16:42Z</time>
      </trkpt>
      <trkpt lat="46.01613" lon="6.50751">
        <ele>1906</ele>
        <time>2018-01-28T10:16:47Z</time>
      </trkpt>
      <trkpt lat="46.01611" lon="6.50743">
        <ele>1924</ele>
        <time>2018-01-28T10:16:57Z</time>
      </trkpt>
      <trkpt lat="46.01611" lon="6.50739">
        <ele>1925</ele>
        <time>2018-01-28T10:17:01Z</time>
      </trkpt>
      <trkpt lat="46.01609" lon="6.50726">
        <ele>1928</ele>
        <time>2018-01-28T10:17:16Z</time>
      </trkpt>
      <trkpt lat="46.01605" lon="6.50718">
        <ele>1929</ele>
        <time>2018-01-28T10:17:35Z</time>
      </trkpt>
      <trkpt lat="46.01603" lon="6.5071">
        <ele>1931</ele>
        <time>2018-01-28T10:17:44Z</time>
      </trkpt>
      <trkpt lat="46.01602" lon="6.50708">
        <ele>1931</ele>
        <time>2018-01-28T10:17:47Z</time>
      </trkpt>
      <trkpt lat="46.01599" lon="6.50695">
        <ele>1933</ele>
        <time>2018-01-28T10:18:07Z</time>
      </trkpt>
      <trkpt lat="46.01597" lon="6.50691">
        <ele>1933</ele>
        <time>2018-01-28T10:18:13Z</time>
      </trkpt>
      <trkpt lat="46.01596" lon="6.50686">
        <ele>1932</ele>
        <time>2018-01-28T10:18:19Z</time>
      </trkpt>
      <trkpt lat="46.01592" lon="6.50678">
        <ele>1931</ele>
        <time>2018-01-28T10:18:30Z</time>
      </trkpt>
      <trkpt lat="46.0159" lon="6.50674">
        <ele>1930</ele>
        <time>2018-01-28T10:18:36Z</time>
      </trkpt>
      <trkpt lat="46.01594" lon="6.5067">
        <ele>1930</ele>
        <time>2018-01-28T10:19:00Z</time>
      </trkpt>
      <trkpt lat="46.01599" lon="6.50674">
        <ele>1933</ele>
        <time>2018-01-28T10:19:10Z</time>
      </trkpt>
      <trkpt lat="46.01604" lon="6.50678">
        <ele>1935</ele>
        <time>2018-01-28T10:19:19Z</time>
      </trkpt>
      <trkpt lat="46.01607" lon="6.50682">
        <ele>1936</ele>
        <time>2018-01-28T10:19:25Z</time>
      </trkpt>
      <trkpt lat="46.01609" lon="6.50683">
        <ele>1937</ele>
        <time>2018-01-28T10:19:27Z</time>
      </trkpt>
      <trkpt lat="46.0161" lon="6.50683">
        <ele>1937</ele>
        <time>2018-01-28T10:19:28Z</time>
      </trkpt>
      <trkpt lat="46.01624" lon="6.50698">
        <ele>1941</ele>
        <time>2018-01-28T10:19:55Z</time>
      </trkpt>
      <trkpt lat="46.01636" lon="6.50709">
        <ele>1943</ele>
        <time>2018-01-28T10:20:14Z</time>
      </trkpt>
      <trkpt lat="46.01637" lon="6.50709">
        <ele>1944</ele>
        <time>2018-01-28T10:20:15Z</time>
      </trkpt>
      <trkpt lat="46.01643" lon="6.50719">
        <ele>1944</ele>
        <time>2018-01-28T10:20:32Z</time>
      </trkpt>
      <trkpt lat="46.01653" lon="6.50728">
        <ele>1946</ele>
        <time>2018-01-28T10:20:53Z</time>
      </trkpt>
      <trkpt lat="46.01661" lon="6.50741">
        <ele>1949</ele>
        <time>2018-01-28T10:21:29Z</time>
      </trkpt>
      <trkpt lat="46.01666" lon="6.50746">
        <ele>1952</ele>
        <time>2018-01-28T10:21:46Z</time>
      </trkpt>
      <trkpt lat="46.0167" lon="6.50751">
        <ele>1956</ele>
        <time>2018-01-28T10:21:54Z</time>
      </trkpt>
      <trkpt lat="46.01671" lon="6.50752">
        <ele>1957</ele>
        <time>2018-01-28T10:21:55Z</time>
      </trkpt>
      <trkpt lat="46.01674" lon="6.5076">
        <ele>1960</ele>
        <time>2018-01-28T10:22:06Z</time>
      </trkpt>
      <trkpt lat="46.01675" lon="6.50765">
        <ele>1961</ele>
        <time>2018-01-28T10:22:17Z</time>
      </trkpt>
      <trkpt lat="46.01684" lon="6.50775">
        <ele>1964</ele>
        <time>2018-01-28T10:22:38Z</time>
      </trkpt>
      <trkpt lat="46.01689" lon="6.50785">
        <ele>1964</ele>
        <time>2018-01-28T10:23:10Z</time>
      </trkpt>
      <trkpt lat="46.01702" lon="6.50794">
        <ele>1967</ele>
        <time>2018-01-28T10:23:41Z</time>
      </trkpt>
      <trkpt lat="46.01704" lon="6.50793">
        <ele>1968</ele>
        <time>2018-01-28T10:23:48Z</time>
      </trkpt>
      <trkpt lat="46.01703" lon="6.50791">
        <ele>1968</ele>
        <time>2018-01-28T10:23:52Z</time>
      </trkpt>
      <trkpt lat="46.01702" lon="6.50793">
        <ele>1968</ele>
        <time>2018-01-28T10:24:10Z</time>
      </trkpt>
      <trkpt lat="46.017" lon="6.50795">
        <ele>1966</ele>
        <time>2018-01-28T10:24:14Z</time>
      </trkpt>
      <trkpt lat="46.01699" lon="6.50796">
        <ele>1966</ele>
        <time>2018-01-28T10:24:15Z</time>
      </trkpt>
      <trkpt lat="46.01695" lon="6.50802">
        <ele>1963</ele>
        <time>2018-01-28T10:24:23Z</time>
      </trkpt>
      <trkpt lat="46.01692" lon="6.50804">
        <ele>1961</ele>
        <time>2018-01-28T10:24:26Z</time>
      </trkpt>
      <trkpt lat="46.01691" lon="6.50805">
        <ele>1961</ele>
        <time>2018-01-28T10:24:27Z</time>
      </trkpt>
      <trkpt lat="46.01688" lon="6.50808">
        <ele>1958</ele>
        <time>2018-01-28T10:24:30Z</time>
      </trkpt>
      <trkpt lat="46.01687" lon="6.50809">
        <ele>1957</ele>
        <time>2018-01-28T10:24:31Z</time>
      </trkpt>
      <trkpt lat="46.01688" lon="6.5081">
        <ele>1958</ele>
        <time>2018-01-28T10:24:41Z</time>
      </trkpt>
      <trkpt lat="46.0169" lon="6.5081">
        <ele>1959</ele>
        <time>2018-01-28T10:24:59Z</time>
      </trkpt>
      <trkpt lat="46.01694" lon="6.50802">
        <ele>1963</ele>
        <time>2018-01-28T10:25:10Z</time>
      </trkpt>
      <trkpt lat="46.01695" lon="6.508">
        <ele>1963</ele>
        <time>2018-01-28T10:25:14Z</time>
      </trkpt>
      <trkpt lat="46.01694" lon="6.50799">
        <ele>1963</ele>
        <time>2018-01-28T10:25:17Z</time>
      </trkpt>
      <trkpt lat="46.01692" lon="6.50806">
        <ele>1961</ele>
        <time>2018-01-28T10:25:32Z</time>
      </trkpt>
      <trkpt lat="46.01692" lon="6.50806">
        <ele>1961</ele>
        <time>2018-01-28T10:25:36Z</time>
      </trkpt>
      <trkpt lat="46.01694" lon="6.50803">
        <ele>1962</ele>
        <time>2018-01-28T10:25:39Z</time>
      </trkpt>
      <trkpt lat="46.01693" lon="6.50805">
        <ele>1962</ele>
        <time>2018-01-28T10:26:00Z</time>
      </trkpt>
      <trkpt lat="46.01689" lon="6.50809">
        <ele>1958</ele>
        <time>2018-01-28T10:26:16Z</time>
      </trkpt>
      <trkpt lat="46.0169" lon="6.50807">
        <ele>1960</ele>
        <time>2018-01-28T10:26:21Z</time>
      </trkpt>
      <trkpt lat="46.01691" lon="6.50806">
        <ele>1960</ele>
        <time>2018-01-28T10:26:25Z</time>
      </trkpt>
      <trkpt lat="46.01692" lon="6.50805">
        <ele>1961</ele>
        <time>2018-01-28T10:26:28Z</time>
      </trkpt>
      <trkpt lat="46.01694" lon="6.50801">
        <ele>1963</ele>
        <time>2018-01-28T10:26:36Z</time>
      </trkpt>
      <trkpt lat="46.01697" lon="6.50797">
        <ele>1965</ele>
        <time>2018-01-28T10:26:43Z</time>
      </trkpt>
      <trkpt lat="46.01696" lon="6.50798">
        <ele>1964</ele>
        <time>2018-01-28T10:26:55Z</time>
      </trkpt>
      <trkpt lat="46.01697" lon="6.50798">
        <ele>1965</ele>
        <time>2018-01-28T10:26:57Z</time>
      </trkpt>
      <trkpt lat="46.017" lon="6.50797">
        <ele>1966</ele>
        <time>2018-01-28T10:27:06Z</time>
      </trkpt>
      <trkpt lat="46.01699" lon="6.50799">
        <ele>1965</ele>
        <time>2018-01-28T10:27:09Z</time>
      </trkpt>
      <trkpt lat="46.01699" lon="6.50799">
        <ele>1965</ele>
        <time>2018-01-28T10:27:18Z</time>
      </trkpt>
      <trkpt lat="46.01701" lon="6.50798">
        <ele>1966</ele>
        <time>2018-01-28T10:27:21Z</time>
      </trkpt>
      <trkpt lat="46.01703" lon="6.50795">
        <ele>1968</ele>
        <time>2018-01-28T10:27:24Z</time>
      </trkpt>
      <trkpt lat="46.01703" lon="6.50795">
        <ele>1967</ele>
        <time>2018-01-28T10:27:31Z</time>
      </trkpt>
      <trkpt lat="46.01702" lon="6.50797">
        <ele>1967</ele>
        <time>2018-01-28T10:27:37Z</time>
      </trkpt>
      <trkpt lat="46.017" lon="6.50799">
        <ele>1966</ele>
        <time>2018-01-28T10:27:48Z</time>
      </trkpt>
      <trkpt lat="46.017" lon="6.50801">
        <ele>1965</ele>
        <time>2018-01-28T10:27:54Z</time>
      </trkpt>
      <trkpt lat="46.01701" lon="6.50802">
        <ele>1965</ele>
        <time>2018-01-28T10:27:58Z</time>
      </trkpt>
      <trkpt lat="46.01701" lon="6.50802">
        <ele>1965</ele>
        <time>2018-01-28T10:28:01Z</time>
      </trkpt>
      <trkpt lat="46.01703" lon="6.508">
        <ele>1966</ele>
        <time>2018-01-28T10:28:04Z</time>
      </trkpt>
      <trkpt lat="46.01703" lon="6.508">
        <ele>1966</ele>
        <time>2018-01-28T10:28:05Z</time>
      </trkpt>
      <trkpt lat="46.01703" lon="6.508">
        <ele>1966</ele>
        <time>2018-01-28T10:28:07Z</time>
      </trkpt>
      <trkpt lat="46.01702" lon="6.50802">
        <ele>1966</ele>
        <time>2018-01-28T10:28:11Z</time>
      </trkpt>
      <trkpt lat="46.01702" lon="6.50803">
        <ele>1966</ele>
        <time>2018-01-28T10:28:17Z</time>
      </trkpt>
      <trkpt lat="46.01702" lon="6.50804">
        <ele>1965</ele>
        <time>2018-01-28T10:28:21Z</time>
      </trkpt>
      <trkpt lat="46.01703" lon="6.50803">
        <ele>1966</ele>
        <time>2018-01-28T10:28:28Z</time>
      </trkpt>
      <trkpt lat="46.01704" lon="6.50803">
        <ele>1966</ele>
        <time>2018-01-28T10:28:29Z</time>
      </trkpt>
      <trkpt lat="46.01704" lon="6.50804">
        <ele>1966</ele>
        <time>2018-01-28T10:28:37Z</time>
      </trkpt>
      <trkpt lat="46.01705" lon="6.50804">
        <ele>1967</ele>
        <time>2018-01-28T10:28:38Z</time>
      </trkpt>
      <trkpt lat="46.01709" lon="6.50801">
        <ele>1969</ele>
        <time>2018-01-28T10:28:57Z</time>
      </trkpt>
      <trkpt lat="46.01712" lon="6.50801">
        <ele>1970</ele>
        <time>2018-01-28T10:29:17Z</time>
      </trkpt>
      <trkpt lat="46.01712" lon="6.50802">
        <ele>1970</ele>
        <time>2018-01-28T10:29:18Z</time>
      </trkpt>
      <trkpt lat="46.01716" lon="6.50799">
        <ele>1971</ele>
        <time>2018-01-28T10:29:29Z</time>
      </trkpt>
      <trkpt lat="46.01716" lon="6.50798">
        <ele>1972</ele>
        <time>2018-01-28T10:29:33Z</time>
      </trkpt>
      <trkpt lat="46.01716" lon="6.50798">
        <ele>1972</ele>
        <time>2018-01-28T10:29:37Z</time>
      </trkpt>
      <trkpt lat="46.01717" lon="6.50797">
        <ele>1972</ele>
        <time>2018-01-28T10:29:38Z</time>
      </trkpt>
      <trkpt lat="46.01716" lon="6.50798">
        <ele>1972</ele>
        <time>2018-01-28T10:29:43Z</time>
      </trkpt>
      <trkpt lat="46.01718" lon="6.50798">
        <ele>1972</ele>
        <time>2018-01-28T10:29:45Z</time>
      </trkpt>
      <trkpt lat="46.01721" lon="6.50796">
        <ele>1974</ele>
        <time>2018-01-28T10:29:53Z</time>
      </trkpt>
      <trkpt lat="46.01728" lon="6.50792">
        <ele>1977</ele>
        <time>2018-01-28T10:30:09Z</time>
      </trkpt>
      <trkpt lat="46.0173" lon="6.50792">
        <ele>1977</ele>
        <time>2018-01-28T10:30:18Z</time>
      </trkpt>
      <trkpt lat="46.01734" lon="6.5079">
        <ele>1979</ele>
        <time>2018-01-28T10:30:27Z</time>
      </trkpt>
      <trkpt lat="46.01737" lon="6.50789">
        <ele>1980</ele>
        <time>2018-01-28T10:30:39Z</time>
      </trkpt>
      <trkpt lat="46.0174" lon="6.50789">
        <ele>1981</ele>
        <time>2018-01-28T10:30:47Z</time>
      </trkpt>
      <trkpt lat="46.01741" lon="6.50788">
        <ele>1981</ele>
        <time>2018-01-28T10:30:49Z</time>
      </trkpt>
      <trkpt lat="46.01742" lon="6.50788">
        <ele>1982</ele>
        <time>2018-01-28T10:30:52Z</time>
      </trkpt>
      <trkpt lat="46.01745" lon="6.50785">
        <ele>1983</ele>
        <time>2018-01-28T10:31:01Z</time>
      </trkpt>
      <trkpt lat="46.01746" lon="6.50785">
        <ele>1983</ele>
        <time>2018-01-28T10:31:04Z</time>
      </trkpt>
      <trkpt lat="46.01745" lon="6.50784">
        <ele>1983</ele>
        <time>2018-01-28T10:31:13Z</time>
      </trkpt>
      <trkpt lat="46.01745" lon="6.50786">
        <ele>1983</ele>
        <time>2018-01-28T10:31:18Z</time>
      </trkpt>
      <trkpt lat="46.01745" lon="6.50786">
        <ele>1983</ele>
        <time>2018-01-28T10:31:23Z</time>
      </trkpt>
      <trkpt lat="46.01745" lon="6.50786">
        <ele>1982</ele>
        <time>2018-01-28T10:31:28Z</time>
      </trkpt>
      <trkpt lat="46.01744" lon="6.50784">
        <ele>1983</ele>
        <time>2018-01-28T10:31:33Z</time>
      </trkpt>
      <trkpt lat="46.01744" lon="6.50784">
        <ele>1983</ele>
        <time>2018-01-28T10:31:36Z</time>
      </trkpt>
      <trkpt lat="46.01743" lon="6.50784">
        <ele>1983</ele>
        <time>2018-01-28T10:31:41Z</time>
      </trkpt>
      <trkpt lat="46.01744" lon="6.50784">
        <ele>1983</ele>
        <time>2018-01-28T10:31:43Z</time>
      </trkpt>
      <trkpt lat="46.01744" lon="6.50783">
        <ele>1984</ele>
        <time>2018-01-28T10:31:46Z</time>
      </trkpt>
      <trkpt lat="46.01744" lon="6.50783">
        <ele>1984</ele>
        <time>2018-01-28T10:31:50Z</time>
      </trkpt>
      <trkpt lat="46.01744" lon="6.50784">
        <ele>1983</ele>
        <time>2018-01-28T10:31:54Z</time>
      </trkpt>
      <trkpt lat="46.01743" lon="6.50785">
        <ele>1983</ele>
        <time>2018-01-28T10:31:57Z</time>
      </trkpt>
      <trkpt lat="46.01743" lon="6.50785">
        <ele>1982</ele>
        <time>2018-01-28T10:32:07Z</time>
      </trkpt>
      <trkpt lat="46.01745" lon="6.50787">
        <ele>1983</ele>
        <time>2018-01-28T10:32:13Z</time>
      </trkpt>
      <trkpt lat="46.01747" lon="6.50787">
        <ele>1983</ele>
        <time>2018-01-28T10:32:16Z</time>
      </trkpt>
      <trkpt lat="46.0175" lon="6.50787">
        <ele>2020</ele>
        <time>2018-01-28T10:32:23Z</time>
      </trkpt>
      <trkpt lat="46.01752" lon="6.50787">
        <ele>2020</ele>
        <time>2018-01-28T10:32:27Z</time>
      </trkpt>
      <trkpt lat="46.01754" lon="6.50788">
        <ele>2020</ele>
        <time>2018-01-28T10:32:31Z</time>
      </trkpt>
      <trkpt lat="46.01755" lon="6.50787">
        <ele>2021</ele>
        <time>2018-01-28T10:32:34Z</time>
      </trkpt>
      <trkpt lat="46.01757" lon="6.50787">
        <ele>2021</ele>
        <time>2018-01-28T10:32:38Z</time>
      </trkpt>
      <trkpt lat="46.01758" lon="6.50786">
        <ele>2021</ele>
        <time>2018-01-28T10:32:40Z</time>
      </trkpt>
      <trkpt lat="46.01759" lon="6.50785">
        <ele>2022</ele>
        <time>2018-01-28T10:32:45Z</time>
      </trkpt>
      <trkpt lat="46.01761" lon="6.50785">
        <ele>2022</ele>
        <time>2018-01-28T10:32:51Z</time>
      </trkpt>
      <trkpt lat="46.01762" lon="6.50785">
        <ele>2022</ele>
        <time>2018-01-28T10:32:58Z</time>
      </trkpt>
      <trkpt lat="46.01766" lon="6.50785">
        <ele>2023</ele>
        <time>2018-01-28T10:33:09Z</time>
      </trkpt>
      <trkpt lat="46.01768" lon="6.50787">
        <ele>2023</ele>
        <time>2018-01-28T10:33:23Z</time>
      </trkpt>
      <trkpt lat="46.0177" lon="6.5079">
        <ele>2023</ele>
        <time>2018-01-28T10:33:38Z</time>
      </trkpt>
      <trkpt lat="46.0177" lon="6.50791">
        <ele>2023</ele>
        <time>2018-01-28T10:33:47Z</time>
      </trkpt>
      <trkpt lat="46.0177" lon="6.50793">
        <ele>2022</ele>
        <time>2018-01-28T10:34:02Z</time>
      </trkpt>
      <trkpt lat="46.01774" lon="6.50792">
        <ele>2024</ele>
        <time>2018-01-28T10:34:17Z</time>
      </trkpt>
      <trkpt lat="46.01775" lon="6.50793">
        <ele>2024</ele>
        <time>2018-01-28T10:34:37Z</time>
      </trkpt>
      <trkpt lat="46.01777" lon="6.50797">
        <ele>2024</ele>
        <time>2018-01-28T10:34:52Z</time>
      </trkpt>
      <trkpt lat="46.01779" lon="6.50798">
        <ele>2024</ele>
        <time>2018-01-28T10:35:04Z</time>
      </trkpt>
      <trkpt lat="46.01782" lon="6.50798">
        <ele>2025</ele>
        <time>2018-01-28T10:35:16Z</time>
      </trkpt>
      <trkpt lat="46.01785" lon="6.508">
        <ele>2026</ele>
        <time>2018-01-28T10:35:29Z</time>
      </trkpt>
      <trkpt lat="46.01788" lon="6.50801">
        <ele>2027</ele>
        <time>2018-01-28T10:35:43Z</time>
      </trkpt>
      <trkpt lat="46.01792" lon="6.50801">
        <ele>2029</ele>
        <time>2018-01-28T10:35:57Z</time>
      </trkpt>
      <trkpt lat="46.01798" lon="6.50802">
        <ele>2031</ele>
        <time>2018-01-28T10:36:12Z</time>
      </trkpt>
      <trkpt lat="46.01802" lon="6.50804">
        <ele>2032</ele>
        <time>2018-01-28T10:36:24Z</time>
      </trkpt>
      <trkpt lat="46.01807" lon="6.50804">
        <ele>2033</ele>
        <time>2018-01-28T10:36:43Z</time>
      </trkpt>
      <trkpt lat="46.01811" lon="6.50803">
        <ele>2035</ele>
        <time>2018-01-28T10:37:00Z</time>
      </trkpt>
      <trkpt lat="46.01813" lon="6.50803">
        <ele>2035</ele>
        <time>2018-01-28T10:37:08Z</time>
      </trkpt>
      <trkpt lat="46.01814" lon="6.50803">
        <ele>2036</ele>
        <time>2018-01-28T10:37:09Z</time>
      </trkpt>
      <trkpt lat="46.01819" lon="6.50801">
        <ele>2037</ele>
        <time>2018-01-28T10:37:24Z</time>
      </trkpt>
      <trkpt lat="46.01826" lon="6.50806">
        <ele>2038</ele>
        <time>2018-01-28T10:37:44Z</time>
      </trkpt>
      <trkpt lat="46.01834" lon="6.50811">
        <ele>2063</ele>
        <time>2018-01-28T10:38:01Z</time>
      </trkpt>
      <trkpt lat="46.0184" lon="6.50814">
        <ele>2063</ele>
        <time>2018-01-28T10:38:15Z</time>
      </trkpt>
      <trkpt lat="46.01846" lon="6.50814">
        <ele>2064</ele>
        <time>2018-01-28T10:38:28Z</time>
      </trkpt>
      <trkpt lat="46.01851" lon="6.50814">
        <ele>2066</ele>
        <time>2018-01-28T10:38:39Z</time>
      </trkpt>
      <trkpt lat="46.01855" lon="6.50814">
        <ele>2067</ele>
        <time>2018-01-28T10:38:51Z</time>
      </trkpt>
      <trkpt lat="46.01859" lon="6.50815">
        <ele>2068</ele>
        <time>2018-01-28T10:39:09Z</time>
      </trkpt>
      <trkpt lat="46.01858" lon="6.50816">
        <ele>2068</ele>
        <time>2018-01-28T10:39:27Z</time>
      </trkpt>
      <trkpt lat="46.01858" lon="6.50816">
        <ele>2068</ele>
        <time>2018-01-28T10:39:34Z</time>
      </trkpt>
      <trkpt lat="46.01858" lon="6.50816">
        <ele>2068</ele>
        <time>2018-01-28T10:39:39Z</time>
      </trkpt>
      <trkpt lat="46.01858" lon="6.50816">
        <ele>2068</ele>
        <time>2018-01-28T10:39:42Z</time>
      </trkpt>
      <trkpt lat="46.01858" lon="6.50816">
        <ele>2068</ele>
        <time>2018-01-28T10:39:48Z</time>
      </trkpt>
      <trkpt lat="46.01858" lon="6.50816">
        <ele>2068</ele>
        <time>2018-01-28T10:39:52Z</time>
      </trkpt>
      <trkpt lat="46.01858" lon="6.50815">
        <ele>2068</ele>
        <time>2018-01-28T10:39:58Z</time>
      </trkpt>
      <trkpt lat="46.01858" lon="6.50815">
        <ele>2068</ele>
        <time>2018-01-28T10:40:01Z</time>
      </trkpt>
      <trkpt lat="46.01857" lon="6.50816">
        <ele>2068</ele>
        <time>2018-01-28T10:40:12Z</time>
      </trkpt>
      <trkpt lat="46.01856" lon="6.50813">
        <ele>2068</ele>
        <time>2018-01-28T10:40:21Z</time>
      </trkpt>
      <trkpt lat="46.01856" lon="6.50811">
        <ele>2069</ele>
        <time>2018-01-28T10:40:23Z</time>
      </trkpt>
      <trkpt lat="46.01855" lon="6.50807">
        <ele>2069</ele>
        <time>2018-01-28T10:40:28Z</time>
      </trkpt>
      <trkpt lat="46.01854" lon="6.50803">
        <ele>2070</ele>
        <time>2018-01-28T10:40:31Z</time>
      </trkpt>
      <trkpt lat="46.01854" lon="6.508">
        <ele>2071</ele>
        <time>2018-01-28T10:40:33Z</time>
      </trkpt>
      <trkpt lat="46.01853" lon="6.50797">
        <ele>2071</ele>
        <time>2018-01-28T10:40:36Z</time>
      </trkpt>
      <trkpt lat="46.01855" lon="6.50795">
        <ele>2072</ele>
        <time>2018-01-28T10:40:40Z</time>
      </trkpt>
      <trkpt lat="46.01858" lon="6.50797">
        <ele>2072</ele>
        <time>2018-01-28T10:40:44Z</time>
      </trkpt>
      <trkpt lat="46.0186" lon="6.50797">
        <ele>2073</ele>
        <time>2018-01-28T10:40:48Z</time>
      </trkpt>
      <trkpt lat="46.01861" lon="6.50797">
        <ele>2073</ele>
        <time>2018-01-28T10:40:51Z</time>
      </trkpt>
      <trkpt lat="46.01859" lon="6.50794">
        <ele>2073</ele>
        <time>2018-01-28T10:40:56Z</time>
      </trkpt>
      <trkpt lat="46.01857" lon="6.50788">
        <ele>2074</ele>
        <time>2018-01-28T10:41:02Z</time>
      </trkpt>
      <trkpt lat="46.01857" lon="6.50788">
        <ele>2074</ele>
        <time>2018-01-28T10:41:03Z</time>
      </trkpt>
      <trkpt lat="46.01857" lon="6.50773">
        <ele>2075</ele>
        <time>2018-01-28T10:41:20Z</time>
      </trkpt>
      <trkpt lat="46.01864" lon="6.50776">
        <ele>2076</ele>
        <time>2018-01-28T10:41:35Z</time>
      </trkpt>
      <trkpt lat="46.01872" lon="6.50777">
        <ele>2078</ele>
        <time>2018-01-28T10:41:47Z</time>
      </trkpt>
      <trkpt lat="46.01879" lon="6.50778">
        <ele>2079</ele>
        <time>2018-01-28T10:41:58Z</time>
      </trkpt>
      <trkpt lat="46.01882" lon="6.50778">
        <ele>2080</ele>
        <time>2018-01-28T10:42:02Z</time>
      </trkpt>
      <trkpt lat="46.01888" lon="6.50776">
        <ele>2082</ele>
        <time>2018-01-28T10:42:10Z</time>
      </trkpt>
      <trkpt lat="46.01889" lon="6.50775">
        <ele>2082</ele>
        <time>2018-01-28T10:42:12Z</time>
      </trkpt>
      <trkpt lat="46.01892" lon="6.50774">
        <ele>2083</ele>
        <time>2018-01-28T10:42:16Z</time>
      </trkpt>
      <trkpt lat="46.01891" lon="6.50768">
        <ele>2084</ele>
        <time>2018-01-28T10:42:31Z</time>
      </trkpt>
      <trkpt lat="46.0189" lon="6.50766">
        <ele>2084</ele>
        <time>2018-01-28T10:42:34Z</time>
      </trkpt>
      <trkpt lat="46.01889" lon="6.50764">
        <ele>2084</ele>
        <time>2018-01-28T10:42:36Z</time>
      </trkpt>
      <trkpt lat="46.01889" lon="6.50763">
        <ele>2084</ele>
        <time>2018-01-28T10:42:37Z</time>
      </trkpt>
      <trkpt lat="46.01889" lon="6.50762">
        <ele>2084</ele>
        <time>2018-01-28T10:42:38Z</time>
      </trkpt>
      <trkpt lat="46.01888" lon="6.5076">
        <ele>2084</ele>
        <time>2018-01-28T10:42:40Z</time>
      </trkpt>
      <trkpt lat="46.01887" lon="6.50759">
        <ele>2084</ele>
        <time>2018-01-28T10:42:42Z</time>
      </trkpt>
      <trkpt lat="46.01884" lon="6.5075">
        <ele>2084</ele>
        <time>2018-01-28T10:42:51Z</time>
      </trkpt>
      <trkpt lat="46.01883" lon="6.50749">
        <ele>2097</ele>
        <time>2018-01-28T10:42:53Z</time>
      </trkpt>
      <trkpt lat="46.01881" lon="6.50744">
        <ele>2097</ele>
        <time>2018-01-28T10:42:59Z</time>
      </trkpt>
      <trkpt lat="46.0188" lon="6.50743">
        <ele>2097</ele>
        <time>2018-01-28T10:43:00Z</time>
      </trkpt>
      <trkpt lat="46.0188" lon="6.50741">
        <ele>2097</ele>
        <time>2018-01-28T10:43:01Z</time>
      </trkpt>
      <trkpt lat="46.01879" lon="6.5074">
        <ele>2097</ele>
        <time>2018-01-28T10:43:03Z</time>
      </trkpt>
      <trkpt lat="46.01875" lon="6.50732">
        <ele>2097</ele>
        <time>2018-01-28T10:43:13Z</time>
      </trkpt>
      <trkpt lat="46.01874" lon="6.5073">
        <ele>2097</ele>
        <time>2018-01-28T10:43:15Z</time>
      </trkpt>
      <trkpt lat="46.01873" lon="6.50726">
        <ele>2097</ele>
        <time>2018-01-28T10:43:19Z</time>
      </trkpt>
      <trkpt lat="46.01873" lon="6.50724">
        <ele>2097</ele>
        <time>2018-01-28T10:43:21Z</time>
      </trkpt>
      <trkpt lat="46.01872" lon="6.50721">
        <ele>2097</ele>
        <time>2018-01-28T10:43:23Z</time>
      </trkpt>
      <trkpt lat="46.01871" lon="6.50713">
        <ele>2098</ele>
        <time>2018-01-28T10:43:30Z</time>
      </trkpt>
      <trkpt lat="46.01869" lon="6.50707">
        <ele>2099</ele>
        <time>2018-01-28T10:43:36Z</time>
      </trkpt>
      <trkpt lat="46.01869" lon="6.50706">
        <ele>2099</ele>
        <time>2018-01-28T10:43:38Z</time>
      </trkpt>
      <trkpt lat="46.01868" lon="6.50704">
        <ele>2099</ele>
        <time>2018-01-28T10:43:40Z</time>
      </trkpt>
      <trkpt lat="46.01866" lon="6.50702">
        <ele>2099</ele>
        <time>2018-01-28T10:43:44Z</time>
      </trkpt>
      <trkpt lat="46.01865" lon="6.50699">
        <ele>2099</ele>
        <time>2018-01-28T10:43:48Z</time>
      </trkpt>
      <trkpt lat="46.01864" lon="6.50698">
        <ele>2099</ele>
        <time>2018-01-28T10:43:50Z</time>
      </trkpt>
      <trkpt lat="46.01862" lon="6.50692">
        <ele>2100</ele>
        <time>2018-01-28T10:43:56Z</time>
      </trkpt>
      <trkpt lat="46.0186" lon="6.50683">
        <ele>2101</ele>
        <time>2018-01-28T10:44:05Z</time>
      </trkpt>
      <trkpt lat="46.01858" lon="6.5068">
        <ele>2101</ele>
        <time>2018-01-28T10:44:09Z</time>
      </trkpt>
      <trkpt lat="46.01861" lon="6.50675">
        <ele>2101</ele>
        <time>2018-01-28T10:44:18Z</time>
      </trkpt>
      <trkpt lat="46.0187" lon="6.50674">
        <ele>2103</ele>
        <time>2018-01-28T10:44:29Z</time>
      </trkpt>
      <trkpt lat="46.01877" lon="6.50673">
        <ele>2104</ele>
        <time>2018-01-28T10:44:38Z</time>
      </trkpt>
      <trkpt lat="46.01878" lon="6.50673">
        <ele>2104</ele>
        <time>2018-01-28T10:44:40Z</time>
      </trkpt>
      <trkpt lat="46.01878" lon="6.50668">
        <ele>2104</ele>
        <time>2018-01-28T10:44:49Z</time>
      </trkpt>
      <trkpt lat="46.01878" lon="6.50665">
        <ele>2115</ele>
        <time>2018-01-28T10:45:09Z</time>
      </trkpt>
      <trkpt lat="46.01877" lon="6.50664">
        <ele>2115</ele>
        <time>2018-01-28T10:45:10Z</time>
      </trkpt>
      <trkpt lat="46.01877" lon="6.50661">
        <ele>2115</ele>
        <time>2018-01-28T10:45:12Z</time>
      </trkpt>
      <trkpt lat="46.01876" lon="6.50659">
        <ele>2115</ele>
        <time>2018-01-28T10:45:14Z</time>
      </trkpt>
      <trkpt lat="46.01876" lon="6.50657">
        <ele>2115</ele>
        <time>2018-01-28T10:45:16Z</time>
      </trkpt>
      <trkpt lat="46.01874" lon="6.50653">
        <ele>2115</ele>
        <time>2018-01-28T10:45:22Z</time>
      </trkpt>
      <trkpt lat="46.01874" lon="6.50651">
        <ele>2115</ele>
        <time>2018-01-28T10:45:24Z</time>
      </trkpt>
      <trkpt lat="46.01873" lon="6.50649">
        <ele>2115</ele>
        <time>2018-01-28T10:45:26Z</time>
      </trkpt>
      <trkpt lat="46.0187" lon="6.50637">
        <ele>2116</ele>
        <time>2018-01-28T10:45:45Z</time>
      </trkpt>
      <trkpt lat="46.0187" lon="6.50634">
        <ele>2116</ele>
        <time>2018-01-28T10:45:47Z</time>
      </trkpt>
      <trkpt lat="46.01869" lon="6.5063">
        <ele>2116</ele>
        <time>2018-01-28T10:45:51Z</time>
      </trkpt>
      <trkpt lat="46.01869" lon="6.50626">
        <ele>2117</ele>
        <time>2018-01-28T10:45:55Z</time>
      </trkpt>
      <trkpt lat="46.0187" lon="6.50613">
        <ele>2118</ele>
        <time>2018-01-28T10:46:08Z</time>
      </trkpt>
      <trkpt lat="46.0187" lon="6.50611">
        <ele>2118</ele>
        <time>2018-01-28T10:46:10Z</time>
      </trkpt>
      <trkpt lat="46.01871" lon="6.50603">
        <ele>2118</ele>
        <time>2018-01-28T10:46:16Z</time>
      </trkpt>
      <trkpt lat="46.01872" lon="6.50596">
        <ele>2119</ele>
        <time>2018-01-28T10:46:22Z</time>
      </trkpt>
      <trkpt lat="46.01872" lon="6.50593">
        <ele>2119</ele>
        <time>2018-01-28T10:46:24Z</time>
      </trkpt>
      <trkpt lat="46.01874" lon="6.50591">
        <ele>2119</ele>
        <time>2018-01-28T10:46:26Z</time>
      </trkpt>
      <trkpt lat="46.0189" lon="6.50587">
        <ele>2122</ele>
        <time>2018-01-28T10:46:44Z</time>
      </trkpt>
      <trkpt lat="46.0191" lon="6.50577">
        <ele>2130</ele>
        <time>2018-01-28T10:47:04Z</time>
      </trkpt>
      <trkpt lat="46.01921" lon="6.50567">
        <ele>2131</ele>
        <time>2018-01-28T10:47:16Z</time>
      </trkpt>
      <trkpt lat="46.01922" lon="6.50566">
        <ele>2131</ele>
        <time>2018-01-28T10:47:17Z</time>
      </trkpt>
      <trkpt lat="46.01923" lon="6.50566">
        <ele>2131</ele>
        <time>2018-01-28T10:47:18Z</time>
      </trkpt>
      <trkpt lat="46.01924" lon="6.50565">
        <ele>2131</ele>
        <time>2018-01-28T10:47:19Z</time>
      </trkpt>
      <trkpt lat="46.01925" lon="6.50564">
        <ele>2131</ele>
        <time>2018-01-28T10:47:20Z</time>
      </trkpt>
      <trkpt lat="46.01938" lon="6.50543">
        <ele>2131</ele>
        <time>2018-01-28T10:47:44Z</time>
      </trkpt>
      <trkpt lat="46.01942" lon="6.50531">
        <ele>2132</ele>
        <time>2018-01-28T10:47:53Z</time>
      </trkpt>
      <trkpt lat="46.01945" lon="6.50517">
        <ele>2132</ele>
        <time>2018-01-28T10:48:02Z</time>
      </trkpt>
      <trkpt lat="46.01944" lon="6.50515">
        <ele>2132</ele>
        <time>2018-01-28T10:48:03Z</time>
      </trkpt>
      <trkpt lat="46.01944" lon="6.50512">
        <ele>2132</ele>
        <time>2018-01-28T10:48:04Z</time>
      </trkpt>
      <trkpt lat="46.01943" lon="6.50509">
        <ele>2133</ele>
        <time>2018-01-28T10:48:05Z</time>
      </trkpt>
      <trkpt lat="46.01943" lon="6.50507">
        <ele>2133</ele>
        <time>2018-01-28T10:48:06Z</time>
      </trkpt>
      <trkpt lat="46.01942" lon="6.50504">
        <ele>2133</ele>
        <time>2018-01-28T10:48:07Z</time>
      </trkpt>
      <trkpt lat="46.01942" lon="6.50502">
        <ele>2133</ele>
        <time>2018-01-28T10:48:08Z</time>
      </trkpt>
      <trkpt lat="46.01941" lon="6.50499">
        <ele>2139</ele>
        <time>2018-01-28T10:48:09Z</time>
      </trkpt>
      <trkpt lat="46.01941" lon="6.50498">
        <ele>2139</ele>
        <time>2018-01-28T10:48:10Z</time>
      </trkpt>
      <trkpt lat="46.01939" lon="6.50495">
        <ele>2139</ele>
        <time>2018-01-28T10:48:12Z</time>
      </trkpt>
      <trkpt lat="46.01939" lon="6.50495">
        <ele>2139</ele>
        <time>2018-01-28T10:48:13Z</time>
      </trkpt>
      <trkpt lat="46.01938" lon="6.50495">
        <ele>2139</ele>
        <time>2018-01-28T10:48:14Z</time>
      </trkpt>
      <trkpt lat="46.01928" lon="6.505">
        <ele>2135</ele>
        <time>2018-01-28T10:48:31Z</time>
      </trkpt>
      <trkpt lat="46.01924" lon="6.50501">
        <ele>2136</ele>
        <time>2018-01-28T10:48:45Z</time>
      </trkpt>
      <trkpt lat="46.01924" lon="6.50497">
        <ele>2139</ele>
        <time>2018-01-28T10:48:53Z</time>
      </trkpt>
      <trkpt lat="46.01925" lon="6.50492">
        <ele>2139</ele>
        <time>2018-01-28T10:49:02Z</time>
      </trkpt>
      <trkpt lat="46.0192" lon="6.50493">
        <ele>2139</ele>
        <time>2018-01-28T10:49:11Z</time>
      </trkpt>
      <trkpt lat="46.01916" lon="6.50489">
        <ele>2143</ele>
        <time>2018-01-28T10:49:27Z</time>
      </trkpt>
      <trkpt lat="46.01911" lon="6.50485">
        <ele>2144</ele>
        <time>2018-01-28T10:49:36Z</time>
      </trkpt>
      <trkpt lat="46.01907" lon="6.5047">
        <ele>2148</ele>
        <time>2018-01-28T10:49:49Z</time>
      </trkpt>
      <trkpt lat="46.01905" lon="6.50464">
        <ele>2150</ele>
        <time>2018-01-28T10:49:56Z</time>
      </trkpt>
      <trkpt lat="46.019" lon="6.50454">
        <ele>2152</ele>
        <time>2018-01-28T10:50:07Z</time>
      </trkpt>
      <trkpt lat="46.01898" lon="6.50453">
        <ele>2152</ele>
        <time>2018-01-28T10:50:11Z</time>
      </trkpt>
      <trkpt lat="46.01896" lon="6.50449">
        <ele>2153</ele>
        <time>2018-01-28T10:50:19Z</time>
      </trkpt>
      <trkpt lat="46.01893" lon="6.50445">
        <ele>2153</ele>
        <time>2018-01-28T10:50:24Z</time>
      </trkpt>
      <trkpt lat="46.01892" lon="6.50444">
        <ele>2153</ele>
        <time>2018-01-28T10:50:26Z</time>
      </trkpt>
      <trkpt lat="46.01888" lon="6.50438">
        <ele>2154</ele>
        <time>2018-01-28T10:50:33Z</time>
      </trkpt>
      <trkpt lat="46.01888" lon="6.50437">
        <ele>2154</ele>
        <time>2018-01-28T10:50:34Z</time>
      </trkpt>
      <trkpt lat="46.01888" lon="6.50435">
        <ele>2155</ele>
        <time>2018-01-28T10:50:36Z</time>
      </trkpt>
      <trkpt lat="46.01887" lon="6.50432">
        <ele>2155</ele>
        <time>2018-01-28T10:50:38Z</time>
      </trkpt>
      <trkpt lat="46.01888" lon="6.50431">
        <ele>2155</ele>
        <time>2018-01-28T10:50:39Z</time>
      </trkpt>
      <trkpt lat="46.01887" lon="6.50425">
        <ele>2155</ele>
        <time>2018-01-28T10:50:43Z</time>
      </trkpt>
      <trkpt lat="46.01887" lon="6.50424">
        <ele>2156</ele>
        <time>2018-01-28T10:50:44Z</time>
      </trkpt>
      <trkpt lat="46.01888" lon="6.50403">
        <ele>2168</ele>
        <time>2018-01-28T10:50:59Z</time>
      </trkpt>
      <trkpt lat="46.01887" lon="6.50391">
        <ele>2169</ele>
        <time>2018-01-28T10:51:08Z</time>
      </trkpt>
      <trkpt lat="46.01886" lon="6.50385">
        <ele>2170</ele>
        <time>2018-01-28T10:51:13Z</time>
      </trkpt>
      <trkpt lat="46.01885" lon="6.50381">
        <ele>2170</ele>
        <time>2018-01-28T10:51:16Z</time>
      </trkpt>
      <trkpt lat="46.01881" lon="6.50375">
        <ele>2171</ele>
        <time>2018-01-28T10:51:22Z</time>
      </trkpt>
      <trkpt lat="46.0188" lon="6.50374">
        <ele>2171</ele>
        <time>2018-01-28T10:51:23Z</time>
      </trkpt>
      <trkpt lat="46.0188" lon="6.50371">
        <ele>2171</ele>
        <time>2018-01-28T10:51:25Z</time>
      </trkpt>
      <trkpt lat="46.0188" lon="6.5037">
        <ele>2171</ele>
        <time>2018-01-28T10:51:26Z</time>
      </trkpt>
      <trkpt lat="46.0188" lon="6.50369">
        <ele>2172</ele>
        <time>2018-01-28T10:51:27Z</time>
      </trkpt>
      <trkpt lat="46.01881" lon="6.50358">
        <ele>2172</ele>
        <time>2018-01-28T10:51:37Z</time>
      </trkpt>
      <trkpt lat="46.0188" lon="6.50356">
        <ele>2172</ele>
        <time>2018-01-28T10:51:39Z</time>
      </trkpt>
      <trkpt lat="46.01879" lon="6.50354">
        <ele>2173</ele>
        <time>2018-01-28T10:51:41Z</time>
      </trkpt>
      <trkpt lat="46.01879" lon="6.50353">
        <ele>2173</ele>
        <time>2018-01-28T10:51:42Z</time>
      </trkpt>
      <trkpt lat="46.01877" lon="6.50349">
        <ele>2173</ele>
        <time>2018-01-28T10:51:45Z</time>
      </trkpt>
      <trkpt lat="46.01876" lon="6.50347">
        <ele>2173</ele>
        <time>2018-01-28T10:51:47Z</time>
      </trkpt>
      <trkpt lat="46.01868" lon="6.50318">
        <ele>2186</ele>
        <time>2018-01-28T10:52:07Z</time>
      </trkpt>
      <trkpt lat="46.01866" lon="6.50316">
        <ele>2186</ele>
        <time>2018-01-28T10:52:09Z</time>
      </trkpt>
      <trkpt lat="46.01864" lon="6.50314">
        <ele>2186</ele>
        <time>2018-01-28T10:52:12Z</time>
      </trkpt>
      <trkpt lat="46.01862" lon="6.50312">
        <ele>2186</ele>
        <time>2018-01-28T10:52:14Z</time>
      </trkpt>
      <trkpt lat="46.01862" lon="6.50311">
        <ele>2186</ele>
        <time>2018-01-28T10:52:15Z</time>
      </trkpt>
      <trkpt lat="46.01857" lon="6.50309">
        <ele>2187</ele>
        <time>2018-01-28T10:52:20Z</time>
      </trkpt>
      <trkpt lat="46.01855" lon="6.50307">
        <ele>2187</ele>
        <time>2018-01-28T10:52:23Z</time>
      </trkpt>
      <trkpt lat="46.01854" lon="6.50307">
        <ele>2187</ele>
        <time>2018-01-28T10:52:24Z</time>
      </trkpt>
      <trkpt lat="46.01853" lon="6.50306">
        <ele>2187</ele>
        <time>2018-01-28T10:52:25Z</time>
      </trkpt>
      <trkpt lat="46.01848" lon="6.50303">
        <ele>2187</ele>
        <time>2018-01-28T10:52:32Z</time>
      </trkpt>
      <trkpt lat="46.01846" lon="6.50301">
        <ele>2188</ele>
        <time>2018-01-28T10:52:35Z</time>
      </trkpt>
      <trkpt lat="46.01845" lon="6.503">
        <ele>2188</ele>
        <time>2018-01-28T10:52:37Z</time>
      </trkpt>
      <trkpt lat="46.01841" lon="6.50296">
        <ele>2188</ele>
        <time>2018-01-28T10:52:44Z</time>
      </trkpt>
      <trkpt lat="46.01838" lon="6.50291">
        <ele>2189</ele>
        <time>2018-01-28T10:52:51Z</time>
      </trkpt>
      <trkpt lat="46.01837" lon="6.50287">
        <ele>2190</ele>
        <time>2018-01-28T10:52:55Z</time>
      </trkpt>
      <trkpt lat="46.01837" lon="6.50285">
        <ele>2190</ele>
        <time>2018-01-28T10:52:56Z</time>
      </trkpt>
      <trkpt lat="46.01832" lon="6.50262">
        <ele>2195</ele>
        <time>2018-01-28T10:53:15Z</time>
      </trkpt>
      <trkpt lat="46.01832" lon="6.50256">
        <ele>2197</ele>
        <time>2018-01-28T10:53:20Z</time>
      </trkpt>
      <trkpt lat="46.0183" lon="6.50252">
        <ele>2197</ele>
        <time>2018-01-28T10:53:26Z</time>
      </trkpt>
      <trkpt lat="46.01827" lon="6.50242">
        <ele>2199</ele>
        <time>2018-01-28T10:53:36Z</time>
      </trkpt>
      <trkpt lat="46.01826" lon="6.50239">
        <ele>2199</ele>
        <time>2018-01-28T10:53:39Z</time>
      </trkpt>
      <trkpt lat="46.01822" lon="6.50229">
        <ele>2199</ele>
        <time>2018-01-28T10:53:50Z</time>
      </trkpt>
      <trkpt lat="46.01823" lon="6.50226">
        <ele>2200</ele>
        <time>2018-01-28T10:53:53Z</time>
      </trkpt>
      <trkpt lat="46.01824" lon="6.50224">
        <ele>2200</ele>
        <time>2018-01-28T10:53:55Z</time>
      </trkpt>
      <trkpt lat="46.01825" lon="6.50223">
        <ele>2200</ele>
        <time>2018-01-28T10:53:56Z</time>
      </trkpt>
      <trkpt lat="46.01828" lon="6.50217">
        <ele>2200</ele>
        <time>2018-01-28T10:54:02Z</time>
      </trkpt>
      <trkpt lat="46.0183" lon="6.50214">
        <ele>2200</ele>
        <time>2018-01-28T10:54:05Z</time>
      </trkpt>
      <trkpt lat="46.01833" lon="6.5021">
        <ele>2201</ele>
        <time>2018-01-28T10:54:10Z</time>
      </trkpt>
      <trkpt lat="46.01834" lon="6.50207">
        <ele>2204</ele>
        <time>2018-01-28T10:54:14Z</time>
      </trkpt>
      <trkpt lat="46.01834" lon="6.50203">
        <ele>2204</ele>
        <time>2018-01-28T10:54:17Z</time>
      </trkpt>
      <trkpt lat="46.01833" lon="6.50199">
        <ele>2202</ele>
        <time>2018-01-28T10:54:21Z</time>
      </trkpt>
      <trkpt lat="46.01834" lon="6.50192">
        <ele>2205</ele>
        <time>2018-01-28T10:54:28Z</time>
      </trkpt>
      <trkpt lat="46.01835" lon="6.50192">
        <ele>2205</ele>
        <time>2018-01-28T10:54:30Z</time>
      </trkpt>
      <trkpt lat="46.0184" lon="6.50192">
        <ele>2205</ele>
        <time>2018-01-28T10:54:37Z</time>
      </trkpt>
      <trkpt lat="46.01841" lon="6.50192">
        <ele>2205</ele>
        <time>2018-01-28T10:54:39Z</time>
      </trkpt>
      <trkpt lat="46.01842" lon="6.50192">
        <ele>2205</ele>
        <time>2018-01-28T10:54:40Z</time>
      </trkpt>
      <trkpt lat="46.01844" lon="6.50192">
        <ele>2205</ele>
        <time>2018-01-28T10:54:42Z</time>
      </trkpt>
      <trkpt lat="46.01846" lon="6.50191">
        <ele>2205</ele>
        <time>2018-01-28T10:54:46Z</time>
      </trkpt>
      <trkpt lat="46.01849" lon="6.50189">
        <ele>2205</ele>
        <time>2018-01-28T10:54:50Z</time>
      </trkpt>
      <trkpt lat="46.01856" lon="6.50184">
        <ele>2205</ele>
        <time>2018-01-28T10:55:01Z</time>
      </trkpt>
      <trkpt lat="46.01857" lon="6.50183">
        <ele>2205</ele>
        <time>2018-01-28T10:55:02Z</time>
      </trkpt>
      <trkpt lat="46.01858" lon="6.50182">
        <ele>2205</ele>
        <time>2018-01-28T10:55:04Z</time>
      </trkpt>
      <trkpt lat="46.01861" lon="6.50179">
        <ele>2205</ele>
        <time>2018-01-28T10:55:09Z</time>
      </trkpt>
      <trkpt lat="46.01861" lon="6.50178">
        <ele>2205</ele>
        <time>2018-01-28T10:55:11Z</time>
      </trkpt>
      <trkpt lat="46.01862" lon="6.50175">
        <ele>2205</ele>
        <time>2018-01-28T10:55:14Z</time>
      </trkpt>
      <trkpt lat="46.01865" lon="6.50161">
        <ele>2207</ele>
        <time>2018-01-28T10:55:27Z</time>
      </trkpt>
      <trkpt lat="46.01865" lon="6.50157">
        <ele>2207</ele>
        <time>2018-01-28T10:55:30Z</time>
      </trkpt>
      <trkpt lat="46.01865" lon="6.50156">
        <ele>2207</ele>
        <time>2018-01-28T10:55:31Z</time>
      </trkpt>
      <trkpt lat="46.01865" lon="6.50155">
        <ele>2207</ele>
        <time>2018-01-28T10:55:32Z</time>
      </trkpt>
      <trkpt lat="46.01865" lon="6.50153">
        <ele>2207</ele>
        <time>2018-01-28T10:55:34Z</time>
      </trkpt>
      <trkpt lat="46.01865" lon="6.50148">
        <ele>2207</ele>
        <time>2018-01-28T10:55:38Z</time>
      </trkpt>
      <trkpt lat="46.01865" lon="6.50145">
        <ele>2207</ele>
        <time>2018-01-28T10:55:41Z</time>
      </trkpt>
      <trkpt lat="46.01864" lon="6.50143">
        <ele>2207</ele>
        <time>2018-01-28T10:55:43Z</time>
      </trkpt>
      <trkpt lat="46.01864" lon="6.50137">
        <ele>2207</ele>
        <time>2018-01-28T10:55:48Z</time>
      </trkpt>
      <trkpt lat="46.01865" lon="6.50124">
        <ele>2207</ele>
        <time>2018-01-28T10:55:58Z</time>
      </trkpt>
      <trkpt lat="46.01867" lon="6.50118">
        <ele>2207</ele>
        <time>2018-01-28T10:56:03Z</time>
      </trkpt>
      <trkpt lat="46.01868" lon="6.50116">
        <ele>2207</ele>
        <time>2018-01-28T10:56:05Z</time>
      </trkpt>
      <trkpt lat="46.01872" lon="6.50107">
        <ele>2207</ele>
        <time>2018-01-28T10:56:11Z</time>
      </trkpt>
      <trkpt lat="46.01873" lon="6.50106">
        <ele>2207</ele>
        <time>2018-01-28T10:56:12Z</time>
      </trkpt>
      <trkpt lat="46.01874" lon="6.50102">
        <ele>2207</ele>
        <time>2018-01-28T10:56:16Z</time>
      </trkpt>
      <trkpt lat="46.01874" lon="6.50101">
        <ele>2207</ele>
        <time>2018-01-28T10:56:17Z</time>
      </trkpt>
      <trkpt lat="46.01874" lon="6.501">
        <ele>2207</ele>
        <time>2018-01-28T10:56:18Z</time>
      </trkpt>
      <trkpt lat="46.01876" lon="6.50093">
        <ele>2206</ele>
        <time>2018-01-28T10:56:26Z</time>
      </trkpt>
      <trkpt lat="46.01877" lon="6.50094">
        <ele>2206</ele>
        <time>2018-01-28T10:56:33Z</time>
      </trkpt>
      <trkpt lat="46.01876" lon="6.50096">
        <ele>2206</ele>
        <time>2018-01-28T10:56:34Z</time>
      </trkpt>
      <trkpt lat="46.01876" lon="6.50097">
        <ele>2207</ele>
        <time>2018-01-28T10:56:35Z</time>
      </trkpt>
      <trkpt lat="46.01875" lon="6.50099">
        <ele>2207</ele>
        <time>2018-01-28T10:56:36Z</time>
      </trkpt>
      <trkpt lat="46.01875" lon="6.50101">
        <ele>2207</ele>
        <time>2018-01-28T10:56:37Z</time>
      </trkpt>
      <trkpt lat="46.01871" lon="6.50111">
        <ele>2207</ele>
        <time>2018-01-28T10:56:42Z</time>
      </trkpt>
      <trkpt lat="46.01864" lon="6.50125">
        <ele>2207</ele>
        <time>2018-01-28T10:56:54Z</time>
      </trkpt>
      <trkpt lat="46.01864" lon="6.50127">
        <ele>2207</ele>
        <time>2018-01-28T10:57:04Z</time>
      </trkpt>
      <trkpt lat="46.01864" lon="6.50126">
        <ele>2207</ele>
        <time>2018-01-28T10:57:05Z</time>
      </trkpt>
      <trkpt lat="46.01863" lon="6.50128">
        <ele>2207</ele>
        <time>2018-01-28T10:57:11Z</time>
      </trkpt>
      <trkpt lat="46.01864" lon="6.50128">
        <ele>2207</ele>
        <time>2018-01-28T10:57:23Z</time>
      </trkpt>
      <trkpt lat="46.01864" lon="6.50128">
        <ele>2207</ele>
        <time>2018-01-28T10:57:36Z</time>
      </trkpt>
      <trkpt lat="46.01864" lon="6.50127">
        <ele>2207</ele>
        <time>2018-01-28T10:57:37Z</time>
      </trkpt>
      <trkpt lat="46.01864" lon="6.50127">
        <ele>2207</ele>
        <time>2018-01-28T10:57:40Z</time>
      </trkpt>
      <trkpt lat="46.01864" lon="6.50127">
        <ele>2207</ele>
        <time>2018-01-28T10:57:44Z</time>
      </trkpt>
      <trkpt lat="46.01863" lon="6.50127">
        <ele>2207</ele>
        <time>2018-01-28T10:58:08Z</time>
      </trkpt>
      <trkpt lat="46.01864" lon="6.50128">
        <ele>2207</ele>
        <time>2018-01-28T10:58:28Z</time>
      </trkpt>
      <trkpt lat="46.01863" lon="6.50128">
        <ele>2207</ele>
        <time>2018-01-28T10:58:29Z</time>
      </trkpt>
      <trkpt lat="46.01864" lon="6.50127">
        <ele>2207</ele>
        <time>2018-01-28T10:58:42Z</time>
      </trkpt>
      <trkpt lat="46.01863" lon="6.50126">
        <ele>2207</ele>
        <time>2018-01-28T10:58:45Z</time>
      </trkpt>
      <trkpt lat="46.01863" lon="6.50126">
        <ele>2207</ele>
        <time>2018-01-28T10:58:49Z</time>
      </trkpt>
      <trkpt lat="46.01864" lon="6.50126">
        <ele>2207</ele>
        <time>2018-01-28T10:58:55Z</time>
      </trkpt>
      <trkpt lat="46.01864" lon="6.50125">
        <ele>2207</ele>
        <time>2018-01-28T10:59:07Z</time>
      </trkpt>
      <trkpt lat="46.01864" lon="6.50126">
        <ele>2207</ele>
        <time>2018-01-28T10:59:21Z</time>
      </trkpt>
      <trkpt lat="46.01865" lon="6.50126">
        <ele>2207</ele>
        <time>2018-01-28T10:59:35Z</time>
      </trkpt>
      <trkpt lat="46.01864" lon="6.50126">
        <ele>2207</ele>
        <time>2018-01-28T10:59:44Z</time>
      </trkpt>
      <trkpt lat="46.01864" lon="6.50126">
        <ele>2207</ele>
        <time>2018-01-28T11:00:00Z</time>
      </trkpt>
      <trkpt lat="46.01864" lon="6.50125">
        <ele>2207</ele>
        <time>2018-01-28T11:00:04Z</time>
      </trkpt>
      <trkpt lat="46.01864" lon="6.50125">
        <ele>2207</ele>
        <time>2018-01-28T11:00:07Z</time>
      </trkpt>
      <trkpt lat="46.01864" lon="6.50125">
        <ele>2207</ele>
        <time>2018-01-28T11:00:20Z</time>
      </trkpt>
      <trkpt lat="46.01864" lon="6.50125">
        <ele>2207</ele>
        <time>2018-01-28T11:00:50Z</time>
      </trkpt>
      <trkpt lat="46.01864" lon="6.50126">
        <ele>2207</ele>
        <time>2018-01-28T11:01:08Z</time>
      </trkpt>
      <trkpt lat="46.01864" lon="6.50126">
        <ele>2207</ele>
        <time>2018-01-28T11:01:14Z</time>
      </trkpt>
      <trkpt lat="46.01864" lon="6.50126">
        <ele>2207</ele>
        <time>2018-01-28T11:01:27Z</time>
      </trkpt>
      <trkpt lat="46.01865" lon="6.50127">
        <ele>2207</ele>
        <time>2018-01-28T11:01:39Z</time>
      </trkpt>
      <trkpt lat="46.01865" lon="6.50127">
        <ele>2207</ele>
        <time>2018-01-28T11:01:44Z</time>
      </trkpt>
      <trkpt lat="46.01864" lon="6.50126">
        <ele>2207</ele>
        <time>2018-01-28T11:01:54Z</time>
      </trkpt>
      <trkpt lat="46.01864" lon="6.50126">
        <ele>2207</ele>
        <time>2018-01-28T11:02:19Z</time>
      </trkpt>
      <trkpt lat="46.01864" lon="6.50126">
        <ele>2207</ele>
        <time>2018-01-28T11:02:26Z</time>
      </trkpt>
      <trkpt lat="46.01864" lon="6.50126">
        <ele>2207</ele>
        <time>2018-01-28T11:02:31Z</time>
      </trkpt>
      <trkpt lat="46.01864" lon="6.50126">
        <ele>2207</ele>
        <time>2018-01-28T11:02:34Z</time>
      </trkpt>
      <trkpt lat="46.01863" lon="6.50128">
        <ele>2207</ele>
        <time>2018-01-28T11:02:51Z</time>
      </trkpt>
      <trkpt lat="46.01863" lon="6.50128">
        <ele>2207</ele>
        <time>2018-01-28T11:02:53Z</time>
      </trkpt>
      <trkpt lat="46.01863" lon="6.50127">
        <ele>2207</ele>
        <time>2018-01-28T11:02:56Z</time>
      </trkpt>
      <trkpt lat="46.01863" lon="6.50127">
        <ele>2207</ele>
        <time>2018-01-28T11:03:06Z</time>
      </trkpt>
      <trkpt lat="46.01863" lon="6.50126">
        <ele>2207</ele>
        <time>2018-01-28T11:03:09Z</time>
      </trkpt>
      <trkpt lat="46.01863" lon="6.50126">
        <ele>2207</ele>
        <time>2018-01-28T11:03:12Z</time>
      </trkpt>
      <trkpt lat="46.01863" lon="6.50126">
        <ele>2207</ele>
        <time>2018-01-28T11:03:14Z</time>
      </trkpt>
      <trkpt lat="46.01863" lon="6.50126">
        <ele>2207</ele>
        <time>2018-01-28T11:03:15Z</time>
      </trkpt>
      <trkpt lat="46.01862" lon="6.50127">
        <ele>2207</ele>
        <time>2018-01-28T11:03:26Z</time>
      </trkpt>
      <trkpt lat="46.01862" lon="6.50127">
        <ele>2207</ele>
        <time>2018-01-28T11:03:30Z</time>
      </trkpt>
      <trkpt lat="46.01861" lon="6.50127">
        <ele>2207</ele>
        <time>2018-01-28T11:03:42Z</time>
      </trkpt>
      <trkpt lat="46.01862" lon="6.50126">
        <ele>2207</ele>
        <time>2018-01-28T11:03:54Z</time>
      </trkpt>
      <trkpt lat="46.01863" lon="6.50126">
        <ele>2207</ele>
        <time>2018-01-28T11:03:56Z</time>
      </trkpt>
      <trkpt lat="46.01863" lon="6.50126">
        <ele>2207</ele>
        <time>2018-01-28T11:04:10Z</time>
      </trkpt>
      <trkpt lat="46.01863" lon="6.50127">
        <ele>2207</ele>
        <time>2018-01-28T11:04:18Z</time>
      </trkpt>
      <trkpt lat="46.01864" lon="6.50127">
        <ele>2207</ele>
        <time>2018-01-28T11:04:43Z</time>
      </trkpt>
      <trkpt lat="46.01863" lon="6.50127">
        <ele>2207</ele>
        <time>2018-01-28T11:05:09Z</time>
      </trkpt>
      <trkpt lat="46.01863" lon="6.50127">
        <ele>2207</ele>
        <time>2018-01-28T11:05:12Z</time>
      </trkpt>
      <trkpt lat="46.01863" lon="6.50126">
        <ele>2207</ele>
        <time>2018-01-28T11:05:17Z</time>
      </trkpt>
      <trkpt lat="46.01863" lon="6.50127">
        <ele>2207</ele>
        <time>2018-01-28T11:05:19Z</time>
      </trkpt>
      <trkpt lat="46.01864" lon="6.50127">
        <ele>2207</ele>
        <time>2018-01-28T11:05:26Z</time>
      </trkpt>
      <trkpt lat="46.01864" lon="6.50127">
        <ele>2207</ele>
        <time>2018-01-28T11:05:31Z</time>
      </trkpt>
      <trkpt lat="46.01864" lon="6.50127">
        <ele>2207</ele>
        <time>2018-01-28T11:05:34Z</time>
      </trkpt>
      <trkpt lat="46.01864" lon="6.50127">
        <ele>2207</ele>
        <time>2018-01-28T11:05:40Z</time>
      </trkpt>
      <trkpt lat="46.01864" lon="6.50127">
        <ele>2207</ele>
        <time>2018-01-28T11:05:49Z</time>
      </trkpt>
      <trkpt lat="46.01864" lon="6.50127">
        <ele>2207</ele>
        <time>2018-01-28T11:05:53Z</time>
      </trkpt>
      <trkpt lat="46.01864" lon="6.50127">
        <ele>2207</ele>
        <time>2018-01-28T11:05:56Z</time>
      </trkpt>
      <trkpt lat="46.01864" lon="6.50127">
        <ele>2207</ele>
        <time>2018-01-28T11:06:04Z</time>
      </trkpt>
      <trkpt lat="46.01865" lon="6.50127">
        <ele>2207</ele>
        <time>2018-01-28T11:06:11Z</time>
      </trkpt>
      <trkpt lat="46.01864" lon="6.50127">
        <ele>2207</ele>
        <time>2018-01-28T11:06:27Z</time>
      </trkpt>
      <trkpt lat="46.01864" lon="6.50127">
        <ele>2207</ele>
        <time>2018-01-28T11:06:30Z</time>
      </trkpt>
      <trkpt lat="46.01864" lon="6.50127">
        <ele>2207</ele>
        <time>2018-01-28T11:06:36Z</time>
      </trkpt>
      <trkpt lat="46.01864" lon="6.50128">
        <ele>2207</ele>
        <time>2018-01-28T11:07:00Z</time>
      </trkpt>
      <trkpt lat="46.01864" lon="6.50127">
        <ele>2207</ele>
        <time>2018-01-28T11:07:04Z</time>
      </trkpt>
      <trkpt lat="46.01865" lon="6.50127">
        <ele>2207</ele>
        <time>2018-01-28T11:07:06Z</time>
      </trkpt>
      <trkpt lat="46.01865" lon="6.50127">
        <ele>2207</ele>
        <time>2018-01-28T11:07:10Z</time>
      </trkpt>
      <trkpt lat="46.01864" lon="6.50127">
        <ele>2207</ele>
        <time>2018-01-28T11:07:13Z</time>
      </trkpt>
      <trkpt lat="46.01863" lon="6.50127">
        <ele>2207</ele>
        <time>2018-01-28T11:07:20Z</time>
      </trkpt>
      <trkpt lat="46.01862" lon="6.50127">
        <ele>2207</ele>
        <time>2018-01-28T11:07:48Z</time>
      </trkpt>
      <trkpt lat="46.01863" lon="6.50127">
        <ele>2207</ele>
        <time>2018-01-28T11:08:07Z</time>
      </trkpt>
      <trkpt lat="46.01863" lon="6.50127">
        <ele>2207</ele>
        <time>2018-01-28T11:08:12Z</time>
      </trkpt>
      <trkpt lat="46.01863" lon="6.50127">
        <ele>2207</ele>
        <time>2018-01-28T11:08:15Z</time>
      </trkpt>
      <trkpt lat="46.01863" lon="6.50127">
        <ele>2207</ele>
        <time>2018-01-28T11:08:18Z</time>
      </trkpt>
      <trkpt lat="46.01864" lon="6.50127">
        <ele>2207</ele>
        <time>2018-01-28T11:08:28Z</time>
      </trkpt>
      <trkpt lat="46.01864" lon="6.50127">
        <ele>2207</ele>
        <time>2018-01-28T11:08:33Z</time>
      </trkpt>
      <trkpt lat="46.01862" lon="6.50127">
        <ele>2207</ele>
        <time>2018-01-28T11:08:40Z</time>
      </trkpt>
      <trkpt lat="46.01864" lon="6.50125">
        <ele>2207</ele>
        <time>2018-01-28T11:08:43Z</time>
      </trkpt>
      <trkpt lat="46.01864" lon="6.50126">
        <ele>2207</ele>
        <time>2018-01-28T11:08:51Z</time>
      </trkpt>
      <trkpt lat="46.01864" lon="6.50126">
        <ele>2207</ele>
        <time>2018-01-28T11:08:53Z</time>
      </trkpt>
      <trkpt lat="46.01864" lon="6.50126">
        <ele>2207</ele>
        <time>2018-01-28T11:08:56Z</time>
      </trkpt>
      <trkpt lat="46.01864" lon="6.50126">
        <ele>2207</ele>
        <time>2018-01-28T11:09:16Z</time>
      </trkpt>
      <trkpt lat="46.01863" lon="6.50128">
        <ele>2207</ele>
        <time>2018-01-28T11:09:27Z</time>
      </trkpt>
      <trkpt lat="46.01862" lon="6.50131">
        <ele>2207</ele>
        <time>2018-01-28T11:09:30Z</time>
      </trkpt>
      <trkpt lat="46.01862" lon="6.50134">
        <ele>2207</ele>
        <time>2018-01-28T11:09:34Z</time>
      </trkpt>
      <trkpt lat="46.01861" lon="6.50136">
        <ele>2207</ele>
        <time>2018-01-28T11:09:36Z</time>
      </trkpt>
      <trkpt lat="46.01861" lon="6.50138">
        <ele>2207</ele>
        <time>2018-01-28T11:09:37Z</time>
      </trkpt>
      <trkpt lat="46.01855" lon="6.50169">
        <ele>2206</ele>
        <time>2018-01-28T11:09:43Z</time>
      </trkpt>
      <trkpt lat="46.01854" lon="6.50175">
        <ele>2206</ele>
        <time>2018-01-28T11:09:44Z</time>
      </trkpt>
      <trkpt lat="46.01851" lon="6.5018">
        <ele>2205</ele>
        <time>2018-01-28T11:09:45Z</time>
      </trkpt>
      <trkpt lat="46.01848" lon="6.50185">
        <ele>2205</ele>
        <time>2018-01-28T11:09:46Z</time>
      </trkpt>
      <trkpt lat="46.01846" lon="6.50191">
        <ele>2205</ele>
        <time>2018-01-28T11:09:47Z</time>
      </trkpt>
      <trkpt lat="46.01843" lon="6.50196">
        <ele>2204</ele>
        <time>2018-01-28T11:09:48Z</time>
      </trkpt>
      <trkpt lat="46.01841" lon="6.50202">
        <ele>2204</ele>
        <time>2018-01-28T11:09:49Z</time>
      </trkpt>
      <trkpt lat="46.01838" lon="6.5021">
        <ele>2203</ele>
        <time>2018-01-28T11:09:50Z</time>
      </trkpt>
      <trkpt lat="46.01834" lon="6.50218">
        <ele>2203</ele>
        <time>2018-01-28T11:09:51Z</time>
      </trkpt>
      <trkpt lat="46.01831" lon="6.50224">
        <ele>2200</ele>
        <time>2018-01-28T11:09:52Z</time>
      </trkpt>
      <trkpt lat="46.01828" lon="6.50231">
        <ele>2199</ele>
        <time>2018-01-28T11:09:53Z</time>
      </trkpt>
      <trkpt lat="46.01823" lon="6.50239">
        <ele>2199</ele>
        <time>2018-01-28T11:09:54Z</time>
      </trkpt>
      <trkpt lat="46.0182" lon="6.50246">
        <ele>2199</ele>
        <time>2018-01-28T11:09:55Z</time>
      </trkpt>
      <trkpt lat="46.01821" lon="6.50254">
        <ele>2195</ele>
        <time>2018-01-28T11:09:56Z</time>
      </trkpt>
      <trkpt lat="46.01822" lon="6.50262">
        <ele>2194</ele>
        <time>2018-01-28T11:09:57Z</time>
      </trkpt>
      <trkpt lat="46.01825" lon="6.50271">
        <ele>2193</ele>
        <time>2018-01-28T11:09:58Z</time>
      </trkpt>
      <trkpt lat="46.01828" lon="6.50279">
        <ele>2192</ele>
        <time>2018-01-28T11:09:59Z</time>
      </trkpt>
      <trkpt lat="46.0183" lon="6.50285">
        <ele>2191</ele>
        <time>2018-01-28T11:10:00Z</time>
      </trkpt>
      <trkpt lat="46.01833" lon="6.50291">
        <ele>2190</ele>
        <time>2018-01-28T11:10:01Z</time>
      </trkpt>
      <trkpt lat="46.01838" lon="6.50296">
        <ele>2188</ele>
        <time>2018-01-28T11:10:02Z</time>
      </trkpt>
      <trkpt lat="46.01845" lon="6.50301">
        <ele>2188</ele>
        <time>2018-01-28T11:10:03Z</time>
      </trkpt>
      <trkpt lat="46.01859" lon="6.50311">
        <ele>2186</ele>
        <time>2018-01-28T11:10:05Z</time>
      </trkpt>
      <trkpt lat="46.01865" lon="6.5032">
        <ele>2186</ele>
        <time>2018-01-28T11:10:06Z</time>
      </trkpt>
      <trkpt lat="46.01871" lon="6.50337">
        <ele>2174</ele>
        <time>2018-01-28T11:10:08Z</time>
      </trkpt>
      <trkpt lat="46.01871" lon="6.50343">
        <ele>2174</ele>
        <time>2018-01-28T11:10:09Z</time>
      </trkpt>
      <trkpt lat="46.01872" lon="6.50347">
        <ele>2173</ele>
        <time>2018-01-28T11:10:10Z</time>
      </trkpt>
      <trkpt lat="46.01876" lon="6.50364">
        <ele>2172</ele>
        <time>2018-01-28T11:10:13Z</time>
      </trkpt>
      <trkpt lat="46.01876" lon="6.50373">
        <ele>2171</ele>
        <time>2018-01-28T11:10:14Z</time>
      </trkpt>
      <trkpt lat="46.01879" lon="6.50383">
        <ele>2170</ele>
        <time>2018-01-28T11:10:15Z</time>
      </trkpt>
      <trkpt lat="46.01882" lon="6.50393">
        <ele>2169</ele>
        <time>2018-01-28T11:10:16Z</time>
      </trkpt>
      <trkpt lat="46.01884" lon="6.50403">
        <ele>2168</ele>
        <time>2018-01-28T11:10:17Z</time>
      </trkpt>
      <trkpt lat="46.01884" lon="6.5042">
        <ele>2156</ele>
        <time>2018-01-28T11:10:19Z</time>
      </trkpt>
      <trkpt lat="46.01886" lon="6.50432">
        <ele>2155</ele>
        <time>2018-01-28T11:10:21Z</time>
      </trkpt>
      <trkpt lat="46.01889" lon="6.50437">
        <ele>2154</ele>
        <time>2018-01-28T11:10:22Z</time>
      </trkpt>
      <trkpt lat="46.01892" lon="6.50443">
        <ele>2153</ele>
        <time>2018-01-28T11:10:23Z</time>
      </trkpt>
      <trkpt lat="46.019" lon="6.5046">
        <ele>2150</ele>
        <time>2018-01-28T11:10:27Z</time>
      </trkpt>
      <trkpt lat="46.01901" lon="6.50466">
        <ele>2149</ele>
        <time>2018-01-28T11:10:28Z</time>
      </trkpt>
      <trkpt lat="46.01902" lon="6.50473">
        <ele>2148</ele>
        <time>2018-01-28T11:10:29Z</time>
      </trkpt>
      <trkpt lat="46.01903" lon="6.5048">
        <ele>2146</ele>
        <time>2018-01-28T11:10:30Z</time>
      </trkpt>
      <trkpt lat="46.01904" lon="6.50487">
        <ele>2145</ele>
        <time>2018-01-28T11:10:31Z</time>
      </trkpt>
      <trkpt lat="46.01907" lon="6.5049">
        <ele>2144</ele>
        <time>2018-01-28T11:10:32Z</time>
      </trkpt>
      <trkpt lat="46.01909" lon="6.50493">
        <ele>2142</ele>
        <time>2018-01-28T11:10:33Z</time>
      </trkpt>
      <trkpt lat="46.01914" lon="6.50498">
        <ele>2140</ele>
        <time>2018-01-28T11:10:34Z</time>
      </trkpt>
      <trkpt lat="46.01922" lon="6.50503">
        <ele>2136</ele>
        <time>2018-01-28T11:10:35Z</time>
      </trkpt>
      <trkpt lat="46.01931" lon="6.50508">
        <ele>2134</ele>
        <time>2018-01-28T11:10:36Z</time>
      </trkpt>
      <trkpt lat="46.01937" lon="6.50515">
        <ele>2133</ele>
        <time>2018-01-28T11:10:37Z</time>
      </trkpt>
      <trkpt lat="46.01937" lon="6.50522">
        <ele>2132</ele>
        <time>2018-01-28T11:10:38Z</time>
      </trkpt>
      <trkpt lat="46.01937" lon="6.50528">
        <ele>2132</ele>
        <time>2018-01-28T11:10:39Z</time>
      </trkpt>
      <trkpt lat="46.01937" lon="6.50532">
        <ele>2132</ele>
        <time>2018-01-28T11:10:40Z</time>
      </trkpt>
      <trkpt lat="46.01937" lon="6.50535">
        <ele>2132</ele>
        <time>2018-01-28T11:10:41Z</time>
      </trkpt>
      <trkpt lat="46.01937" lon="6.50538">
        <ele>2132</ele>
        <time>2018-01-28T11:10:42Z</time>
      </trkpt>
      <trkpt lat="46.01936" lon="6.50541">
        <ele>2132</ele>
        <time>2018-01-28T11:10:43Z</time>
      </trkpt>
      <trkpt lat="46.01933" lon="6.5055">
        <ele>2131</ele>
        <time>2018-01-28T11:10:48Z</time>
      </trkpt>
      <trkpt lat="46.01924" lon="6.50561">
        <ele>2131</ele>
        <time>2018-01-28T11:10:54Z</time>
      </trkpt>
      <trkpt lat="46.01904" lon="6.50579">
        <ele>2130</ele>
        <time>2018-01-28T11:11:01Z</time>
      </trkpt>
      <trkpt lat="46.01899" lon="6.50582">
        <ele>2130</ele>
        <time>2018-01-28T11:11:02Z</time>
      </trkpt>
      <trkpt lat="46.01889" lon="6.50587">
        <ele>2122</ele>
        <time>2018-01-28T11:11:04Z</time>
      </trkpt>
      <trkpt lat="46.01885" lon="6.50592">
        <ele>2121</ele>
        <time>2018-01-28T11:11:05Z</time>
      </trkpt>
      <trkpt lat="46.01881" lon="6.50597">
        <ele>2120</ele>
        <time>2018-01-28T11:11:06Z</time>
      </trkpt>
      <trkpt lat="46.01878" lon="6.50603">
        <ele>2119</ele>
        <time>2018-01-28T11:11:07Z</time>
      </trkpt>
      <trkpt lat="46.01874" lon="6.50608">
        <ele>2118</ele>
        <time>2018-01-28T11:11:08Z</time>
      </trkpt>
      <trkpt lat="46.0187" lon="6.50614">
        <ele>2118</ele>
        <time>2018-01-28T11:11:09Z</time>
      </trkpt>
      <trkpt lat="46.01869" lon="6.50621">
        <ele>2117</ele>
        <time>2018-01-28T11:11:10Z</time>
      </trkpt>
      <trkpt lat="46.01869" lon="6.50628">
        <ele>2116</ele>
        <time>2018-01-28T11:11:11Z</time>
      </trkpt>
      <trkpt lat="46.01872" lon="6.50646">
        <ele>2115</ele>
        <time>2018-01-28T11:11:13Z</time>
      </trkpt>
      <trkpt lat="46.01874" lon="6.50654">
        <ele>2115</ele>
        <time>2018-01-28T11:11:14Z</time>
      </trkpt>
      <trkpt lat="46.01875" lon="6.50663">
        <ele>2115</ele>
        <time>2018-01-28T11:11:15Z</time>
      </trkpt>
      <trkpt lat="46.01877" lon="6.50672">
        <ele>2104</ele>
        <time>2018-01-28T11:11:16Z</time>
      </trkpt>
      <trkpt lat="46.01878" lon="6.50682">
        <ele>2103</ele>
        <time>2018-01-28T11:11:17Z</time>
      </trkpt>
      <trkpt lat="46.01877" lon="6.50692">
        <ele>2102</ele>
        <time>2018-01-28T11:11:18Z</time>
      </trkpt>
      <trkpt lat="46.01878" lon="6.50702">
        <ele>2101</ele>
        <time>2018-01-28T11:11:19Z</time>
      </trkpt>
      <trkpt lat="46.0188" lon="6.50713">
        <ele>2100</ele>
        <time>2018-01-28T11:11:20Z</time>
      </trkpt>
      <trkpt lat="46.01879" lon="6.50723">
        <ele>2098</ele>
        <time>2018-01-28T11:11:21Z</time>
      </trkpt>
      <trkpt lat="46.01879" lon="6.50732">
        <ele>2097</ele>
        <time>2018-01-28T11:11:22Z</time>
      </trkpt>
      <trkpt lat="46.01881" lon="6.5074">
        <ele>2097</ele>
        <time>2018-01-28T11:11:23Z</time>
      </trkpt>
      <trkpt lat="46.0188" lon="6.50748">
        <ele>2096</ele>
        <time>2018-01-28T11:11:24Z</time>
      </trkpt>
      <trkpt lat="46.01878" lon="6.50755">
        <ele>2081</ele>
        <time>2018-01-28T11:11:25Z</time>
      </trkpt>
      <trkpt lat="46.01877" lon="6.50762">
        <ele>2081</ele>
        <time>2018-01-28T11:11:26Z</time>
      </trkpt>
      <trkpt lat="46.01875" lon="6.50768">
        <ele>2079</ele>
        <time>2018-01-28T11:11:27Z</time>
      </trkpt>
      <trkpt lat="46.01871" lon="6.5077">
        <ele>2078</ele>
        <time>2018-01-28T11:11:28Z</time>
      </trkpt>
      <trkpt lat="46.01867" lon="6.5077">
        <ele>2078</ele>
        <time>2018-01-28T11:11:29Z</time>
      </trkpt>
      <trkpt lat="46.01864" lon="6.50771">
        <ele>2077</ele>
        <time>2018-01-28T11:11:30Z</time>
      </trkpt>
      <trkpt lat="46.01861" lon="6.50777">
        <ele>2076</ele>
        <time>2018-01-28T11:11:31Z</time>
      </trkpt>
      <trkpt lat="46.01858" lon="6.50782">
        <ele>2075</ele>
        <time>2018-01-28T11:11:32Z</time>
      </trkpt>
      <trkpt lat="46.01855" lon="6.50784">
        <ele>2074</ele>
        <time>2018-01-28T11:11:33Z</time>
      </trkpt>
      <trkpt lat="46.01852" lon="6.50786">
        <ele>2073</ele>
        <time>2018-01-28T11:11:34Z</time>
      </trkpt>
      <trkpt lat="46.01849" lon="6.50789">
        <ele>2072</ele>
        <time>2018-01-28T11:11:35Z</time>
      </trkpt>
      <trkpt lat="46.01845" lon="6.50793">
        <ele>2071</ele>
        <time>2018-01-28T11:11:36Z</time>
      </trkpt>
      <trkpt lat="46.0184" lon="6.50793">
        <ele>2070</ele>
        <time>2018-01-28T11:11:37Z</time>
      </trkpt>
      <trkpt lat="46.01836" lon="6.50791">
        <ele>2070</ele>
        <time>2018-01-28T11:11:38Z</time>
      </trkpt>
      <trkpt lat="46.01833" lon="6.50788">
        <ele>2071</ele>
        <time>2018-01-28T11:11:39Z</time>
      </trkpt>
      <trkpt lat="46.01833" lon="6.50785">
        <ele>2043</ele>
        <time>2018-01-28T11:11:40Z</time>
      </trkpt>
      <trkpt lat="46.01832" lon="6.50783">
        <ele>2044</ele>
        <time>2018-01-28T11:11:41Z</time>
      </trkpt>
      <trkpt lat="46.01831" lon="6.50782">
        <ele>2044</ele>
        <time>2018-01-28T11:11:42Z</time>
      </trkpt>
      <trkpt lat="46.01829" lon="6.50783">
        <ele>2043</ele>
        <time>2018-01-28T11:11:43Z</time>
      </trkpt>
      <trkpt lat="46.01826" lon="6.50784">
        <ele>2042</ele>
        <time>2018-01-28T11:11:44Z</time>
      </trkpt>
      <trkpt lat="46.01824" lon="6.50782">
        <ele>2043</ele>
        <time>2018-01-28T11:11:45Z</time>
      </trkpt>
      <trkpt lat="46.01822" lon="6.50778">
        <ele>2044</ele>
        <time>2018-01-28T11:11:46Z</time>
      </trkpt>
      <trkpt lat="46.0182" lon="6.50774">
        <ele>2045</ele>
        <time>2018-01-28T11:11:47Z</time>
      </trkpt>
      <trkpt lat="46.01818" lon="6.50769">
        <ele>2046</ele>
        <time>2018-01-28T11:11:48Z</time>
      </trkpt>
      <trkpt lat="46.01817" lon="6.50766">
        <ele>2047</ele>
        <time>2018-01-28T11:11:49Z</time>
      </trkpt>
      <trkpt lat="46.01815" lon="6.50764">
        <ele>2047</ele>
        <time>2018-01-28T11:11:50Z</time>
      </trkpt>
      <trkpt lat="46.01812" lon="6.50764">
        <ele>2045</ele>
        <time>2018-01-28T11:11:51Z</time>
      </trkpt>
      <trkpt lat="46.0181" lon="6.50765">
        <ele>2044</ele>
        <time>2018-01-28T11:11:52Z</time>
      </trkpt>
      <trkpt lat="46.01811" lon="6.50767">
        <ele>2043</ele>
        <time>2018-01-28T11:11:53Z</time>
      </trkpt>
      <trkpt lat="46.01812" lon="6.50768">
        <ele>2043</ele>
        <time>2018-01-28T11:11:56Z</time>
      </trkpt>
      <trkpt lat="46.01811" lon="6.5077">
        <ele>2043</ele>
        <time>2018-01-28T11:12:01Z</time>
      </trkpt>
      <trkpt lat="46.01812" lon="6.5077">
        <ele>2043</ele>
        <time>2018-01-28T11:12:04Z</time>
      </trkpt>
      <trkpt lat="46.01811" lon="6.50772">
        <ele>2042</ele>
        <time>2018-01-28T11:12:07Z</time>
      </trkpt>
      <trkpt lat="46.01809" lon="6.50773">
        <ele>2041</ele>
        <time>2018-01-28T11:12:08Z</time>
      </trkpt>
      <trkpt lat="46.01807" lon="6.50774">
        <ele>2039</ele>
        <time>2018-01-28T11:12:09Z</time>
      </trkpt>
      <trkpt lat="46.01804" lon="6.50775">
        <ele>2038</ele>
        <time>2018-01-28T11:12:10Z</time>
      </trkpt>
      <trkpt lat="46.01801" lon="6.50777">
        <ele>2036</ele>
        <time>2018-01-28T11:12:11Z</time>
      </trkpt>
      <trkpt lat="46.01799" lon="6.50777">
        <ele>2035</ele>
        <time>2018-01-28T11:12:12Z</time>
      </trkpt>
      <trkpt lat="46.01797" lon="6.50778">
        <ele>2034</ele>
        <time>2018-01-28T11:12:13Z</time>
      </trkpt>
      <trkpt lat="46.01797" lon="6.5078">
        <ele>2034</ele>
        <time>2018-01-28T11:12:14Z</time>
      </trkpt>
      <trkpt lat="46.01797" lon="6.50782">
        <ele>2034</ele>
        <time>2018-01-28T11:12:15Z</time>
      </trkpt>
      <trkpt lat="46.01797" lon="6.50785">
        <ele>2033</ele>
        <time>2018-01-28T11:12:16Z</time>
      </trkpt>
      <trkpt lat="46.01796" lon="6.50787">
        <ele>2032</ele>
        <time>2018-01-28T11:12:17Z</time>
      </trkpt>
      <trkpt lat="46.01794" lon="6.50788">
        <ele>2031</ele>
        <time>2018-01-28T11:12:18Z</time>
      </trkpt>
      <trkpt lat="46.01791" lon="6.50787">
        <ele>2030</ele>
        <time>2018-01-28T11:12:19Z</time>
      </trkpt>
      <trkpt lat="46.01787" lon="6.50788">
        <ele>2029</ele>
        <time>2018-01-28T11:12:20Z</time>
      </trkpt>
      <trkpt lat="46.01783" lon="6.5079">
        <ele>2027</ele>
        <time>2018-01-28T11:12:21Z</time>
      </trkpt>
      <trkpt lat="46.01779" lon="6.5079">
        <ele>2026</ele>
        <time>2018-01-28T11:12:22Z</time>
      </trkpt>
      <trkpt lat="46.01775" lon="6.50791">
        <ele>2025</ele>
        <time>2018-01-28T11:12:23Z</time>
      </trkpt>
      <trkpt lat="46.01772" lon="6.50791">
        <ele>2023</ele>
        <time>2018-01-28T11:12:24Z</time>
      </trkpt>
      <trkpt lat="46.01769" lon="6.50791">
        <ele>2023</ele>
        <time>2018-01-28T11:12:25Z</time>
      </trkpt>
      <trkpt lat="46.01768" lon="6.50792">
        <ele>2022</ele>
        <time>2018-01-28T11:12:26Z</time>
      </trkpt>
      <trkpt lat="46.01767" lon="6.50795">
        <ele>2021</ele>
        <time>2018-01-28T11:12:27Z</time>
      </trkpt>
      <trkpt lat="46.01766" lon="6.50797">
        <ele>2020</ele>
        <time>2018-01-28T11:12:28Z</time>
      </trkpt>
      <trkpt lat="46.01764" lon="6.50799">
        <ele>2019</ele>
        <time>2018-01-28T11:12:29Z</time>
      </trkpt>
      <trkpt lat="46.01763" lon="6.50799">
        <ele>2019</ele>
        <time>2018-01-28T11:12:30Z</time>
      </trkpt>
      <trkpt lat="46.01761" lon="6.50799">
        <ele>2018</ele>
        <time>2018-01-28T11:12:31Z</time>
      </trkpt>
      <trkpt lat="46.01759" lon="6.508">
        <ele>2018</ele>
        <time>2018-01-28T11:12:32Z</time>
      </trkpt>
      <trkpt lat="46.01758" lon="6.508">
        <ele>2017</ele>
        <time>2018-01-28T11:12:33Z</time>
      </trkpt>
      <trkpt lat="46.01757" lon="6.50799">
        <ele>2017</ele>
        <time>2018-01-28T11:12:34Z</time>
      </trkpt>
      <trkpt lat="46.01757" lon="6.50801">
        <ele>2017</ele>
        <time>2018-01-28T11:12:37Z</time>
      </trkpt>
      <trkpt lat="46.01757" lon="6.50801">
        <ele>2017</ele>
        <time>2018-01-28T11:12:40Z</time>
      </trkpt>
      <trkpt lat="46.01757" lon="6.50803">
        <ele>2016</ele>
        <time>2018-01-28T11:12:43Z</time>
      </trkpt>
      <trkpt lat="46.01756" lon="6.50805">
        <ele>2014</ele>
        <time>2018-01-28T11:12:44Z</time>
      </trkpt>
      <trkpt lat="46.01754" lon="6.50807">
        <ele>2013</ele>
        <time>2018-01-28T11:12:45Z</time>
      </trkpt>
      <trkpt lat="46.01752" lon="6.50807">
        <ele>2013</ele>
        <time>2018-01-28T11:12:46Z</time>
      </trkpt>
      <trkpt lat="46.01751" lon="6.50806">
        <ele>2013</ele>
        <time>2018-01-28T11:12:47Z</time>
      </trkpt>
      <trkpt lat="46.01751" lon="6.50804">
        <ele>2014</ele>
        <time>2018-01-28T11:12:49Z</time>
      </trkpt>
      <trkpt lat="46.01752" lon="6.50803">
        <ele>2015</ele>
        <time>2018-01-28T11:12:50Z</time>
      </trkpt>
      <trkpt lat="46.01751" lon="6.50801">
        <ele>2016</ele>
        <time>2018-01-28T11:12:51Z</time>
      </trkpt>
      <trkpt lat="46.01751" lon="6.508">
        <ele>2016</ele>
        <time>2018-01-28T11:12:52Z</time>
      </trkpt>
      <trkpt lat="46.01751" lon="6.50799">
        <ele>2016</ele>
        <time>2018-01-28T11:12:53Z</time>
      </trkpt>
      <trkpt lat="46.01751" lon="6.50797">
        <ele>2017</ele>
        <time>2018-01-28T11:12:54Z</time>
      </trkpt>
      <trkpt lat="46.01751" lon="6.50795">
        <ele>2018</ele>
        <time>2018-01-28T11:12:55Z</time>
      </trkpt>
      <trkpt lat="46.01749" lon="6.50785">
        <ele>1984</ele>
        <time>2018-01-28T11:12:58Z</time>
      </trkpt>
      <trkpt lat="46.01748" lon="6.50784">
        <ele>1984</ele>
        <time>2018-01-28T11:12:59Z</time>
      </trkpt>
      <trkpt lat="46.01747" lon="6.50786">
        <ele>1983</ele>
        <time>2018-01-28T11:13:00Z</time>
      </trkpt>
      <trkpt lat="46.01745" lon="6.50787">
        <ele>1982</ele>
        <time>2018-01-28T11:13:01Z</time>
      </trkpt>
      <trkpt lat="46.01742" lon="6.50786">
        <ele>1982</ele>
        <time>2018-01-28T11:13:02Z</time>
      </trkpt>
      <trkpt lat="46.01741" lon="6.50784">
        <ele>1983</ele>
        <time>2018-01-28T11:13:03Z</time>
      </trkpt>
      <trkpt lat="46.0174" lon="6.50782">
        <ele>1983</ele>
        <time>2018-01-28T11:13:04Z</time>
      </trkpt>
      <trkpt lat="46.01738" lon="6.50782">
        <ele>1983</ele>
        <time>2018-01-28T11:13:05Z</time>
      </trkpt>
      <trkpt lat="46.01736" lon="6.50783">
        <ele>1982</ele>
        <time>2018-01-28T11:13:06Z</time>
      </trkpt>
      <trkpt lat="46.01734" lon="6.50785">
        <ele>1980</ele>
        <time>2018-01-28T11:13:07Z</time>
      </trkpt>
      <trkpt lat="46.01731" lon="6.50785">
        <ele>1980</ele>
        <time>2018-01-28T11:13:08Z</time>
      </trkpt>
      <trkpt lat="46.0173" lon="6.50785">
        <ele>1979</ele>
        <time>2018-01-28T11:13:09Z</time>
      </trkpt>
      <trkpt lat="46.0173" lon="6.50787">
        <ele>1978</ele>
        <time>2018-01-28T11:13:10Z</time>
      </trkpt>
      <trkpt lat="46.0173" lon="6.50791">
        <ele>1978</ele>
        <time>2018-01-28T11:13:11Z</time>
      </trkpt>
      <trkpt lat="46.01729" lon="6.50795">
        <ele>1976</ele>
        <time>2018-01-28T11:13:12Z</time>
      </trkpt>
      <trkpt lat="46.01728" lon="6.50796">
        <ele>1976</ele>
        <time>2018-01-28T11:13:13Z</time>
      </trkpt>
      <trkpt lat="46.01726" lon="6.50796">
        <ele>1975</ele>
        <time>2018-01-28T11:13:14Z</time>
      </trkpt>
      <trkpt lat="46.01722" lon="6.50798">
        <ele>1974</ele>
        <time>2018-01-28T11:13:15Z</time>
      </trkpt>
      <trkpt lat="46.0172" lon="6.50797">
        <ele>1973</ele>
        <time>2018-01-28T11:13:16Z</time>
      </trkpt>
      <trkpt lat="46.01718" lon="6.50795">
        <ele>1973</ele>
        <time>2018-01-28T11:13:17Z</time>
      </trkpt>
      <trkpt lat="46.01716" lon="6.50796">
        <ele>1972</ele>
        <time>2018-01-28T11:13:18Z</time>
      </trkpt>
      <trkpt lat="46.01714" lon="6.50798">
        <ele>1971</ele>
        <time>2018-01-28T11:13:19Z</time>
      </trkpt>
      <trkpt lat="46.01712" lon="6.50799">
        <ele>1970</ele>
        <time>2018-01-28T11:13:20Z</time>
      </trkpt>
      <trkpt lat="46.01709" lon="6.50798">
        <ele>1969</ele>
        <time>2018-01-28T11:13:21Z</time>
      </trkpt>
      <trkpt lat="46.01705" lon="6.508">
        <ele>1967</ele>
        <time>2018-01-28T11:13:22Z</time>
      </trkpt>
      <trkpt lat="46.01701" lon="6.508">
        <ele>1966</ele>
        <time>2018-01-28T11:13:23Z</time>
      </trkpt>
      <trkpt lat="46.01698" lon="6.50798">
        <ele>1965</ele>
        <time>2018-01-28T11:13:24Z</time>
      </trkpt>
      <trkpt lat="46.01696" lon="6.50799">
        <ele>1964</ele>
        <time>2018-01-28T11:13:25Z</time>
      </trkpt>
      <trkpt lat="46.01694" lon="6.50802">
        <ele>1963</ele>
        <time>2018-01-28T11:13:26Z</time>
      </trkpt>
      <trkpt lat="46.01689" lon="6.50804">
        <ele>1960</ele>
        <time>2018-01-28T11:13:27Z</time>
      </trkpt>
      <trkpt lat="46.01687" lon="6.50804">
        <ele>1960</ele>
        <time>2018-01-28T11:13:28Z</time>
      </trkpt>
      <trkpt lat="46.01687" lon="6.50802">
        <ele>1960</ele>
        <time>2018-01-28T11:13:30Z</time>
      </trkpt>
      <trkpt lat="46.01684" lon="6.50801">
        <ele>1959</ele>
        <time>2018-01-28T11:13:34Z</time>
      </trkpt>
      <trkpt lat="46.01682" lon="6.50804">
        <ele>1957</ele>
        <time>2018-01-28T11:13:37Z</time>
      </trkpt>
      <trkpt lat="46.01682" lon="6.50807">
        <ele>1956</ele>
        <time>2018-01-28T11:13:38Z</time>
      </trkpt>
      <trkpt lat="46.01682" lon="6.50811">
        <ele>1955</ele>
        <time>2018-01-28T11:13:39Z</time>
      </trkpt>
      <trkpt lat="46.01682" lon="6.50814">
        <ele>1953</ele>
        <time>2018-01-28T11:13:40Z</time>
      </trkpt>
      <trkpt lat="46.0168" lon="6.50814">
        <ele>1952</ele>
        <time>2018-01-28T11:13:41Z</time>
      </trkpt>
      <trkpt lat="46.01677" lon="6.50813">
        <ele>1952</ele>
        <time>2018-01-28T11:13:42Z</time>
      </trkpt>
      <trkpt lat="46.01675" lon="6.50813">
        <ele>1951</ele>
        <time>2018-01-28T11:13:43Z</time>
      </trkpt>
      <trkpt lat="46.01674" lon="6.50817">
        <ele>1948</ele>
        <time>2018-01-28T11:13:44Z</time>
      </trkpt>
      <trkpt lat="46.01673" lon="6.50819">
        <ele>1945</ele>
        <time>2018-01-28T11:13:45Z</time>
      </trkpt>
      <trkpt lat="46.01671" lon="6.50819">
        <ele>1945</ele>
        <time>2018-01-28T11:13:46Z</time>
      </trkpt>
      <trkpt lat="46.01668" lon="6.50818">
        <ele>1945</ele>
        <time>2018-01-28T11:13:47Z</time>
      </trkpt>
      <trkpt lat="46.01666" lon="6.50818">
        <ele>1918</ele>
        <time>2018-01-28T11:13:48Z</time>
      </trkpt>
      <trkpt lat="46.01663" lon="6.50816">
        <ele>1917</ele>
        <time>2018-01-28T11:13:49Z</time>
      </trkpt>
      <trkpt lat="46.01661" lon="6.50812">
        <ele>1916</ele>
        <time>2018-01-28T11:13:50Z</time>
      </trkpt>
      <trkpt lat="46.01659" lon="6.5081">
        <ele>1916</ele>
        <time>2018-01-28T11:13:51Z</time>
      </trkpt>
      <trkpt lat="46.01657" lon="6.50808">
        <ele>1916</ele>
        <time>2018-01-28T11:13:52Z</time>
      </trkpt>
      <trkpt lat="46.01655" lon="6.50808">
        <ele>1915</ele>
        <time>2018-01-28T11:13:53Z</time>
      </trkpt>
      <trkpt lat="46.01652" lon="6.50811">
        <ele>1914</ele>
        <time>2018-01-28T11:13:54Z</time>
      </trkpt>
      <trkpt lat="46.01649" lon="6.50813">
        <ele>1913</ele>
        <time>2018-01-28T11:13:55Z</time>
      </trkpt>
      <trkpt lat="46.01644" lon="6.50812">
        <ele>1912</ele>
        <time>2018-01-28T11:13:56Z</time>
      </trkpt>
      <trkpt lat="46.01639" lon="6.50809">
        <ele>1910</ele>
        <time>2018-01-28T11:13:57Z</time>
      </trkpt>
      <trkpt lat="46.01635" lon="6.50809">
        <ele>1908</ele>
        <time>2018-01-28T11:13:58Z</time>
      </trkpt>
      <trkpt lat="46.01632" lon="6.5081">
        <ele>1907</ele>
        <time>2018-01-28T11:13:59Z</time>
      </trkpt>
      <trkpt lat="46.01626" lon="6.50812">
        <ele>1904</ele>
        <time>2018-01-28T11:14:00Z</time>
      </trkpt>
      <trkpt lat="46.01623" lon="6.50816">
        <ele>1902</ele>
        <time>2018-01-28T11:14:01Z</time>
      </trkpt>
      <trkpt lat="46.0162" lon="6.5082">
        <ele>1900</ele>
        <time>2018-01-28T11:14:02Z</time>
      </trkpt>
      <trkpt lat="46.01616" lon="6.50824">
        <ele>1896</ele>
        <time>2018-01-28T11:14:03Z</time>
      </trkpt>
      <trkpt lat="46.01612" lon="6.50828">
        <ele>1893</ele>
        <time>2018-01-28T11:14:04Z</time>
      </trkpt>
      <trkpt lat="46.01604" lon="6.50832">
        <ele>1886</ele>
        <time>2018-01-28T11:14:05Z</time>
      </trkpt>
      <trkpt lat="46.01599" lon="6.50836">
        <ele>1869</ele>
        <time>2018-01-28T11:14:06Z</time>
      </trkpt>
      <trkpt lat="46.01595" lon="6.5084">
        <ele>1867</ele>
        <time>2018-01-28T11:14:07Z</time>
      </trkpt>
      <trkpt lat="46.01592" lon="6.50845">
        <ele>1867</ele>
        <time>2018-01-28T11:14:08Z</time>
      </trkpt>
      <trkpt lat="46.01589" lon="6.50849">
        <ele>1867</ele>
        <time>2018-01-28T11:14:09Z</time>
      </trkpt>
      <trkpt lat="46.0159" lon="6.50852">
        <ele>1868</ele>
        <time>2018-01-28T11:14:10Z</time>
      </trkpt>
      <trkpt lat="46.0159" lon="6.50858">
        <ele>1868</ele>
        <time>2018-01-28T11:14:12Z</time>
      </trkpt>
      <trkpt lat="46.01587" lon="6.50859">
        <ele>1868</ele>
        <time>2018-01-28T11:14:13Z</time>
      </trkpt>
      <trkpt lat="46.01584" lon="6.50859">
        <ele>1868</ele>
        <time>2018-01-28T11:14:14Z</time>
      </trkpt>
      <trkpt lat="46.01581" lon="6.50862">
        <ele>1831</ele>
        <time>2018-01-28T11:14:15Z</time>
      </trkpt>
      <trkpt lat="46.01579" lon="6.50866">
        <ele>1829</ele>
        <time>2018-01-28T11:14:16Z</time>
      </trkpt>
      <trkpt lat="46.01578" lon="6.50869">
        <ele>1827</ele>
        <time>2018-01-28T11:14:17Z</time>
      </trkpt>
      <trkpt lat="46.01579" lon="6.50872">
        <ele>1827</ele>
        <time>2018-01-28T11:14:18Z</time>
      </trkpt>
      <trkpt lat="46.01579" lon="6.50873">
        <ele>1827</ele>
        <time>2018-01-28T11:14:19Z</time>
      </trkpt>
      <trkpt lat="46.0158" lon="6.50874">
        <ele>1826</ele>
        <time>2018-01-28T11:14:20Z</time>
      </trkpt>
      <trkpt lat="46.01582" lon="6.50876">
        <ele>1826</ele>
        <time>2018-01-28T11:14:21Z</time>
      </trkpt>
      <trkpt lat="46.01583" lon="6.50878">
        <ele>1826</ele>
        <time>2018-01-28T11:14:22Z</time>
      </trkpt>
      <trkpt lat="46.01585" lon="6.5088">
        <ele>1865</ele>
        <time>2018-01-28T11:14:23Z</time>
      </trkpt>
      <trkpt lat="46.01601" lon="6.5091">
        <ele>1858</ele>
        <time>2018-01-28T11:14:33Z</time>
      </trkpt>
      <trkpt lat="46.01601" lon="6.50913">
        <ele>1857</ele>
        <time>2018-01-28T11:14:34Z</time>
      </trkpt>
      <trkpt lat="46.01599" lon="6.50914">
        <ele>1855</ele>
        <time>2018-01-28T11:14:35Z</time>
      </trkpt>
      <trkpt lat="46.01596" lon="6.50917">
        <ele>1840</ele>
        <time>2018-01-28T11:14:37Z</time>
      </trkpt>
      <trkpt lat="46.01595" lon="6.5092">
        <ele>1840</ele>
        <time>2018-01-28T11:14:38Z</time>
      </trkpt>
      <trkpt lat="46.01593" lon="6.50923">
        <ele>1839</ele>
        <time>2018-01-28T11:14:39Z</time>
      </trkpt>
      <trkpt lat="46.01593" lon="6.50925">
        <ele>1839</ele>
        <time>2018-01-28T11:14:40Z</time>
      </trkpt>
      <trkpt lat="46.01594" lon="6.5093">
        <ele>1840</ele>
        <time>2018-01-28T11:14:41Z</time>
      </trkpt>
      <trkpt lat="46.01594" lon="6.50934">
        <ele>1840</ele>
        <time>2018-01-28T11:14:42Z</time>
      </trkpt>
      <trkpt lat="46.01593" lon="6.50937">
        <ele>1840</ele>
        <time>2018-01-28T11:14:43Z</time>
      </trkpt>
      <trkpt lat="46.01591" lon="6.50939">
        <ele>1839</ele>
        <time>2018-01-28T11:14:44Z</time>
      </trkpt>
      <trkpt lat="46.01589" lon="6.50942">
        <ele>1839</ele>
        <time>2018-01-28T11:14:45Z</time>
      </trkpt>
      <trkpt lat="46.01586" lon="6.50947">
        <ele>1838</ele>
        <time>2018-01-28T11:14:46Z</time>
      </trkpt>
      <trkpt lat="46.01584" lon="6.50953">
        <ele>1836</ele>
        <time>2018-01-28T11:14:47Z</time>
      </trkpt>
      <trkpt lat="46.01582" lon="6.5096">
        <ele>1798</ele>
        <time>2018-01-28T11:14:48Z</time>
      </trkpt>
      <trkpt lat="46.01584" lon="6.50963">
        <ele>1833</ele>
        <time>2018-01-28T11:14:49Z</time>
      </trkpt>
      <trkpt lat="46.01586" lon="6.50967">
        <ele>1832</ele>
        <time>2018-01-28T11:14:50Z</time>
      </trkpt>
      <trkpt lat="46.01587" lon="6.50972">
        <ele>1830</ele>
        <time>2018-01-28T11:14:51Z</time>
      </trkpt>
      <trkpt lat="46.01587" lon="6.50976">
        <ele>1828</ele>
        <time>2018-01-28T11:14:52Z</time>
      </trkpt>
      <trkpt lat="46.0159" lon="6.50978">
        <ele>1826</ele>
        <time>2018-01-28T11:14:53Z</time>
      </trkpt>
      <trkpt lat="46.01592" lon="6.50981">
        <ele>1826</ele>
        <time>2018-01-28T11:14:54Z</time>
      </trkpt>
      <trkpt lat="46.01594" lon="6.50983">
        <ele>1825</ele>
        <time>2018-01-28T11:14:55Z</time>
      </trkpt>
      <trkpt lat="46.01596" lon="6.50987">
        <ele>1824</ele>
        <time>2018-01-28T11:14:56Z</time>
      </trkpt>
      <trkpt lat="46.01598" lon="6.50991">
        <ele>1823</ele>
        <time>2018-01-28T11:14:57Z</time>
      </trkpt>
      <trkpt lat="46.016" lon="6.50993">
        <ele>1823</ele>
        <time>2018-01-28T11:14:58Z</time>
      </trkpt>
      <trkpt lat="46.01601" lon="6.50996">
        <ele>1824</ele>
        <time>2018-01-28T11:14:59Z</time>
      </trkpt>
      <trkpt lat="46.01603" lon="6.50998">
        <ele>1825</ele>
        <time>2018-01-28T11:15:00Z</time>
      </trkpt>
      <trkpt lat="46.01604" lon="6.51001">
        <ele>1809</ele>
        <time>2018-01-28T11:15:04Z</time>
      </trkpt>
      <trkpt lat="46.01605" lon="6.51003">
        <ele>1809</ele>
        <time>2018-01-28T11:15:05Z</time>
      </trkpt>
      <trkpt lat="46.01617" lon="6.51027">
        <ele>1812</ele>
        <time>2018-01-28T11:15:11Z</time>
      </trkpt>
      <trkpt lat="46.01618" lon="6.51032">
        <ele>1811</ele>
        <time>2018-01-28T11:15:12Z</time>
      </trkpt>
      <trkpt lat="46.01616" lon="6.51037">
        <ele>1810</ele>
        <time>2018-01-28T11:15:13Z</time>
      </trkpt>
      <trkpt lat="46.01612" lon="6.51042">
        <ele>1807</ele>
        <time>2018-01-28T11:15:14Z</time>
      </trkpt>
      <trkpt lat="46.01605" lon="6.51053">
        <ele>1803</ele>
        <time>2018-01-28T11:15:16Z</time>
      </trkpt>
      <trkpt lat="46.01601" lon="6.51057">
        <ele>1800</ele>
        <time>2018-01-28T11:15:17Z</time>
      </trkpt>
      <trkpt lat="46.01597" lon="6.51061">
        <ele>1796</ele>
        <time>2018-01-28T11:15:18Z</time>
      </trkpt>
      <trkpt lat="46.01593" lon="6.51066">
        <ele>1792</ele>
        <time>2018-01-28T11:15:19Z</time>
      </trkpt>
      <trkpt lat="46.01592" lon="6.5107">
        <ele>1789</ele>
        <time>2018-01-28T11:15:20Z</time>
      </trkpt>
      <trkpt lat="46.01592" lon="6.51074">
        <ele>1786</ele>
        <time>2018-01-28T11:15:21Z</time>
      </trkpt>
      <trkpt lat="46.01593" lon="6.51076">
        <ele>1785</ele>
        <time>2018-01-28T11:15:22Z</time>
      </trkpt>
      <trkpt lat="46.01594" lon="6.51079">
        <ele>1785</ele>
        <time>2018-01-28T11:15:23Z</time>
      </trkpt>
      <trkpt lat="46.01602" lon="6.51095">
        <ele>1775</ele>
        <time>2018-01-28T11:15:27Z</time>
      </trkpt>
      <trkpt lat="46.01616" lon="6.51124">
        <ele>1775</ele>
        <time>2018-01-28T11:15:35Z</time>
      </trkpt>
      <trkpt lat="46.01625" lon="6.51145">
        <ele>1774</ele>
        <time>2018-01-28T11:15:41Z</time>
      </trkpt>
      <trkpt lat="46.01635" lon="6.5117">
        <ele>1756</ele>
        <time>2018-01-28T11:15:48Z</time>
      </trkpt>
      <trkpt lat="46.01636" lon="6.5117">
        <ele>1756</ele>
        <time>2018-01-28T11:15:49Z</time>
      </trkpt>
      <trkpt lat="46.01635" lon="6.51175">
        <ele>1755</ele>
        <time>2018-01-28T11:15:55Z</time>
      </trkpt>
      <trkpt lat="46.01633" lon="6.51179">
        <ele>1753</ele>
        <time>2018-01-28T11:15:56Z</time>
      </trkpt>
      <trkpt lat="46.01629" lon="6.51183">
        <ele>1751</ele>
        <time>2018-01-28T11:15:57Z</time>
      </trkpt>
      <trkpt lat="46.01626" lon="6.51188">
        <ele>1749</ele>
        <time>2018-01-28T11:15:58Z</time>
      </trkpt>
      <trkpt lat="46.01622" lon="6.51192">
        <ele>1746</ele>
        <time>2018-01-28T11:15:59Z</time>
      </trkpt>
      <trkpt lat="46.01618" lon="6.51196">
        <ele>1744</ele>
        <time>2018-01-28T11:16:00Z</time>
      </trkpt>
      <trkpt lat="46.01614" lon="6.512">
        <ele>1742</ele>
        <time>2018-01-28T11:16:01Z</time>
      </trkpt>
      <trkpt lat="46.0161" lon="6.51204">
        <ele>1741</ele>
        <time>2018-01-28T11:16:02Z</time>
      </trkpt>
      <trkpt lat="46.01607" lon="6.5121">
        <ele>1738</ele>
        <time>2018-01-28T11:16:03Z</time>
      </trkpt>
      <trkpt lat="46.01604" lon="6.51217">
        <ele>1736</ele>
        <time>2018-01-28T11:16:04Z</time>
      </trkpt>
      <trkpt lat="46.01603" lon="6.51223">
        <ele>1733</ele>
        <time>2018-01-28T11:16:05Z</time>
      </trkpt>
      <trkpt lat="46.01604" lon="6.51229">
        <ele>1732</ele>
        <time>2018-01-28T11:16:06Z</time>
      </trkpt>
      <trkpt lat="46.01606" lon="6.51233">
        <ele>1731</ele>
        <time>2018-01-28T11:16:07Z</time>
      </trkpt>
      <trkpt lat="46.01608" lon="6.51236">
        <ele>1731</ele>
        <time>2018-01-28T11:16:08Z</time>
      </trkpt>
      <trkpt lat="46.0161" lon="6.51239">
        <ele>1731</ele>
        <time>2018-01-28T11:16:09Z</time>
      </trkpt>
      <trkpt lat="46.01616" lon="6.51257">
        <ele>1715</ele>
        <time>2018-01-28T11:16:13Z</time>
      </trkpt>
      <trkpt lat="46.01613" lon="6.51261">
        <ele>1714</ele>
        <time>2018-01-28T11:16:14Z</time>
      </trkpt>
      <trkpt lat="46.0161" lon="6.51264">
        <ele>1712</ele>
        <time>2018-01-28T11:16:15Z</time>
      </trkpt>
      <trkpt lat="46.01608" lon="6.51267">
        <ele>1711</ele>
        <time>2018-01-28T11:16:16Z</time>
      </trkpt>
      <trkpt lat="46.01604" lon="6.51272">
        <ele>1710</ele>
        <time>2018-01-28T11:16:17Z</time>
      </trkpt>
      <trkpt lat="46.01604" lon="6.51276">
        <ele>1710</ele>
        <time>2018-01-28T11:16:18Z</time>
      </trkpt>
      <trkpt lat="46.01604" lon="6.51279">
        <ele>1710</ele>
        <time>2018-01-28T11:16:19Z</time>
      </trkpt>
      <trkpt lat="46.01605" lon="6.51281">
        <ele>1710</ele>
        <time>2018-01-28T11:16:20Z</time>
      </trkpt>
      <trkpt lat="46.01606" lon="6.51282">
        <ele>1710</ele>
        <time>2018-01-28T11:16:21Z</time>
      </trkpt>
      <trkpt lat="46.01608" lon="6.51284">
        <ele>1710</ele>
        <time>2018-01-28T11:16:23Z</time>
      </trkpt>
      <trkpt lat="46.01609" lon="6.51287">
        <ele>1710</ele>
        <time>2018-01-28T11:16:24Z</time>
      </trkpt>
      <trkpt lat="46.01608" lon="6.51289">
        <ele>1709</ele>
        <time>2018-01-28T11:16:25Z</time>
      </trkpt>
      <trkpt lat="46.01606" lon="6.51291">
        <ele>1708</ele>
        <time>2018-01-28T11:16:26Z</time>
      </trkpt>
      <trkpt lat="46.01605" lon="6.51293">
        <ele>1708</ele>
        <time>2018-01-28T11:16:27Z</time>
      </trkpt>
      <trkpt lat="46.01605" lon="6.51297">
        <ele>1707</ele>
        <time>2018-01-28T11:16:28Z</time>
      </trkpt>
      <trkpt lat="46.01604" lon="6.51301">
        <ele>1705</ele>
        <time>2018-01-28T11:16:29Z</time>
      </trkpt>
      <trkpt lat="46.01601" lon="6.51304">
        <ele>1704</ele>
        <time>2018-01-28T11:16:30Z</time>
      </trkpt>
      <trkpt lat="46.01595" lon="6.51311">
        <ele>1699</ele>
        <time>2018-01-28T11:16:32Z</time>
      </trkpt>
      <trkpt lat="46.01591" lon="6.51315">
        <ele>1695</ele>
        <time>2018-01-28T11:16:33Z</time>
      </trkpt>
      <trkpt lat="46.01589" lon="6.51318">
        <ele>1693</ele>
        <time>2018-01-28T11:16:34Z</time>
      </trkpt>
      <trkpt lat="46.01586" lon="6.51318">
        <ele>1692</ele>
        <time>2018-01-28T11:16:35Z</time>
      </trkpt>
      <trkpt lat="46.01585" lon="6.51316">
        <ele>1693</ele>
        <time>2018-01-28T11:16:36Z</time>
      </trkpt>
      <trkpt lat="46.01584" lon="6.51315">
        <ele>1694</ele>
        <time>2018-01-28T11:16:37Z</time>
      </trkpt>
      <trkpt lat="46.01583" lon="6.51313">
        <ele>1672</ele>
        <time>2018-01-28T11:16:39Z</time>
      </trkpt>
      <trkpt lat="46.01582" lon="6.51312">
        <ele>1672</ele>
        <time>2018-01-28T11:16:40Z</time>
      </trkpt>
      <trkpt lat="46.01581" lon="6.51311">
        <ele>1672</ele>
        <time>2018-01-28T11:16:42Z</time>
      </trkpt>
      <trkpt lat="46.01581" lon="6.51308">
        <ele>1672</ele>
        <time>2018-01-28T11:16:43Z</time>
      </trkpt>
      <trkpt lat="46.01579" lon="6.51305">
        <ele>1672</ele>
        <time>2018-01-28T11:16:44Z</time>
      </trkpt>
      <trkpt lat="46.01569" lon="6.51297">
        <ele>1672</ele>
        <time>2018-01-28T11:16:48Z</time>
      </trkpt>
      <trkpt lat="46.01567" lon="6.51298">
        <ele>1671</ele>
        <time>2018-01-28T11:16:49Z</time>
      </trkpt>
      <trkpt lat="46.01568" lon="6.51301">
        <ele>1671</ele>
        <time>2018-01-28T11:16:50Z</time>
      </trkpt>
      <trkpt lat="46.01572" lon="6.51315">
        <ele>1670</ele>
        <time>2018-01-28T11:16:54Z</time>
      </trkpt>
      <trkpt lat="46.01571" lon="6.51319">
        <ele>1670</ele>
        <time>2018-01-28T11:16:55Z</time>
      </trkpt>
      <trkpt lat="46.01569" lon="6.51321">
        <ele>1670</ele>
        <time>2018-01-28T11:16:56Z</time>
      </trkpt>
      <trkpt lat="46.01566" lon="6.51323">
        <ele>1669</ele>
        <time>2018-01-28T11:16:57Z</time>
      </trkpt>
      <trkpt lat="46.01564" lon="6.51326">
        <ele>1669</ele>
        <time>2018-01-28T11:16:58Z</time>
      </trkpt>
      <trkpt lat="46.01562" lon="6.5133">
        <ele>1668</ele>
        <time>2018-01-28T11:16:59Z</time>
      </trkpt>
      <trkpt lat="46.0156" lon="6.51334">
        <ele>1655</ele>
        <time>2018-01-28T11:17:00Z</time>
      </trkpt>
      <trkpt lat="46.0156" lon="6.5134">
        <ele>1654</ele>
        <time>2018-01-28T11:17:01Z</time>
      </trkpt>
      <trkpt lat="46.01558" lon="6.51344">
        <ele>1652</ele>
        <time>2018-01-28T11:17:02Z</time>
      </trkpt>
      <trkpt lat="46.01555" lon="6.51347">
        <ele>1651</ele>
        <time>2018-01-28T11:17:03Z</time>
      </trkpt>
      <trkpt lat="46.01554" lon="6.5135">
        <ele>1650</ele>
        <time>2018-01-28T11:17:04Z</time>
      </trkpt>
      <trkpt lat="46.01554" lon="6.51353">
        <ele>1649</ele>
        <time>2018-01-28T11:17:05Z</time>
      </trkpt>
      <trkpt lat="46.01554" lon="6.51356">
        <ele>1649</ele>
        <time>2018-01-28T11:17:06Z</time>
      </trkpt>
      <trkpt lat="46.01555" lon="6.51359">
        <ele>1649</ele>
        <time>2018-01-28T11:17:07Z</time>
      </trkpt>
      <trkpt lat="46.01556" lon="6.51363">
        <ele>1648</ele>
        <time>2018-01-28T11:17:08Z</time>
      </trkpt>
      <trkpt lat="46.01558" lon="6.51366">
        <ele>1648</ele>
        <time>2018-01-28T11:17:09Z</time>
      </trkpt>
      <trkpt lat="46.01558" lon="6.51369">
        <ele>1648</ele>
        <time>2018-01-28T11:17:13Z</time>
      </trkpt>
      <trkpt lat="46.01555" lon="6.51369">
        <ele>1647</ele>
        <time>2018-01-28T11:17:14Z</time>
      </trkpt>
      <trkpt lat="46.01551" lon="6.51368">
        <ele>1646</ele>
        <time>2018-01-28T11:17:15Z</time>
      </trkpt>
      <trkpt lat="46.01547" lon="6.51368">
        <ele>1645</ele>
        <time>2018-01-28T11:17:16Z</time>
      </trkpt>
      <trkpt lat="46.01545" lon="6.51372">
        <ele>1644</ele>
        <time>2018-01-28T11:17:17Z</time>
      </trkpt>
      <trkpt lat="46.01542" lon="6.51377">
        <ele>1643</ele>
        <time>2018-01-28T11:17:18Z</time>
      </trkpt>
      <trkpt lat="46.01538" lon="6.51381">
        <ele>1641</ele>
        <time>2018-01-28T11:17:19Z</time>
      </trkpt>
      <trkpt lat="46.01534" lon="6.51384">
        <ele>1640</ele>
        <time>2018-01-28T11:17:20Z</time>
      </trkpt>
      <trkpt lat="46.01531" lon="6.51389">
        <ele>1638</ele>
        <time>2018-01-28T11:17:21Z</time>
      </trkpt>
      <trkpt lat="46.01527" lon="6.51394">
        <ele>1636</ele>
        <time>2018-01-28T11:17:22Z</time>
      </trkpt>
      <trkpt lat="46.01523" lon="6.514">
        <ele>1633</ele>
        <time>2018-01-28T11:17:23Z</time>
      </trkpt>
      <trkpt lat="46.0152" lon="6.51411">
        <ele>1630</ele>
        <time>2018-01-28T11:17:24Z</time>
      </trkpt>
      <trkpt lat="46.0152" lon="6.51423">
        <ele>1620</ele>
        <time>2018-01-28T11:17:25Z</time>
      </trkpt>
      <trkpt lat="46.01521" lon="6.51436">
        <ele>1620</ele>
        <time>2018-01-28T11:17:26Z</time>
      </trkpt>
      <trkpt lat="46.01521" lon="6.51447">
        <ele>1620</ele>
        <time>2018-01-28T11:17:27Z</time>
      </trkpt>
      <trkpt lat="46.01515" lon="6.51456">
        <ele>1618</ele>
        <time>2018-01-28T11:17:28Z</time>
      </trkpt>
      <trkpt lat="46.01511" lon="6.51466">
        <ele>1616</ele>
        <time>2018-01-28T11:17:29Z</time>
      </trkpt>
      <trkpt lat="46.01508" lon="6.51475">
        <ele>1613</ele>
        <time>2018-01-28T11:17:30Z</time>
      </trkpt>
      <trkpt lat="46.01502" lon="6.51484">
        <ele>1609</ele>
        <time>2018-01-28T11:17:31Z</time>
      </trkpt>
      <trkpt lat="46.015" lon="6.51494">
        <ele>1602</ele>
        <time>2018-01-28T11:17:32Z</time>
      </trkpt>
      <trkpt lat="46.01502" lon="6.51505">
        <ele>1599</ele>
        <time>2018-01-28T11:17:33Z</time>
      </trkpt>
      <trkpt lat="46.01506" lon="6.51516">
        <ele>1601</ele>
        <time>2018-01-28T11:17:34Z</time>
      </trkpt>
      <trkpt lat="46.01511" lon="6.51525">
        <ele>1601</ele>
        <time>2018-01-28T11:17:35Z</time>
      </trkpt>
      <trkpt lat="46.01515" lon="6.51535">
        <ele>1601</ele>
        <time>2018-01-28T11:17:36Z</time>
      </trkpt>
      <trkpt lat="46.01515" lon="6.51547">
        <ele>1599</ele>
        <time>2018-01-28T11:17:37Z</time>
      </trkpt>
      <trkpt lat="46.01514" lon="6.5156">
        <ele>1596</ele>
        <time>2018-01-28T11:17:38Z</time>
      </trkpt>
      <trkpt lat="46.01515" lon="6.51574">
        <ele>1592</ele>
        <time>2018-01-28T11:17:39Z</time>
      </trkpt>
      <trkpt lat="46.01514" lon="6.51587">
        <ele>1582</ele>
        <time>2018-01-28T11:17:40Z</time>
      </trkpt>
      <trkpt lat="46.01512" lon="6.51601">
        <ele>1582</ele>
        <time>2018-01-28T11:17:41Z</time>
      </trkpt>
      <trkpt lat="46.01514" lon="6.51615">
        <ele>1583</ele>
        <time>2018-01-28T11:17:42Z</time>
      </trkpt>
      <trkpt lat="46.01516" lon="6.51628">
        <ele>1582</ele>
        <time>2018-01-28T11:17:43Z</time>
      </trkpt>
      <trkpt lat="46.01513" lon="6.51639">
        <ele>1579</ele>
        <time>2018-01-28T11:17:44Z</time>
      </trkpt>
      <trkpt lat="46.01512" lon="6.5165">
        <ele>1575</ele>
        <time>2018-01-28T11:17:45Z</time>
      </trkpt>
      <trkpt lat="46.01514" lon="6.51662">
        <ele>1572</ele>
        <time>2018-01-28T11:17:46Z</time>
      </trkpt>
      <trkpt lat="46.01518" lon="6.51673">
        <ele>1567</ele>
        <time>2018-01-28T11:17:47Z</time>
      </trkpt>
      <trkpt lat="46.0152" lon="6.51684">
        <ele>1568</ele>
        <time>2018-01-28T11:17:48Z</time>
      </trkpt>
      <trkpt lat="46.01519" lon="6.51696">
        <ele>1568</ele>
        <time>2018-01-28T11:17:49Z</time>
      </trkpt>
      <trkpt lat="46.01518" lon="6.51707">
        <ele>1567</ele>
        <time>2018-01-28T11:17:50Z</time>
      </trkpt>
      <trkpt lat="46.0152" lon="6.51719">
        <ele>1566</ele>
        <time>2018-01-28T11:17:51Z</time>
      </trkpt>
      <trkpt lat="46.01523" lon="6.51729">
        <ele>1566</ele>
        <time>2018-01-28T11:17:52Z</time>
      </trkpt>
      <trkpt lat="46.01528" lon="6.51738">
        <ele>1566</ele>
        <time>2018-01-28T11:17:53Z</time>
      </trkpt>
      <trkpt lat="46.01531" lon="6.51747">
        <ele>1566</ele>
        <time>2018-01-28T11:17:54Z</time>
      </trkpt>
      <trkpt lat="46.01531" lon="6.51756">
        <ele>1557</ele>
        <time>2018-01-28T11:17:55Z</time>
      </trkpt>
      <trkpt lat="46.0153" lon="6.51766">
        <ele>1556</ele>
        <time>2018-01-28T11:17:56Z</time>
      </trkpt>
      <trkpt lat="46.01532" lon="6.51775">
        <ele>1556</ele>
        <time>2018-01-28T11:17:57Z</time>
      </trkpt>
      <trkpt lat="46.01535" lon="6.51783">
        <ele>1556</ele>
        <time>2018-01-28T11:17:58Z</time>
      </trkpt>
      <trkpt lat="46.01539" lon="6.51791">
        <ele>1555</ele>
        <time>2018-01-28T11:17:59Z</time>
      </trkpt>
      <trkpt lat="46.01542" lon="6.51798">
        <ele>1555</ele>
        <time>2018-01-28T11:18:00Z</time>
      </trkpt>
      <trkpt lat="46.01545" lon="6.51805">
        <ele>1555</ele>
        <time>2018-01-28T11:18:01Z</time>
      </trkpt>
      <trkpt lat="46.01546" lon="6.51813">
        <ele>1554</ele>
        <time>2018-01-28T11:18:02Z</time>
      </trkpt>
      <trkpt lat="46.01546" lon="6.51823">
        <ele>1554</ele>
        <time>2018-01-28T11:18:03Z</time>
      </trkpt>
      <trkpt lat="46.01547" lon="6.51834">
        <ele>1543</ele>
        <time>2018-01-28T11:18:04Z</time>
      </trkpt>
      <trkpt lat="46.01549" lon="6.51844">
        <ele>1543</ele>
        <time>2018-01-28T11:18:05Z</time>
      </trkpt>
      <trkpt lat="46.01554" lon="6.51853">
        <ele>1543</ele>
        <time>2018-01-28T11:18:06Z</time>
      </trkpt>
      <trkpt lat="46.0156" lon="6.51862">
        <ele>1542</ele>
        <time>2018-01-28T11:18:07Z</time>
      </trkpt>
      <trkpt lat="46.01563" lon="6.51871">
        <ele>1542</ele>
        <time>2018-01-28T11:18:08Z</time>
      </trkpt>
      <trkpt lat="46.01566" lon="6.51882">
        <ele>1540</ele>
        <time>2018-01-28T11:18:09Z</time>
      </trkpt>
      <trkpt lat="46.01569" lon="6.51891">
        <ele>1540</ele>
        <time>2018-01-28T11:18:10Z</time>
      </trkpt>
      <trkpt lat="46.01574" lon="6.51896">
        <ele>1540</ele>
        <time>2018-01-28T11:18:11Z</time>
      </trkpt>
      <trkpt lat="46.01578" lon="6.51898">
        <ele>1540</ele>
        <time>2018-01-28T11:18:12Z</time>
      </trkpt>
      <trkpt lat="46.0158" lon="6.51899">
        <ele>1540</ele>
        <time>2018-01-28T11:18:13Z</time>
      </trkpt>
      <trkpt lat="46.0158" lon="6.51898">
        <ele>1540</ele>
        <time>2018-01-28T11:18:14Z</time>
      </trkpt>
      <trkpt lat="46.0158" lon="6.51898">
        <ele>1540</ele>
        <time>2018-01-28T11:18:15Z</time>
      </trkpt>
      <trkpt lat="46.0158" lon="6.51896">
        <ele>1540</ele>
        <time>2018-01-28T11:18:20Z</time>
      </trkpt>
      <trkpt lat="46.0158" lon="6.51895">
        <ele>1540</ele>
        <time>2018-01-28T11:18:27Z</time>
      </trkpt>
      <trkpt lat="46.0158" lon="6.51895">
        <ele>1540</ele>
        <time>2018-01-28T11:18:32Z</time>
      </trkpt>
      <trkpt lat="46.01581" lon="6.51895">
        <ele>1540</ele>
        <time>2018-01-28T11:18:37Z</time>
      </trkpt>
      <trkpt lat="46.01582" lon="6.51894">
        <ele>1540</ele>
        <time>2018-01-28T11:18:48Z</time>
      </trkpt>
      <trkpt lat="46.01582" lon="6.51895">
        <ele>1540</ele>
        <time>2018-01-28T11:18:49Z</time>
      </trkpt>
      <trkpt lat="46.01582" lon="6.51895">
        <ele>1540</ele>
        <time>2018-01-28T11:18:50Z</time>
      </trkpt>
      <trkpt lat="46.01582" lon="6.51895">
        <ele>1540</ele>
        <time>2018-01-28T11:18:52Z</time>
      </trkpt>
      <trkpt lat="46.01582" lon="6.51895">
        <ele>1540</ele>
        <time>2018-01-28T11:18:53Z</time>
      </trkpt>
      <trkpt lat="46.01582" lon="6.51896">
        <ele>1540</ele>
        <time>2018-01-28T11:18:58Z</time>
      </trkpt>
      <trkpt lat="46.01582" lon="6.51896">
        <ele>1540</ele>
        <time>2018-01-28T11:19:00Z</time>
      </trkpt>
      <trkpt lat="46.01583" lon="6.51895">
        <ele>1540</ele>
        <time>2018-01-28T11:19:07Z</time>
      </trkpt>
      <trkpt lat="46.01583" lon="6.51895">
        <ele>1540</ele>
        <time>2018-01-28T11:19:09Z</time>
      </trkpt>
      <trkpt lat="46.01582" lon="6.51895">
        <ele>1540</ele>
        <time>2018-01-28T11:19:12Z</time>
      </trkpt>
      <trkpt lat="46.01583" lon="6.51894">
        <ele>1540</ele>
        <time>2018-01-28T11:19:13Z</time>
      </trkpt>
      <trkpt lat="46.01583" lon="6.51894">
        <ele>1540</ele>
        <time>2018-01-28T11:19:16Z</time>
      </trkpt>
      <trkpt lat="46.01583" lon="6.51894">
        <ele>1540</ele>
        <time>2018-01-28T11:19:37Z</time>
      </trkpt>
      <trkpt lat="46.01581" lon="6.51893">
        <ele>1540</ele>
        <time>2018-01-28T11:19:57Z</time>
      </trkpt>
      <trkpt lat="46.01581" lon="6.51893">
        <ele>1540</ele>
        <time>2018-01-28T11:20:00Z</time>
      </trkpt>
      <trkpt lat="46.01582" lon="6.51893">
        <ele>1540</ele>
        <time>2018-01-28T11:20:06Z</time>
      </trkpt>
      <trkpt lat="46.01584" lon="6.51892">
        <ele>1557</ele>
        <time>2018-01-28T11:20:32Z</time>
      </trkpt>
      <trkpt lat="46.01584" lon="6.51892">
        <ele>1557</ele>
        <time>2018-01-28T11:20:34Z</time>
      </trkpt>
      <trkpt lat="46.01585" lon="6.51892">
        <ele>1557</ele>
        <time>2018-01-28T11:20:40Z</time>
      </trkpt>
      <trkpt lat="46.01585" lon="6.51892">
        <ele>1557</ele>
        <time>2018-01-28T11:20:45Z</time>
      </trkpt>
      <trkpt lat="46.01586" lon="6.51892">
        <ele>1557</ele>
        <time>2018-01-28T11:20:54Z</time>
      </trkpt>
      <trkpt lat="46.01587" lon="6.51892">
        <ele>1557</ele>
        <time>2018-01-28T11:20:56Z</time>
      </trkpt>
      <trkpt lat="46.01585" lon="6.51892">
        <ele>1557</ele>
        <time>2018-01-28T11:21:36Z</time>
      </trkpt>
      <trkpt lat="46.01584" lon="6.51892">
        <ele>1557</ele>
        <time>2018-01-28T11:21:43Z</time>
      </trkpt>
      <trkpt lat="46.01584" lon="6.51892">
        <ele>1557</ele>
        <time>2018-01-28T11:22:00Z</time>
      </trkpt>
      <trkpt lat="46.01586" lon="6.51893">
        <ele>1557</ele>
        <time>2018-01-28T11:22:21Z</time>
      </trkpt>
      <trkpt lat="46.01586" lon="6.51893">
        <ele>1557</ele>
        <time>2018-01-28T11:22:27Z</time>
      </trkpt>
      <trkpt lat="46.01586" lon="6.51893">
        <ele>1557</ele>
        <time>2018-01-28T11:22:31Z</time>
      </trkpt>
      <trkpt lat="46.01586" lon="6.51893">
        <ele>1556</ele>
        <time>2018-01-28T11:22:34Z</time>
      </trkpt>
      <trkpt lat="46.01587" lon="6.51894">
        <ele>1556</ele>
        <time>2018-01-28T11:22:38Z</time>
      </trkpt>
      <trkpt lat="46.01586" lon="6.51894">
        <ele>1556</ele>
        <time>2018-01-28T11:22:46Z</time>
      </trkpt>
      <trkpt lat="46.01585" lon="6.51895">
        <ele>1556</ele>
        <time>2018-01-28T11:23:04Z</time>
      </trkpt>
      <trkpt lat="46.01586" lon="6.51895">
        <ele>1556</ele>
        <time>2018-01-28T11:23:08Z</time>
      </trkpt>
      <trkpt lat="46.01586" lon="6.51896">
        <ele>1555</ele>
        <time>2018-01-28T11:23:09Z</time>
      </trkpt>
      <trkpt lat="46.01586" lon="6.51895">
        <ele>1556</ele>
        <time>2018-01-28T11:23:26Z</time>
      </trkpt>
      <trkpt lat="46.01585" lon="6.51896">
        <ele>1555</ele>
        <time>2018-01-28T11:23:32Z</time>
      </trkpt>
      <trkpt lat="46.01586" lon="6.51896">
        <ele>1555</ele>
        <time>2018-01-28T11:23:40Z</time>
      </trkpt>
      <trkpt lat="46.01587" lon="6.51896">
        <ele>1556</ele>
        <time>2018-01-28T11:23:56Z</time>
      </trkpt>
      <trkpt lat="46.01587" lon="6.51896">
        <ele>1555</ele>
        <time>2018-01-28T11:24:15Z</time>
      </trkpt>
      <trkpt lat="46.01587" lon="6.51896">
        <ele>1556</ele>
        <time>2018-01-28T11:24:17Z</time>
      </trkpt>
      <trkpt lat="46.01587" lon="6.51895">
        <ele>1556</ele>
        <time>2018-01-28T11:24:22Z</time>
      </trkpt>
      <trkpt lat="46.01588" lon="6.51894">
        <ele>1557</ele>
        <time>2018-01-28T11:24:31Z</time>
      </trkpt>
      <trkpt lat="46.01588" lon="6.51893">
        <ele>1557</ele>
        <time>2018-01-28T11:24:40Z</time>
      </trkpt>
      <trkpt lat="46.01588" lon="6.51894">
        <ele>1557</ele>
        <time>2018-01-28T11:24:45Z</time>
      </trkpt>
      <trkpt lat="46.01589" lon="6.51893">
        <ele>1557</ele>
        <time>2018-01-28T11:24:54Z</time>
      </trkpt>
      <trkpt lat="46.01589" lon="6.51893">
        <ele>1557</ele>
        <time>2018-01-28T11:25:00Z</time>
      </trkpt>
      <trkpt lat="46.01589" lon="6.51893">
        <ele>1557</ele>
        <time>2018-01-28T11:25:04Z</time>
      </trkpt>
      <trkpt lat="46.01589" lon="6.51893">
        <ele>1557</ele>
        <time>2018-01-28T11:25:06Z</time>
      </trkpt>
      <trkpt lat="46.01593" lon="6.51891">
        <ele>1558</ele>
        <time>2018-01-28T11:25:12Z</time>
      </trkpt>
      <trkpt lat="46.01594" lon="6.51891">
        <ele>1559</ele>
        <time>2018-01-28T11:25:13Z</time>
      </trkpt>
      <trkpt lat="46.01595" lon="6.51891">
        <ele>1559</ele>
        <time>2018-01-28T11:25:15Z</time>
      </trkpt>
      <trkpt lat="46.01595" lon="6.51891">
        <ele>1559</ele>
        <time>2018-01-28T11:25:16Z</time>
      </trkpt>
      <trkpt lat="46.01595" lon="6.51891">
        <ele>1559</ele>
        <time>2018-01-28T11:25:17Z</time>
      </trkpt>
      <trkpt lat="46.01596" lon="6.5189">
        <ele>1559</ele>
        <time>2018-01-28T11:25:21Z</time>
      </trkpt>
      <trkpt lat="46.01595" lon="6.5189">
        <ele>1559</ele>
        <time>2018-01-28T11:25:24Z</time>
      </trkpt>
      <trkpt lat="46.01597" lon="6.5189">
        <ele>1560</ele>
        <time>2018-01-28T11:25:27Z</time>
      </trkpt>
      <trkpt lat="46.016" lon="6.5189">
        <ele>1560</ele>
        <time>2018-01-28T11:25:30Z</time>
      </trkpt>
      <trkpt lat="46.0161" lon="6.51889">
        <ele>1563</ele>
        <time>2018-01-28T11:25:42Z</time>
      </trkpt>
      <trkpt lat="46.01611" lon="6.51889">
        <ele>1563</ele>
        <time>2018-01-28T11:25:43Z</time>
      </trkpt>
      <trkpt lat="46.01612" lon="6.51889">
        <ele>1564</ele>
        <time>2018-01-28T11:25:44Z</time>
      </trkpt>
      <trkpt lat="46.01615" lon="6.5189">
        <ele>1564</ele>
        <time>2018-01-28T11:25:48Z</time>
      </trkpt>
      <trkpt lat="46.01618" lon="6.51891">
        <ele>1565</ele>
        <time>2018-01-28T11:25:51Z</time>
      </trkpt>
      <trkpt lat="46.01619" lon="6.51892">
        <ele>1565</ele>
        <time>2018-01-28T11:25:52Z</time>
      </trkpt>
      <trkpt lat="46.0162" lon="6.51892">
        <ele>1565</ele>
        <time>2018-01-28T11:25:53Z</time>
      </trkpt>
      <trkpt lat="46.01621" lon="6.51893">
        <ele>1566</ele>
        <time>2018-01-28T11:25:54Z</time>
      </trkpt>
      <trkpt lat="46.01622" lon="6.51894">
        <ele>1566</ele>
        <time>2018-01-28T11:25:55Z</time>
      </trkpt>
      <trkpt lat="46.01624" lon="6.51895">
        <ele>1566</ele>
        <time>2018-01-28T11:25:56Z</time>
      </trkpt>
      <trkpt lat="46.01628" lon="6.51896">
        <ele>1567</ele>
        <time>2018-01-28T11:26:00Z</time>
      </trkpt>
      <trkpt lat="46.01629" lon="6.51896">
        <ele>1567</ele>
        <time>2018-01-28T11:26:01Z</time>
      </trkpt>
      <trkpt lat="46.01631" lon="6.51897">
        <ele>1568</ele>
        <time>2018-01-28T11:26:02Z</time>
      </trkpt>
      <trkpt lat="46.01632" lon="6.51897">
        <ele>1568</ele>
        <time>2018-01-28T11:26:03Z</time>
      </trkpt>
      <trkpt lat="46.01632" lon="6.51897">
        <ele>1568</ele>
        <time>2018-01-28T11:26:04Z</time>
      </trkpt>
      <trkpt lat="46.01633" lon="6.51897">
        <ele>1568</ele>
        <time>2018-01-28T11:26:05Z</time>
      </trkpt>
      <trkpt lat="46.01644" lon="6.51904">
        <ele>1571</ele>
        <time>2018-01-28T11:26:18Z</time>
      </trkpt>
      <trkpt lat="46.01653" lon="6.51908">
        <ele>1573</ele>
        <time>2018-01-28T11:26:27Z</time>
      </trkpt>
      <trkpt lat="46.01654" lon="6.51908">
        <ele>1573</ele>
        <time>2018-01-28T11:26:28Z</time>
      </trkpt>
      <trkpt lat="46.01655" lon="6.51909">
        <ele>1573</ele>
        <time>2018-01-28T11:26:29Z</time>
      </trkpt>
      <trkpt lat="46.01656" lon="6.5191">
        <ele>1574</ele>
        <time>2018-01-28T11:26:30Z</time>
      </trkpt>
      <trkpt lat="46.01657" lon="6.51911">
        <ele>1574</ele>
        <time>2018-01-28T11:26:31Z</time>
      </trkpt>
      <trkpt lat="46.01658" lon="6.51912">
        <ele>1574</ele>
        <time>2018-01-28T11:26:32Z</time>
      </trkpt>
      <trkpt lat="46.01659" lon="6.51914">
        <ele>1575</ele>
        <time>2018-01-28T11:26:33Z</time>
      </trkpt>
      <trkpt lat="46.0166" lon="6.51915">
        <ele>1575</ele>
        <time>2018-01-28T11:26:34Z</time>
      </trkpt>
      <trkpt lat="46.01661" lon="6.51916">
        <ele>1575</ele>
        <time>2018-01-28T11:26:35Z</time>
      </trkpt>
      <trkpt lat="46.01664" lon="6.51919">
        <ele>1574</ele>
        <time>2018-01-28T11:26:37Z</time>
      </trkpt>
      <trkpt lat="46.01665" lon="6.5192">
        <ele>1573</ele>
        <time>2018-01-28T11:26:39Z</time>
      </trkpt>
      <trkpt lat="46.01666" lon="6.51922">
        <ele>1572</ele>
        <time>2018-01-28T11:26:40Z</time>
      </trkpt>
      <trkpt lat="46.01671" lon="6.51931">
        <ele>1582</ele>
        <time>2018-01-28T11:26:49Z</time>
      </trkpt>
      <trkpt lat="46.01676" lon="6.51939">
        <ele>1584</ele>
        <time>2018-01-28T11:26:55Z</time>
      </trkpt>
      <trkpt lat="46.01687" lon="6.51955">
        <ele>1585</ele>
        <time>2018-01-28T11:27:09Z</time>
      </trkpt>
      <trkpt lat="46.01688" lon="6.51955">
        <ele>1585</ele>
        <time>2018-01-28T11:27:10Z</time>
      </trkpt>
      <trkpt lat="46.0169" lon="6.51957">
        <ele>1585</ele>
        <time>2018-01-28T11:27:13Z</time>
      </trkpt>
      <trkpt lat="46.01691" lon="6.51958">
        <ele>1585</ele>
        <time>2018-01-28T11:27:14Z</time>
      </trkpt>
      <trkpt lat="46.01693" lon="6.51961">
        <ele>1585</ele>
        <time>2018-01-28T11:27:17Z</time>
      </trkpt>
      <trkpt lat="46.01694" lon="6.51963">
        <ele>1586</ele>
        <time>2018-01-28T11:27:18Z</time>
      </trkpt>
      <trkpt lat="46.01695" lon="6.51965">
        <ele>1585</ele>
        <time>2018-01-28T11:27:20Z</time>
      </trkpt>
      <trkpt lat="46.01695" lon="6.51966">
        <ele>1585</ele>
        <time>2018-01-28T11:27:21Z</time>
      </trkpt>
      <trkpt lat="46.01696" lon="6.51968">
        <ele>1585</ele>
        <time>2018-01-28T11:27:23Z</time>
      </trkpt>
      <trkpt lat="46.01697" lon="6.51971">
        <ele>1585</ele>
        <time>2018-01-28T11:27:25Z</time>
      </trkpt>
      <trkpt lat="46.01701" lon="6.51977">
        <ele>1586</ele>
        <time>2018-01-28T11:27:31Z</time>
      </trkpt>
      <trkpt lat="46.01709" lon="6.51991">
        <ele>1587</ele>
        <time>2018-01-28T11:27:42Z</time>
      </trkpt>
      <trkpt lat="46.01711" lon="6.51998">
        <ele>1587</ele>
        <time>2018-01-28T11:27:54Z</time>
      </trkpt>
      <trkpt lat="46.01716" lon="6.52002">
        <ele>1578</ele>
        <time>2018-01-28T11:28:02Z</time>
      </trkpt>
      <trkpt lat="46.01722" lon="6.52008">
        <ele>1581</ele>
        <time>2018-01-28T11:28:11Z</time>
      </trkpt>
      <trkpt lat="46.01723" lon="6.52012">
        <ele>1581</ele>
        <time>2018-01-28T11:28:16Z</time>
      </trkpt>
      <trkpt lat="46.01727" lon="6.52019">
        <ele>1581</ele>
        <time>2018-01-28T11:28:21Z</time>
      </trkpt>
      <trkpt lat="46.01729" lon="6.52028">
        <ele>1580</ele>
        <time>2018-01-28T11:28:27Z</time>
      </trkpt>
      <trkpt lat="46.01733" lon="6.52033">
        <ele>1579</ele>
        <time>2018-01-28T11:28:32Z</time>
      </trkpt>
      <trkpt lat="46.01744" lon="6.52054">
        <ele>1578</ele>
        <time>2018-01-28T11:28:50Z</time>
      </trkpt>
      <trkpt lat="46.01744" lon="6.52055">
        <ele>1578</ele>
        <time>2018-01-28T11:28:51Z</time>
      </trkpt>
      <trkpt lat="46.01744" lon="6.52057">
        <ele>1578</ele>
        <time>2018-01-28T11:28:52Z</time>
      </trkpt>
      <trkpt lat="46.01745" lon="6.52058">
        <ele>1578</ele>
        <time>2018-01-28T11:28:53Z</time>
      </trkpt>
      <trkpt lat="46.01745" lon="6.52059">
        <ele>1578</ele>
        <time>2018-01-28T11:28:54Z</time>
      </trkpt>
      <trkpt lat="46.01749" lon="6.52073">
        <ele>1580</ele>
        <time>2018-01-28T11:29:02Z</time>
      </trkpt>
      <trkpt lat="46.0175" lon="6.52075">
        <ele>1580</ele>
        <time>2018-01-28T11:29:03Z</time>
      </trkpt>
      <trkpt lat="46.01751" lon="6.52077">
        <ele>1591</ele>
        <time>2018-01-28T11:29:04Z</time>
      </trkpt>
      <trkpt lat="46.01751" lon="6.52079">
        <ele>1589</ele>
        <time>2018-01-28T11:29:05Z</time>
      </trkpt>
      <trkpt lat="46.01752" lon="6.5208">
        <ele>1589</ele>
        <time>2018-01-28T11:29:06Z</time>
      </trkpt>
      <trkpt lat="46.01754" lon="6.5208">
        <ele>1589</ele>
        <time>2018-01-28T11:29:07Z</time>
      </trkpt>
      <trkpt lat="46.01755" lon="6.52082">
        <ele>1590</ele>
        <time>2018-01-28T11:29:08Z</time>
      </trkpt>
      <trkpt lat="46.01769" lon="6.52101">
        <ele>1595</ele>
        <time>2018-01-28T11:29:21Z</time>
      </trkpt>
      <trkpt lat="46.01776" lon="6.52112">
        <ele>1598</ele>
        <time>2018-01-28T11:29:29Z</time>
      </trkpt>
      <trkpt lat="46.01775" lon="6.52115">
        <ele>1598</ele>
        <time>2018-01-28T11:29:31Z</time>
      </trkpt>
      <trkpt lat="46.01776" lon="6.52116">
        <ele>1598</ele>
        <time>2018-01-28T11:29:32Z</time>
      </trkpt>
      <trkpt lat="46.01779" lon="6.5212">
        <ele>1599</ele>
        <time>2018-01-28T11:29:36Z</time>
      </trkpt>
      <trkpt lat="46.0178" lon="6.52121">
        <ele>1599</ele>
        <time>2018-01-28T11:29:37Z</time>
      </trkpt>
      <trkpt lat="46.01781" lon="6.52123">
        <ele>1599</ele>
        <time>2018-01-28T11:29:38Z</time>
      </trkpt>
      <trkpt lat="46.01782" lon="6.52125">
        <ele>1599</ele>
        <time>2018-01-28T11:29:39Z</time>
      </trkpt>
      <trkpt lat="46.01782" lon="6.52127">
        <ele>1599</ele>
        <time>2018-01-28T11:29:40Z</time>
      </trkpt>
      <trkpt lat="46.01783" lon="6.52129">
        <ele>1599</ele>
        <time>2018-01-28T11:29:41Z</time>
      </trkpt>
      <trkpt lat="46.01784" lon="6.5213">
        <ele>1599</ele>
        <time>2018-01-28T11:29:42Z</time>
      </trkpt>
      <trkpt lat="46.01784" lon="6.52133">
        <ele>1599</ele>
        <time>2018-01-28T11:29:43Z</time>
      </trkpt>
      <trkpt lat="46.01785" lon="6.52135">
        <ele>1599</ele>
        <time>2018-01-28T11:29:44Z</time>
      </trkpt>
      <trkpt lat="46.01786" lon="6.52136">
        <ele>1599</ele>
        <time>2018-01-28T11:29:45Z</time>
      </trkpt>
      <trkpt lat="46.01787" lon="6.52138">
        <ele>1599</ele>
        <time>2018-01-28T11:29:46Z</time>
      </trkpt>
      <trkpt lat="46.01788" lon="6.52142">
        <ele>1599</ele>
        <time>2018-01-28T11:29:48Z</time>
      </trkpt>
      <trkpt lat="46.01788" lon="6.52143">
        <ele>1599</ele>
        <time>2018-01-28T11:29:49Z</time>
      </trkpt>
      <trkpt lat="46.01789" lon="6.52144">
        <ele>1599</ele>
        <time>2018-01-28T11:29:50Z</time>
      </trkpt>
      <trkpt lat="46.01793" lon="6.52152">
        <ele>1601</ele>
        <time>2018-01-28T11:29:57Z</time>
      </trkpt>
      <trkpt lat="46.01794" lon="6.52153">
        <ele>1601</ele>
        <time>2018-01-28T11:29:58Z</time>
      </trkpt>
      <trkpt lat="46.01795" lon="6.52154">
        <ele>1601</ele>
        <time>2018-01-28T11:29:59Z</time>
      </trkpt>
      <trkpt lat="46.01796" lon="6.52159">
        <ele>1601</ele>
        <time>2018-01-28T11:30:02Z</time>
      </trkpt>
      <trkpt lat="46.01797" lon="6.52161">
        <ele>1602</ele>
        <time>2018-01-28T11:30:03Z</time>
      </trkpt>
      <trkpt lat="46.01798" lon="6.52164">
        <ele>1602</ele>
        <time>2018-01-28T11:30:05Z</time>
      </trkpt>
      <trkpt lat="46.01798" lon="6.52165">
        <ele>1602</ele>
        <time>2018-01-28T11:30:06Z</time>
      </trkpt>
      <trkpt lat="46.018" lon="6.52169">
        <ele>1591</ele>
        <time>2018-01-28T11:30:11Z</time>
      </trkpt>
      <trkpt lat="46.01801" lon="6.52171">
        <ele>1591</ele>
        <time>2018-01-28T11:30:12Z</time>
      </trkpt>
      <trkpt lat="46.01802" lon="6.52172">
        <ele>1592</ele>
        <time>2018-01-28T11:30:13Z</time>
      </trkpt>
      <trkpt lat="46.01803" lon="6.52173">
        <ele>1592</ele>
        <time>2018-01-28T11:30:14Z</time>
      </trkpt>
      <trkpt lat="46.01805" lon="6.52175">
        <ele>1593</ele>
        <time>2018-01-28T11:30:15Z</time>
      </trkpt>
      <trkpt lat="46.01809" lon="6.52184">
        <ele>1593</ele>
        <time>2018-01-28T11:30:22Z</time>
      </trkpt>
      <trkpt lat="46.01809" lon="6.52186">
        <ele>1592</ele>
        <time>2018-01-28T11:30:24Z</time>
      </trkpt>
      <trkpt lat="46.01811" lon="6.52189">
        <ele>1592</ele>
        <time>2018-01-28T11:30:27Z</time>
      </trkpt>
      <trkpt lat="46.01813" lon="6.52192">
        <ele>1592</ele>
        <time>2018-01-28T11:30:31Z</time>
      </trkpt>
      <trkpt lat="46.01816" lon="6.52195">
        <ele>1592</ele>
        <time>2018-01-28T11:30:34Z</time>
      </trkpt>
      <trkpt lat="46.01821" lon="6.52204">
        <ele>1591</ele>
        <time>2018-01-28T11:30:40Z</time>
      </trkpt>
      <trkpt lat="46.01824" lon="6.52208">
        <ele>1591</ele>
        <time>2018-01-28T11:30:43Z</time>
      </trkpt>
      <trkpt lat="46.01834" lon="6.52229">
        <ele>1613</ele>
        <time>2018-01-28T11:30:56Z</time>
      </trkpt>
      <trkpt lat="46.01835" lon="6.52232">
        <ele>1611</ele>
        <time>2018-01-28T11:31:03Z</time>
      </trkpt>
      <trkpt lat="46.01836" lon="6.52233">
        <ele>1611</ele>
        <time>2018-01-28T11:31:06Z</time>
      </trkpt>
      <trkpt lat="46.01844" lon="6.5224">
        <ele>1610</ele>
        <time>2018-01-28T11:31:20Z</time>
      </trkpt>
      <trkpt lat="46.01844" lon="6.52231">
        <ele>1614</ele>
        <time>2018-01-28T11:31:34Z</time>
      </trkpt>
      <trkpt lat="46.01843" lon="6.52226">
        <ele>1616</ele>
        <time>2018-01-28T11:31:39Z</time>
      </trkpt>
      <trkpt lat="46.01842" lon="6.52209">
        <ele>1621</ele>
        <time>2018-01-28T11:31:53Z</time>
      </trkpt>
      <trkpt lat="46.01839" lon="6.52195">
        <ele>1622</ele>
        <time>2018-01-28T11:32:12Z</time>
      </trkpt>
      <trkpt lat="46.01844" lon="6.52198">
        <ele>1623</ele>
        <time>2018-01-28T11:32:18Z</time>
      </trkpt>
      <trkpt lat="46.01847" lon="6.52199">
        <ele>1623</ele>
        <time>2018-01-28T11:32:26Z</time>
      </trkpt>
      <trkpt lat="46.01846" lon="6.52192">
        <ele>1624</ele>
        <time>2018-01-28T11:32:34Z</time>
      </trkpt>
      <trkpt lat="46.01845" lon="6.52182">
        <ele>1623</ele>
        <time>2018-01-28T11:32:47Z</time>
      </trkpt>
      <trkpt lat="46.01844" lon="6.5217">
        <ele>1623</ele>
        <time>2018-01-28T11:33:01Z</time>
      </trkpt>
      <trkpt lat="46.01848" lon="6.52162">
        <ele>1633</ele>
        <time>2018-01-28T11:33:17Z</time>
      </trkpt>
      <trkpt lat="46.01852" lon="6.52157">
        <ele>1636</ele>
        <time>2018-01-28T11:33:33Z</time>
      </trkpt>
      <trkpt lat="46.01851" lon="6.52149">
        <ele>1638</ele>
        <time>2018-01-28T11:33:43Z</time>
      </trkpt>
      <trkpt lat="46.01844" lon="6.52123">
        <ele>1643</ele>
        <time>2018-01-28T11:34:07Z</time>
      </trkpt>
      <trkpt lat="46.01835" lon="6.52096">
        <ele>1641</ele>
        <time>2018-01-28T11:34:29Z</time>
      </trkpt>
      <trkpt lat="46.0183" lon="6.52078">
        <ele>1632</ele>
        <time>2018-01-28T11:34:44Z</time>
      </trkpt>
      <trkpt lat="46.01827" lon="6.52066">
        <ele>1627</ele>
        <time>2018-01-28T11:34:59Z</time>
      </trkpt>
      <trkpt lat="46.01827" lon="6.52064">
        <ele>1626</ele>
        <time>2018-01-28T11:35:01Z</time>
      </trkpt>
      <trkpt lat="46.01825" lon="6.52055">
        <ele>1625</ele>
        <time>2018-01-28T11:35:10Z</time>
      </trkpt>
      <trkpt lat="46.01823" lon="6.52042">
        <ele>1625</ele>
        <time>2018-01-28T11:35:23Z</time>
      </trkpt>
      <trkpt lat="46.01824" lon="6.52038">
        <ele>1626</ele>
        <time>2018-01-28T11:35:29Z</time>
      </trkpt>
      <trkpt lat="46.01824" lon="6.52034">
        <ele>1626</ele>
        <time>2018-01-28T11:35:36Z</time>
      </trkpt>
      <trkpt lat="46.01823" lon="6.5203">
        <ele>1627</ele>
        <time>2018-01-28T11:35:39Z</time>
      </trkpt>
      <trkpt lat="46.01823" lon="6.52026">
        <ele>1628</ele>
        <time>2018-01-28T11:35:46Z</time>
      </trkpt>
      <trkpt lat="46.01827" lon="6.52027">
        <ele>1628</ele>
        <time>2018-01-28T11:36:06Z</time>
      </trkpt>
      <trkpt lat="46.01827" lon="6.52023">
        <ele>1630</ele>
        <time>2018-01-28T11:36:20Z</time>
      </trkpt>
      <trkpt lat="46.01828" lon="6.52019">
        <ele>1632</ele>
        <time>2018-01-28T11:36:49Z</time>
      </trkpt>
      <trkpt lat="46.0183" lon="6.52013">
        <ele>1635</ele>
        <time>2018-01-28T11:37:17Z</time>
      </trkpt>
      <trkpt lat="46.0183" lon="6.52011">
        <ele>1636</ele>
        <time>2018-01-28T11:37:22Z</time>
      </trkpt>
      <trkpt lat="46.01834" lon="6.52006">
        <ele>1650</ele>
        <time>2018-01-28T11:37:30Z</time>
      </trkpt>
      <trkpt lat="46.0184" lon="6.52001">
        <ele>1650</ele>
        <time>2018-01-28T11:37:37Z</time>
      </trkpt>
      <trkpt lat="46.01856" lon="6.51981">
        <ele>1663</ele>
        <time>2018-01-28T11:37:59Z</time>
      </trkpt>
      <trkpt lat="46.01855" lon="6.51979">
        <ele>1664</ele>
        <time>2018-01-28T11:38:00Z</time>
      </trkpt>
      <trkpt lat="46.01855" lon="6.51977">
        <ele>1664</ele>
        <time>2018-01-28T11:38:01Z</time>
      </trkpt>
      <trkpt lat="46.0185" lon="6.51961">
        <ele>1665</ele>
        <time>2018-01-28T11:38:11Z</time>
      </trkpt>
      <trkpt lat="46.01844" lon="6.51944">
        <ele>1664</ele>
        <time>2018-01-28T11:38:21Z</time>
      </trkpt>
      <trkpt lat="46.0184" lon="6.51926">
        <ele>1662</ele>
        <time>2018-01-28T11:38:37Z</time>
      </trkpt>
      <trkpt lat="46.01839" lon="6.51924">
        <ele>1661</ele>
        <time>2018-01-28T11:38:39Z</time>
      </trkpt>
      <trkpt lat="46.01839" lon="6.51922">
        <ele>1660</ele>
        <time>2018-01-28T11:38:40Z</time>
      </trkpt>
      <trkpt lat="46.01833" lon="6.51911">
        <ele>1655</ele>
        <time>2018-01-28T11:38:51Z</time>
      </trkpt>
      <trkpt lat="46.01833" lon="6.5191">
        <ele>1654</ele>
        <time>2018-01-28T11:38:52Z</time>
      </trkpt>
      <trkpt lat="46.01832" lon="6.51908">
        <ele>1653</ele>
        <time>2018-01-28T11:38:54Z</time>
      </trkpt>
      <trkpt lat="46.01832" lon="6.51903">
        <ele>1652</ele>
        <time>2018-01-28T11:38:58Z</time>
      </trkpt>
      <trkpt lat="46.01831" lon="6.519">
        <ele>1652</ele>
        <time>2018-01-28T11:39:00Z</time>
      </trkpt>
      <trkpt lat="46.01833" lon="6.51883">
        <ele>1651</ele>
        <time>2018-01-28T11:39:16Z</time>
      </trkpt>
      <trkpt lat="46.01835" lon="6.51869">
        <ele>1671</ele>
        <time>2018-01-28T11:39:28Z</time>
      </trkpt>
      <trkpt lat="46.01836" lon="6.51861">
        <ele>1671</ele>
        <time>2018-01-28T11:39:35Z</time>
      </trkpt>
      <trkpt lat="46.01832" lon="6.51841">
        <ele>1660</ele>
        <time>2018-01-28T11:39:51Z</time>
      </trkpt>
      <trkpt lat="46.0183" lon="6.51833">
        <ele>1665</ele>
        <time>2018-01-28T11:39:59Z</time>
      </trkpt>
      <trkpt lat="46.01835" lon="6.51826">
        <ele>1671</ele>
        <time>2018-01-28T11:40:10Z</time>
      </trkpt>
      <trkpt lat="46.01836" lon="6.51826">
        <ele>1671</ele>
        <time>2018-01-28T11:40:11Z</time>
      </trkpt>
      <trkpt lat="46.01838" lon="6.51825">
        <ele>1672</ele>
        <time>2018-01-28T11:40:13Z</time>
      </trkpt>
      <trkpt lat="46.01839" lon="6.51825">
        <ele>1672</ele>
        <time>2018-01-28T11:40:15Z</time>
      </trkpt>
      <trkpt lat="46.0184" lon="6.51825">
        <ele>1673</ele>
        <time>2018-01-28T11:40:16Z</time>
      </trkpt>
      <trkpt lat="46.01845" lon="6.51823">
        <ele>1675</ele>
        <time>2018-01-28T11:40:23Z</time>
      </trkpt>
      <trkpt lat="46.0185" lon="6.51816">
        <ele>1678</ele>
        <time>2018-01-28T11:40:30Z</time>
      </trkpt>
      <trkpt lat="46.0185" lon="6.51815">
        <ele>1679</ele>
        <time>2018-01-28T11:40:31Z</time>
      </trkpt>
      <trkpt lat="46.01854" lon="6.5181">
        <ele>1681</ele>
        <time>2018-01-28T11:40:37Z</time>
      </trkpt>
      <trkpt lat="46.01855" lon="6.51805">
        <ele>1682</ele>
        <time>2018-01-28T11:40:42Z</time>
      </trkpt>
      <trkpt lat="46.01855" lon="6.51803">
        <ele>1682</ele>
        <time>2018-01-28T11:40:43Z</time>
      </trkpt>
      <trkpt lat="46.01863" lon="6.51781">
        <ele>1685</ele>
        <time>2018-01-28T11:41:01Z</time>
      </trkpt>
      <trkpt lat="46.01866" lon="6.51765">
        <ele>1686</ele>
        <time>2018-01-28T11:41:14Z</time>
      </trkpt>
      <trkpt lat="46.01871" lon="6.51759">
        <ele>1687</ele>
        <time>2018-01-28T11:41:23Z</time>
      </trkpt>
      <trkpt lat="46.01872" lon="6.51759">
        <ele>1687</ele>
        <time>2018-01-28T11:41:24Z</time>
      </trkpt>
      <trkpt lat="46.01878" lon="6.51752">
        <ele>1689</ele>
        <time>2018-01-28T11:41:32Z</time>
      </trkpt>
      <trkpt lat="46.01878" lon="6.51751">
        <ele>1689</ele>
        <time>2018-01-28T11:41:33Z</time>
      </trkpt>
      <trkpt lat="46.01878" lon="6.5175">
        <ele>1697</ele>
        <time>2018-01-28T11:41:34Z</time>
      </trkpt>
      <trkpt lat="46.01886" lon="6.51729">
        <ele>1699</ele>
        <time>2018-01-28T11:41:51Z</time>
      </trkpt>
      <trkpt lat="46.01889" lon="6.5172">
        <ele>1700</ele>
        <time>2018-01-28T11:41:58Z</time>
      </trkpt>
      <trkpt lat="46.01892" lon="6.51711">
        <ele>1701</ele>
        <time>2018-01-28T11:42:08Z</time>
      </trkpt>
      <trkpt lat="46.01893" lon="6.51708">
        <ele>1701</ele>
        <time>2018-01-28T11:42:10Z</time>
      </trkpt>
      <trkpt lat="46.01893" lon="6.51707">
        <ele>1702</ele>
        <time>2018-01-28T11:42:11Z</time>
      </trkpt>
      <trkpt lat="46.01899" lon="6.51693">
        <ele>1704</ele>
        <time>2018-01-28T11:42:25Z</time>
      </trkpt>
      <trkpt lat="46.019" lon="6.51681">
        <ele>1706</ele>
        <time>2018-01-28T11:42:36Z</time>
      </trkpt>
      <trkpt lat="46.019" lon="6.5168">
        <ele>1707</ele>
        <time>2018-01-28T11:42:37Z</time>
      </trkpt>
      <trkpt lat="46.019" lon="6.51679">
        <ele>1707</ele>
        <time>2018-01-28T11:42:38Z</time>
      </trkpt>
      <trkpt lat="46.019" lon="6.51677">
        <ele>1707</ele>
        <time>2018-01-28T11:42:39Z</time>
      </trkpt>
      <trkpt lat="46.01898" lon="6.51666">
        <ele>1716</ele>
        <time>2018-01-28T11:42:49Z</time>
      </trkpt>
      <trkpt lat="46.01899" lon="6.51664">
        <ele>1716</ele>
        <time>2018-01-28T11:42:51Z</time>
      </trkpt>
      <trkpt lat="46.01899" lon="6.51654">
        <ele>1716</ele>
        <time>2018-01-28T11:43:02Z</time>
      </trkpt>
      <trkpt lat="46.01898" lon="6.51651">
        <ele>1716</ele>
        <time>2018-01-28T11:43:04Z</time>
      </trkpt>
      <trkpt lat="46.01896" lon="6.51639">
        <ele>1717</ele>
        <time>2018-01-28T11:43:17Z</time>
      </trkpt>
      <trkpt lat="46.01896" lon="6.51629">
        <ele>1718</ele>
        <time>2018-01-28T11:43:27Z</time>
      </trkpt>
      <trkpt lat="46.01895" lon="6.51627">
        <ele>1719</ele>
        <time>2018-01-28T11:43:29Z</time>
      </trkpt>
      <trkpt lat="46.01896" lon="6.51626">
        <ele>1719</ele>
        <time>2018-01-28T11:43:30Z</time>
      </trkpt>
      <trkpt lat="46.01895" lon="6.51625">
        <ele>1719</ele>
        <time>2018-01-28T11:43:31Z</time>
      </trkpt>
      <trkpt lat="46.01894" lon="6.51616">
        <ele>1720</ele>
        <time>2018-01-28T11:43:39Z</time>
      </trkpt>
      <trkpt lat="46.01891" lon="6.51605">
        <ele>1721</ele>
        <time>2018-01-28T11:43:52Z</time>
      </trkpt>
      <trkpt lat="46.01891" lon="6.51603">
        <ele>1722</ele>
        <time>2018-01-28T11:43:54Z</time>
      </trkpt>
      <trkpt lat="46.0189" lon="6.51596">
        <ele>1723</ele>
        <time>2018-01-28T11:44:02Z</time>
      </trkpt>
      <trkpt lat="46.0189" lon="6.51593">
        <ele>1723</ele>
        <time>2018-01-28T11:44:04Z</time>
      </trkpt>
      <trkpt lat="46.01889" lon="6.51591">
        <ele>1723</ele>
        <time>2018-01-28T11:44:07Z</time>
      </trkpt>
      <trkpt lat="46.01884" lon="6.51578">
        <ele>1737</ele>
        <time>2018-01-28T11:44:20Z</time>
      </trkpt>
      <trkpt lat="46.01883" lon="6.51574">
        <ele>1737</ele>
        <time>2018-01-28T11:44:23Z</time>
      </trkpt>
      <trkpt lat="46.01883" lon="6.51572">
        <ele>1737</ele>
        <time>2018-01-28T11:44:25Z</time>
      </trkpt>
      <trkpt lat="46.0189" lon="6.51571">
        <ele>1738</ele>
        <time>2018-01-28T11:44:40Z</time>
      </trkpt>
      <trkpt lat="46.01895" lon="6.51569">
        <ele>1738</ele>
        <time>2018-01-28T11:44:48Z</time>
      </trkpt>
      <trkpt lat="46.01896" lon="6.51568">
        <ele>1739</ele>
        <time>2018-01-28T11:44:50Z</time>
      </trkpt>
      <trkpt lat="46.01896" lon="6.51558">
        <ele>1740</ele>
        <time>2018-01-28T11:45:01Z</time>
      </trkpt>
      <trkpt lat="46.01896" lon="6.51554">
        <ele>1741</ele>
        <time>2018-01-28T11:45:05Z</time>
      </trkpt>
      <trkpt lat="46.01894" lon="6.51542">
        <ele>1743</ele>
        <time>2018-01-28T11:45:17Z</time>
      </trkpt>
      <trkpt lat="46.01894" lon="6.5154">
        <ele>1743</ele>
        <time>2018-01-28T11:45:19Z</time>
      </trkpt>
      <trkpt lat="46.01894" lon="6.51539">
        <ele>1743</ele>
        <time>2018-01-28T11:45:20Z</time>
      </trkpt>
      <trkpt lat="46.01893" lon="6.51535">
        <ele>1744</ele>
        <time>2018-01-28T11:45:24Z</time>
      </trkpt>
      <trkpt lat="46.0189" lon="6.51531">
        <ele>1745</ele>
        <time>2018-01-28T11:45:29Z</time>
      </trkpt>
      <trkpt lat="46.01889" lon="6.51529">
        <ele>1745</ele>
        <time>2018-01-28T11:45:31Z</time>
      </trkpt>
      <trkpt lat="46.01884" lon="6.51522">
        <ele>1746</ele>
        <time>2018-01-28T11:45:40Z</time>
      </trkpt>
      <trkpt lat="46.01884" lon="6.5152">
        <ele>1746</ele>
        <time>2018-01-28T11:45:42Z</time>
      </trkpt>
      <trkpt lat="46.01882" lon="6.51511">
        <ele>1747</ele>
        <time>2018-01-28T11:45:51Z</time>
      </trkpt>
      <trkpt lat="46.01883" lon="6.5151">
        <ele>1747</ele>
        <time>2018-01-28T11:45:53Z</time>
      </trkpt>
      <trkpt lat="46.01892" lon="6.51503">
        <ele>1750</ele>
        <time>2018-01-28T11:46:08Z</time>
      </trkpt>
      <trkpt lat="46.01902" lon="6.51498">
        <ele>1765</ele>
        <time>2018-01-28T11:46:22Z</time>
      </trkpt>
      <trkpt lat="46.01912" lon="6.51496">
        <ele>1765</ele>
        <time>2018-01-28T11:46:36Z</time>
      </trkpt>
      <trkpt lat="46.01918" lon="6.51495">
        <ele>1769</ele>
        <time>2018-01-28T11:46:46Z</time>
      </trkpt>
      <trkpt lat="46.01919" lon="6.51495">
        <ele>1769</ele>
        <time>2018-01-28T11:46:47Z</time>
      </trkpt>
      <trkpt lat="46.01919" lon="6.51495">
        <ele>1769</ele>
        <time>2018-01-28T11:46:48Z</time>
      </trkpt>
      <trkpt lat="46.01925" lon="6.51496">
        <ele>1772</ele>
        <time>2018-01-28T11:47:01Z</time>
      </trkpt>
      <trkpt lat="46.01925" lon="6.51486">
        <ele>1776</ele>
        <time>2018-01-28T11:47:12Z</time>
      </trkpt>
      <trkpt lat="46.01923" lon="6.51476">
        <ele>1780</ele>
        <time>2018-01-28T11:47:22Z</time>
      </trkpt>
      <trkpt lat="46.01923" lon="6.5147">
        <ele>1782</ele>
        <time>2018-01-28T11:47:28Z</time>
      </trkpt>
      <trkpt lat="46.01924" lon="6.51459">
        <ele>1785</ele>
        <time>2018-01-28T11:47:39Z</time>
      </trkpt>
      <trkpt lat="46.01924" lon="6.51455">
        <ele>1785</ele>
        <time>2018-01-28T11:47:43Z</time>
      </trkpt>
      <trkpt lat="46.01923" lon="6.51451">
        <ele>1786</ele>
        <time>2018-01-28T11:47:47Z</time>
      </trkpt>
      <trkpt lat="46.01923" lon="6.51444">
        <ele>1786</ele>
        <time>2018-01-28T11:47:54Z</time>
      </trkpt>
      <trkpt lat="46.01923" lon="6.51443">
        <ele>1786</ele>
        <time>2018-01-28T11:47:56Z</time>
      </trkpt>
      <trkpt lat="46.01923" lon="6.51439">
        <ele>1786</ele>
        <time>2018-01-28T11:48:00Z</time>
      </trkpt>
      <trkpt lat="46.01923" lon="6.51428">
        <ele>1786</ele>
        <time>2018-01-28T11:48:11Z</time>
      </trkpt>
      <trkpt lat="46.01923" lon="6.51426">
        <ele>1786</ele>
        <time>2018-01-28T11:48:13Z</time>
      </trkpt>
      <trkpt lat="46.01929" lon="6.51423">
        <ele>1787</ele>
        <time>2018-01-28T11:48:28Z</time>
      </trkpt>
      <trkpt lat="46.01937" lon="6.51422">
        <ele>1788</ele>
        <time>2018-01-28T11:48:40Z</time>
      </trkpt>
      <trkpt lat="46.01944" lon="6.51423">
        <ele>1790</ele>
        <time>2018-01-28T11:48:51Z</time>
      </trkpt>
      <trkpt lat="46.01942" lon="6.51415">
        <ele>1801</ele>
        <time>2018-01-28T11:49:01Z</time>
      </trkpt>
      <trkpt lat="46.01941" lon="6.51409">
        <ele>1801</ele>
        <time>2018-01-28T11:49:08Z</time>
      </trkpt>
      <trkpt lat="46.01939" lon="6.514">
        <ele>1803</ele>
        <time>2018-01-28T11:49:18Z</time>
      </trkpt>
      <trkpt lat="46.01938" lon="6.51399">
        <ele>1803</ele>
        <time>2018-01-28T11:49:20Z</time>
      </trkpt>
      <trkpt lat="46.01935" lon="6.5139">
        <ele>1804</ele>
        <time>2018-01-28T11:49:30Z</time>
      </trkpt>
      <trkpt lat="46.01932" lon="6.51381">
        <ele>1806</ele>
        <time>2018-01-28T11:49:41Z</time>
      </trkpt>
      <trkpt lat="46.01937" lon="6.51375">
        <ele>1808</ele>
        <time>2018-01-28T11:49:58Z</time>
      </trkpt>
      <trkpt lat="46.0195" lon="6.51379">
        <ele>1809</ele>
        <time>2018-01-28T11:50:13Z</time>
      </trkpt>
      <trkpt lat="46.01959" lon="6.51381">
        <ele>1810</ele>
        <time>2018-01-28T11:50:27Z</time>
      </trkpt>
      <trkpt lat="46.01969" lon="6.51385">
        <ele>1812</ele>
        <time>2018-01-28T11:50:42Z</time>
      </trkpt>
      <trkpt lat="46.01977" lon="6.5139">
        <ele>1812</ele>
        <time>2018-01-28T11:50:56Z</time>
      </trkpt>
      <trkpt lat="46.01984" lon="6.51392">
        <ele>1813</ele>
        <time>2018-01-28T11:51:07Z</time>
      </trkpt>
      <trkpt lat="46.01991" lon="6.51393">
        <ele>1813</ele>
        <time>2018-01-28T11:51:22Z</time>
      </trkpt>
      <trkpt lat="46.01991" lon="6.51386">
        <ele>1814</ele>
        <time>2018-01-28T11:51:31Z</time>
      </trkpt>
      <trkpt lat="46.01992" lon="6.51376">
        <ele>1816</ele>
        <time>2018-01-28T11:51:41Z</time>
      </trkpt>
      <trkpt lat="46.01991" lon="6.51371">
        <ele>1817</ele>
        <time>2018-01-28T11:51:45Z</time>
      </trkpt>
      <trkpt lat="46.0199" lon="6.51358">
        <ele>1820</ele>
        <time>2018-01-28T11:51:58Z</time>
      </trkpt>
      <trkpt lat="46.01989" lon="6.51356">
        <ele>1821</ele>
        <time>2018-01-28T11:52:00Z</time>
      </trkpt>
      <trkpt lat="46.01987" lon="6.51345">
        <ele>1824</ele>
        <time>2018-01-28T11:52:14Z</time>
      </trkpt>
      <trkpt lat="46.01986" lon="6.51342">
        <ele>1825</ele>
        <time>2018-01-28T11:52:17Z</time>
      </trkpt>
      <trkpt lat="46.01986" lon="6.5134">
        <ele>1825</ele>
        <time>2018-01-28T11:52:19Z</time>
      </trkpt>
      <trkpt lat="46.01985" lon="6.51338">
        <ele>1825</ele>
        <time>2018-01-28T11:52:21Z</time>
      </trkpt>
      <trkpt lat="46.01984" lon="6.51335">
        <ele>1825</ele>
        <time>2018-01-28T11:52:25Z</time>
      </trkpt>
      <trkpt lat="46.01983" lon="6.51326">
        <ele>1845</ele>
        <time>2018-01-28T11:52:36Z</time>
      </trkpt>
      <trkpt lat="46.01982" lon="6.51321">
        <ele>1846</ele>
        <time>2018-01-28T11:52:42Z</time>
      </trkpt>
      <trkpt lat="46.01981" lon="6.5132">
        <ele>1847</ele>
        <time>2018-01-28T11:52:44Z</time>
      </trkpt>
      <trkpt lat="46.01979" lon="6.51309">
        <ele>1850</ele>
        <time>2018-01-28T11:52:57Z</time>
      </trkpt>
      <trkpt lat="46.01978" lon="6.51307">
        <ele>1851</ele>
        <time>2018-01-28T11:52:59Z</time>
      </trkpt>
      <trkpt lat="46.01976" lon="6.51294">
        <ele>1856</ele>
        <time>2018-01-28T11:53:14Z</time>
      </trkpt>
      <trkpt lat="46.01975" lon="6.51293">
        <ele>1856</ele>
        <time>2018-01-28T11:53:15Z</time>
      </trkpt>
      <trkpt lat="46.01975" lon="6.51292">
        <ele>1857</ele>
        <time>2018-01-28T11:53:17Z</time>
      </trkpt>
      <trkpt lat="46.01973" lon="6.51282">
        <ele>1861</ele>
        <time>2018-01-28T11:53:30Z</time>
      </trkpt>
      <trkpt lat="46.01978" lon="6.51279">
        <ele>1864</ele>
        <time>2018-01-28T11:53:41Z</time>
      </trkpt>
      <trkpt lat="46.01987" lon="6.51274">
        <ele>1869</ele>
        <time>2018-01-28T11:53:56Z</time>
      </trkpt>
      <trkpt lat="46.01985" lon="6.51266">
        <ele>1874</ele>
        <time>2018-01-28T11:54:06Z</time>
      </trkpt>
      <trkpt lat="46.01984" lon="6.51264">
        <ele>1875</ele>
        <time>2018-01-28T11:54:08Z</time>
      </trkpt>
      <trkpt lat="46.01983" lon="6.51261">
        <ele>1876</ele>
        <time>2018-01-28T11:54:12Z</time>
      </trkpt>
      <trkpt lat="46.01983" lon="6.5126">
        <ele>1876</ele>
        <time>2018-01-28T11:54:13Z</time>
      </trkpt>
      <trkpt lat="46.0198" lon="6.51253">
        <ele>1876</ele>
        <time>2018-01-28T11:54:21Z</time>
      </trkpt>
      <trkpt lat="46.01979" lon="6.5125">
        <ele>1876</ele>
        <time>2018-01-28T11:54:23Z</time>
      </trkpt>
      <trkpt lat="46.01979" lon="6.51248">
        <ele>1902</ele>
        <time>2018-01-28T11:54:25Z</time>
      </trkpt>
      <trkpt lat="46.01979" lon="6.51246">
        <ele>1902</ele>
        <time>2018-01-28T11:54:27Z</time>
      </trkpt>
      <trkpt lat="46.0198" lon="6.51236">
        <ele>1903</ele>
        <time>2018-01-28T11:54:38Z</time>
      </trkpt>
      <trkpt lat="46.01984" lon="6.51227">
        <ele>1905</ele>
        <time>2018-01-28T11:54:51Z</time>
      </trkpt>
      <trkpt lat="46.01985" lon="6.51226">
        <ele>1905</ele>
        <time>2018-01-28T11:54:52Z</time>
      </trkpt>
      <trkpt lat="46.01987" lon="6.51222">
        <ele>1906</ele>
        <time>2018-01-28T11:54:58Z</time>
      </trkpt>
      <trkpt lat="46.01989" lon="6.51221">
        <ele>1907</ele>
        <time>2018-01-28T11:55:00Z</time>
      </trkpt>
      <trkpt lat="46.01992" lon="6.51212">
        <ele>1909</ele>
        <time>2018-01-28T11:55:11Z</time>
      </trkpt>
      <trkpt lat="46.01992" lon="6.5121">
        <ele>1910</ele>
        <time>2018-01-28T11:55:12Z</time>
      </trkpt>
      <trkpt lat="46.01992" lon="6.51209">
        <ele>1910</ele>
        <time>2018-01-28T11:55:13Z</time>
      </trkpt>
      <trkpt lat="46.01994" lon="6.51208">
        <ele>1910</ele>
        <time>2018-01-28T11:55:15Z</time>
      </trkpt>
      <trkpt lat="46.01997" lon="6.51203">
        <ele>1912</ele>
        <time>2018-01-28T11:55:23Z</time>
      </trkpt>
      <trkpt lat="46.01996" lon="6.51202">
        <ele>1913</ele>
        <time>2018-01-28T11:55:31Z</time>
      </trkpt>
      <trkpt lat="46.01994" lon="6.51201">
        <ele>1913</ele>
        <time>2018-01-28T11:55:39Z</time>
      </trkpt>
      <trkpt lat="46.01999" lon="6.512">
        <ele>1914</ele>
        <time>2018-01-28T11:55:49Z</time>
      </trkpt>
      <trkpt lat="46.01999" lon="6.512">
        <ele>1914</ele>
        <time>2018-01-28T11:55:56Z</time>
      </trkpt>
      <trkpt lat="46.01998" lon="6.51201">
        <ele>1913</ele>
        <time>2018-01-28T11:56:04Z</time>
      </trkpt>
      <trkpt lat="46.01998" lon="6.51201">
        <ele>1913</ele>
        <time>2018-01-28T11:56:07Z</time>
      </trkpt>
      <trkpt lat="46.01997" lon="6.51201">
        <ele>1913</ele>
        <time>2018-01-28T11:56:15Z</time>
      </trkpt>
      <trkpt lat="46.01996" lon="6.51201">
        <ele>1913</ele>
        <time>2018-01-28T11:56:16Z</time>
      </trkpt>
      <trkpt lat="46.01994" lon="6.512">
        <ele>1913</ele>
        <time>2018-01-28T11:56:18Z</time>
      </trkpt>
      <trkpt lat="46.01994" lon="6.51199">
        <ele>1913</ele>
        <time>2018-01-28T11:56:21Z</time>
      </trkpt>
      <trkpt lat="46.01994" lon="6.512">
        <ele>1913</ele>
        <time>2018-01-28T11:56:29Z</time>
      </trkpt>
      <trkpt lat="46.01995" lon="6.51199">
        <ele>1914</ele>
        <time>2018-01-28T11:57:23Z</time>
      </trkpt>
      <trkpt lat="46.01997" lon="6.51199">
        <ele>1914</ele>
        <time>2018-01-28T11:57:25Z</time>
      </trkpt>
      <trkpt lat="46.01995" lon="6.51196">
        <ele>1915</ele>
        <time>2018-01-28T11:57:44Z</time>
      </trkpt>
      <trkpt lat="46.02" lon="6.51194">
        <ele>1941</ele>
        <time>2018-01-28T11:58:08Z</time>
      </trkpt>
      <trkpt lat="46.02007" lon="6.51185">
        <ele>1942</ele>
        <time>2018-01-28T11:58:21Z</time>
      </trkpt>
      <trkpt lat="46.02007" lon="6.51183">
        <ele>1942</ele>
        <time>2018-01-28T11:58:23Z</time>
      </trkpt>
      <trkpt lat="46.02008" lon="6.5118">
        <ele>1941</ele>
        <time>2018-01-28T11:58:26Z</time>
      </trkpt>
      <trkpt lat="46.02008" lon="6.51178">
        <ele>1941</ele>
        <time>2018-01-28T11:58:28Z</time>
      </trkpt>
      <trkpt lat="46.02008" lon="6.51176">
        <ele>1941</ele>
        <time>2018-01-28T11:58:30Z</time>
      </trkpt>
      <trkpt lat="46.02009" lon="6.51173">
        <ele>1940</ele>
        <time>2018-01-28T11:58:33Z</time>
      </trkpt>
      <trkpt lat="46.0201" lon="6.5117">
        <ele>1940</ele>
        <time>2018-01-28T11:58:37Z</time>
      </trkpt>
      <trkpt lat="46.02011" lon="6.51166">
        <ele>1950</ele>
        <time>2018-01-28T11:58:41Z</time>
      </trkpt>
      <trkpt lat="46.02014" lon="6.51165">
        <ele>1953</ele>
        <time>2018-01-28T11:58:46Z</time>
      </trkpt>
      <trkpt lat="46.02022" lon="6.51163">
        <ele>1959</ele>
        <time>2018-01-28T11:58:55Z</time>
      </trkpt>
      <trkpt lat="46.02029" lon="6.51159">
        <ele>1965</ele>
        <time>2018-01-28T11:59:07Z</time>
      </trkpt>
      <trkpt lat="46.0203" lon="6.51156">
        <ele>1965</ele>
        <time>2018-01-28T11:59:10Z</time>
      </trkpt>
      <trkpt lat="46.02034" lon="6.51145">
        <ele>1969</ele>
        <time>2018-01-28T11:59:24Z</time>
      </trkpt>
      <trkpt lat="46.02036" lon="6.51142">
        <ele>1971</ele>
        <time>2018-01-28T11:59:29Z</time>
      </trkpt>
      <trkpt lat="46.02042" lon="6.51131">
        <ele>1974</ele>
        <time>2018-01-28T11:59:42Z</time>
      </trkpt>
      <trkpt lat="46.02044" lon="6.51125">
        <ele>1975</ele>
        <time>2018-01-28T11:59:48Z</time>
      </trkpt>
      <trkpt lat="46.02045" lon="6.51123">
        <ele>1976</ele>
        <time>2018-01-28T11:59:50Z</time>
      </trkpt>
      <trkpt lat="46.02049" lon="6.51113">
        <ele>1978</ele>
        <time>2018-01-28T12:00:03Z</time>
      </trkpt>
      <trkpt lat="46.02049" lon="6.51111">
        <ele>1978</ele>
        <time>2018-01-28T12:00:05Z</time>
      </trkpt>
      <trkpt lat="46.02049" lon="6.51107">
        <ele>1979</ele>
        <time>2018-01-28T12:00:09Z</time>
      </trkpt>
      <trkpt lat="46.02049" lon="6.51105">
        <ele>1979</ele>
        <time>2018-01-28T12:00:11Z</time>
      </trkpt>
      <trkpt lat="46.02049" lon="6.51103">
        <ele>1979</ele>
        <time>2018-01-28T12:00:13Z</time>
      </trkpt>
      <trkpt lat="46.02057" lon="6.51098">
        <ele>1982</ele>
        <time>2018-01-28T12:00:26Z</time>
      </trkpt>
      <trkpt lat="46.02058" lon="6.51098">
        <ele>1983</ele>
        <time>2018-01-28T12:00:27Z</time>
      </trkpt>
      <trkpt lat="46.02069" lon="6.51099">
        <ele>1986</ele>
        <time>2018-01-28T12:00:41Z</time>
      </trkpt>
      <trkpt lat="46.02079" lon="6.51101">
        <ele>1988</ele>
        <time>2018-01-28T12:00:54Z</time>
      </trkpt>
      <trkpt lat="46.02082" lon="6.51102">
        <ele>1988</ele>
        <time>2018-01-28T12:00:57Z</time>
      </trkpt>
      <trkpt lat="46.0209" lon="6.51106">
        <ele>2002</ele>
        <time>2018-01-28T12:01:10Z</time>
      </trkpt>
      <trkpt lat="46.02092" lon="6.51101">
        <ele>2002</ele>
        <time>2018-01-28T12:01:21Z</time>
      </trkpt>
      <trkpt lat="46.02091" lon="6.51088">
        <ele>2001</ele>
        <time>2018-01-28T12:01:34Z</time>
      </trkpt>
      <trkpt lat="46.02091" lon="6.51083">
        <ele>2000</ele>
        <time>2018-01-28T12:01:38Z</time>
      </trkpt>
      <trkpt lat="46.02092" lon="6.51071">
        <ele>2000</ele>
        <time>2018-01-28T12:01:49Z</time>
      </trkpt>
      <trkpt lat="46.02095" lon="6.51061">
        <ele>2000</ele>
        <time>2018-01-28T12:02:01Z</time>
      </trkpt>
      <trkpt lat="46.02096" lon="6.51056">
        <ele>2000</ele>
        <time>2018-01-28T12:02:06Z</time>
      </trkpt>
      <trkpt lat="46.02097" lon="6.51055">
        <ele>2000</ele>
        <time>2018-01-28T12:02:08Z</time>
      </trkpt>
      <trkpt lat="46.02097" lon="6.51048">
        <ele>2000</ele>
        <time>2018-01-28T12:02:16Z</time>
      </trkpt>
      <trkpt lat="46.02106" lon="6.51044">
        <ele>2000</ele>
        <time>2018-01-28T12:02:30Z</time>
      </trkpt>
      <trkpt lat="46.02112" lon="6.51043">
        <ele>2000</ele>
        <time>2018-01-28T12:02:37Z</time>
      </trkpt>
      <trkpt lat="46.02121" lon="6.51045">
        <ele>1999</ele>
        <time>2018-01-28T12:02:50Z</time>
      </trkpt>
      <trkpt lat="46.02127" lon="6.51044">
        <ele>1999</ele>
        <time>2018-01-28T12:03:01Z</time>
      </trkpt>
      <trkpt lat="46.02127" lon="6.51036">
        <ele>1999</ele>
        <time>2018-01-28T12:03:10Z</time>
      </trkpt>
      <trkpt lat="46.02127" lon="6.51031">
        <ele>1999</ele>
        <time>2018-01-28T12:03:14Z</time>
      </trkpt>
      <trkpt lat="46.02127" lon="6.51017">
        <ele>1999</ele>
        <time>2018-01-28T12:03:28Z</time>
      </trkpt>
      <trkpt lat="46.02131" lon="6.51016">
        <ele>1998</ele>
        <time>2018-01-28T12:03:43Z</time>
      </trkpt>
      <trkpt lat="46.02141" lon="6.51022">
        <ele>1997</ele>
        <time>2018-01-28T12:03:58Z</time>
      </trkpt>
      <trkpt lat="46.02142" lon="6.51014">
        <ele>1997</ele>
        <time>2018-01-28T12:04:08Z</time>
      </trkpt>
      <trkpt lat="46.02142" lon="6.51012">
        <ele>1997</ele>
        <time>2018-01-28T12:04:10Z</time>
      </trkpt>
      <trkpt lat="46.02142" lon="6.51003">
        <ele>1996</ele>
        <time>2018-01-28T12:04:22Z</time>
      </trkpt>
      <trkpt lat="46.02142" lon="6.50999">
        <ele>1996</ele>
        <time>2018-01-28T12:04:26Z</time>
      </trkpt>
      <trkpt lat="46.02142" lon="6.50996">
        <ele>1996</ele>
        <time>2018-01-28T12:04:28Z</time>
      </trkpt>
      <trkpt lat="46.02139" lon="6.50983">
        <ele>1997</ele>
        <time>2018-01-28T12:04:39Z</time>
      </trkpt>
      <trkpt lat="46.02143" lon="6.50986">
        <ele>1996</ele>
        <time>2018-01-28T12:04:46Z</time>
      </trkpt>
      <trkpt lat="46.02145" lon="6.50986">
        <ele>1996</ele>
        <time>2018-01-28T12:04:49Z</time>
      </trkpt>
      <trkpt lat="46.02156" lon="6.50996">
        <ele>1993</ele>
        <time>2018-01-28T12:05:05Z</time>
      </trkpt>
      <trkpt lat="46.02161" lon="6.51">
        <ele>1991</ele>
        <time>2018-01-28T12:05:18Z</time>
      </trkpt>
      <trkpt lat="46.02167" lon="6.51002">
        <ele>1990</ele>
        <time>2018-01-28T12:05:37Z</time>
      </trkpt>
      <trkpt lat="46.0217" lon="6.50998">
        <ele>1989</ele>
        <time>2018-01-28T12:05:56Z</time>
      </trkpt>
      <trkpt lat="46.02176" lon="6.51004">
        <ele>1994</ele>
        <time>2018-01-28T12:06:09Z</time>
      </trkpt>
      <trkpt lat="46.0218" lon="6.51009">
        <ele>1996</ele>
        <time>2018-01-28T12:06:24Z</time>
      </trkpt>
      <trkpt lat="46.02184" lon="6.51017">
        <ele>1999</ele>
        <time>2018-01-28T12:06:38Z</time>
      </trkpt>
      <trkpt lat="46.02184" lon="6.5102">
        <ele>1999</ele>
        <time>2018-01-28T12:06:56Z</time>
      </trkpt>
      <trkpt lat="46.02183" lon="6.5102">
        <ele>1999</ele>
        <time>2018-01-28T12:07:05Z</time>
      </trkpt>
      <trkpt lat="46.02183" lon="6.5102">
        <ele>1999</ele>
        <time>2018-01-28T12:07:12Z</time>
      </trkpt>
      <trkpt lat="46.02182" lon="6.51019">
        <ele>1999</ele>
        <time>2018-01-28T12:07:15Z</time>
      </trkpt>
      <trkpt lat="46.02182" lon="6.51019">
        <ele>1999</ele>
        <time>2018-01-28T12:07:17Z</time>
      </trkpt>
      <trkpt lat="46.02185" lon="6.5102">
        <ele>1999</ele>
        <time>2018-01-28T12:07:30Z</time>
      </trkpt>
      <trkpt lat="46.02186" lon="6.51024">
        <ele>2000</ele>
        <time>2018-01-28T12:07:36Z</time>
      </trkpt>
      <trkpt lat="46.02187" lon="6.51026">
        <ele>2001</ele>
        <time>2018-01-28T12:07:40Z</time>
      </trkpt>
      <trkpt lat="46.02188" lon="6.51027">
        <ele>2001</ele>
        <time>2018-01-28T12:07:44Z</time>
      </trkpt>
      <trkpt lat="46.0219" lon="6.51025">
        <ele>2001</ele>
        <time>2018-01-28T12:07:49Z</time>
      </trkpt>
      <trkpt lat="46.02189" lon="6.51022">
        <ele>2000</ele>
        <time>2018-01-28T12:07:53Z</time>
      </trkpt>
      <trkpt lat="46.02189" lon="6.51018">
        <ele>2000</ele>
        <time>2018-01-28T12:08:01Z</time>
      </trkpt>
      <trkpt lat="46.02189" lon="6.51027">
        <ele>2001</ele>
        <time>2018-01-28T12:08:10Z</time>
      </trkpt>
      <trkpt lat="46.0219" lon="6.51028">
        <ele>2002</ele>
        <time>2018-01-28T12:08:22Z</time>
      </trkpt>
      <trkpt lat="46.02192" lon="6.51033">
        <ele>2002</ele>
        <time>2018-01-28T12:08:29Z</time>
      </trkpt>
      <trkpt lat="46.02193" lon="6.51036">
        <ele>2003</ele>
        <time>2018-01-28T12:08:33Z</time>
      </trkpt>
      <trkpt lat="46.02194" lon="6.51046">
        <ele>2004</ele>
        <time>2018-01-28T12:08:45Z</time>
      </trkpt>
      <trkpt lat="46.02194" lon="6.51056">
        <ele>2005</ele>
        <time>2018-01-28T12:08:54Z</time>
      </trkpt>
      <trkpt lat="46.02193" lon="6.51063">
        <ele>2005</ele>
        <time>2018-01-28T12:09:03Z</time>
      </trkpt>
      <trkpt lat="46.02194" lon="6.51071">
        <ele>2006</ele>
        <time>2018-01-28T12:09:14Z</time>
      </trkpt>
      <trkpt lat="46.02198" lon="6.5108">
        <ele>2007</ele>
        <time>2018-01-28T12:09:24Z</time>
      </trkpt>
      <trkpt lat="46.02198" lon="6.51078">
        <ele>2007</ele>
        <time>2018-01-28T12:09:36Z</time>
      </trkpt>
      <trkpt lat="46.022" lon="6.51078">
        <ele>2007</ele>
        <time>2018-01-28T12:09:42Z</time>
      </trkpt>
      <trkpt lat="46.02204" lon="6.51072">
        <ele>2008</ele>
        <time>2018-01-28T12:09:49Z</time>
      </trkpt>
      <trkpt lat="46.02204" lon="6.51071">
        <ele>2008</ele>
        <time>2018-01-28T12:09:50Z</time>
      </trkpt>
      <trkpt lat="46.02206" lon="6.51066">
        <ele>2008</ele>
        <time>2018-01-28T12:09:55Z</time>
      </trkpt>
      <trkpt lat="46.02215" lon="6.51058">
        <ele>2009</ele>
        <time>2018-01-28T12:10:11Z</time>
      </trkpt>
      <trkpt lat="46.02218" lon="6.51061">
        <ele>2010</ele>
        <time>2018-01-28T12:10:25Z</time>
      </trkpt>
      <trkpt lat="46.02218" lon="6.51063">
        <ele>2010</ele>
        <time>2018-01-28T12:10:26Z</time>
      </trkpt>
      <trkpt lat="46.02217" lon="6.51064">
        <ele>2010</ele>
        <time>2018-01-28T12:10:27Z</time>
      </trkpt>
      <trkpt lat="46.02216" lon="6.51065">
        <ele>2010</ele>
        <time>2018-01-28T12:10:28Z</time>
      </trkpt>
      <trkpt lat="46.02214" lon="6.51081">
        <ele>2011</ele>
        <time>2018-01-28T12:10:43Z</time>
      </trkpt>
      <trkpt lat="46.02216" lon="6.51085">
        <ele>2027</ele>
        <time>2018-01-28T12:10:56Z</time>
      </trkpt>
      <trkpt lat="46.02223" lon="6.51079">
        <ele>2014</ele>
        <time>2018-01-28T12:11:11Z</time>
      </trkpt>
      <trkpt lat="46.0223" lon="6.51074">
        <ele>2016</ele>
        <time>2018-01-28T12:11:25Z</time>
      </trkpt>
      <trkpt lat="46.0223" lon="6.51073">
        <ele>2016</ele>
        <time>2018-01-28T12:11:26Z</time>
      </trkpt>
      <trkpt lat="46.02233" lon="6.51073">
        <ele>2017</ele>
        <time>2018-01-28T12:11:29Z</time>
      </trkpt>
      <trkpt lat="46.02234" lon="6.51073">
        <ele>2017</ele>
        <time>2018-01-28T12:11:30Z</time>
      </trkpt>
      <trkpt lat="46.02249" lon="6.51066">
        <ele>2019</ele>
        <time>2018-01-28T12:11:46Z</time>
      </trkpt>
      <trkpt lat="46.02256" lon="6.51066">
        <ele>2028</ele>
        <time>2018-01-28T12:11:57Z</time>
      </trkpt>
      <trkpt lat="46.02262" lon="6.51073">
        <ele>2029</ele>
        <time>2018-01-28T12:12:08Z</time>
      </trkpt>
      <trkpt lat="46.02264" lon="6.51076">
        <ele>2029</ele>
        <time>2018-01-28T12:12:11Z</time>
      </trkpt>
      <trkpt lat="46.02265" lon="6.51083">
        <ele>2030</ele>
        <time>2018-01-28T12:12:18Z</time>
      </trkpt>
      <trkpt lat="46.02265" lon="6.51085">
        <ele>2041</ele>
        <time>2018-01-28T12:12:20Z</time>
      </trkpt>
      <trkpt lat="46.0227" lon="6.51091">
        <ele>2044</ele>
        <time>2018-01-28T12:12:27Z</time>
      </trkpt>
      <trkpt lat="46.02277" lon="6.51098">
        <ele>2046</ele>
        <time>2018-01-28T12:12:39Z</time>
      </trkpt>
      <trkpt lat="46.02281" lon="6.51103">
        <ele>2048</ele>
        <time>2018-01-28T12:12:46Z</time>
      </trkpt>
      <trkpt lat="46.02282" lon="6.51104">
        <ele>2048</ele>
        <time>2018-01-28T12:12:48Z</time>
      </trkpt>
      <trkpt lat="46.02289" lon="6.51113">
        <ele>2050</ele>
        <time>2018-01-28T12:13:01Z</time>
      </trkpt>
      <trkpt lat="46.02291" lon="6.5112">
        <ele>2051</ele>
        <time>2018-01-28T12:13:07Z</time>
      </trkpt>
      <trkpt lat="46.02293" lon="6.51122">
        <ele>2051</ele>
        <time>2018-01-28T12:13:09Z</time>
      </trkpt>
      <trkpt lat="46.02298" lon="6.51134">
        <ele>2053</ele>
        <time>2018-01-28T12:13:23Z</time>
      </trkpt>
      <trkpt lat="46.02299" lon="6.51141">
        <ele>2054</ele>
        <time>2018-01-28T12:13:30Z</time>
      </trkpt>
      <trkpt lat="46.02294" lon="6.51146">
        <ele>2054</ele>
        <time>2018-01-28T12:13:39Z</time>
      </trkpt>
      <trkpt lat="46.02293" lon="6.51146">
        <ele>2054</ele>
        <time>2018-01-28T12:13:40Z</time>
      </trkpt>
      <trkpt lat="46.02293" lon="6.51152">
        <ele>2055</ele>
        <time>2018-01-28T12:13:51Z</time>
      </trkpt>
      <trkpt lat="46.02293" lon="6.51153">
        <ele>2055</ele>
        <time>2018-01-28T12:13:52Z</time>
      </trkpt>
      <trkpt lat="46.02295" lon="6.51154">
        <ele>2055</ele>
        <time>2018-01-28T12:13:54Z</time>
      </trkpt>
      <trkpt lat="46.02295" lon="6.51155">
        <ele>2055</ele>
        <time>2018-01-28T12:13:55Z</time>
      </trkpt>
      <trkpt lat="46.02297" lon="6.51158">
        <ele>2055</ele>
        <time>2018-01-28T12:13:59Z</time>
      </trkpt>
      <trkpt lat="46.02298" lon="6.51161">
        <ele>2055</ele>
        <time>2018-01-28T12:14:02Z</time>
      </trkpt>
      <trkpt lat="46.02299" lon="6.51165">
        <ele>2056</ele>
        <time>2018-01-28T12:14:05Z</time>
      </trkpt>
      <trkpt lat="46.02301" lon="6.51172">
        <ele>2067</ele>
        <time>2018-01-28T12:14:10Z</time>
      </trkpt>
      <trkpt lat="46.02301" lon="6.51173">
        <ele>2068</ele>
        <time>2018-01-28T12:14:11Z</time>
      </trkpt>
      <trkpt lat="46.02302" lon="6.51176">
        <ele>2068</ele>
        <time>2018-01-28T12:14:13Z</time>
      </trkpt>
      <trkpt lat="46.02302" lon="6.51177">
        <ele>2068</ele>
        <time>2018-01-28T12:14:14Z</time>
      </trkpt>
      <trkpt lat="46.02304" lon="6.51189">
        <ele>2069</ele>
        <time>2018-01-28T12:14:22Z</time>
      </trkpt>
      <trkpt lat="46.02304" lon="6.51191">
        <ele>2069</ele>
        <time>2018-01-28T12:14:23Z</time>
      </trkpt>
      <trkpt lat="46.02304" lon="6.51192">
        <ele>2069</ele>
        <time>2018-01-28T12:14:24Z</time>
      </trkpt>
      <trkpt lat="46.02304" lon="6.51193">
        <ele>2069</ele>
        <time>2018-01-28T12:14:25Z</time>
      </trkpt>
      <trkpt lat="46.02305" lon="6.51195">
        <ele>2069</ele>
        <time>2018-01-28T12:14:26Z</time>
      </trkpt>
      <trkpt lat="46.02306" lon="6.51196">
        <ele>2069</ele>
        <time>2018-01-28T12:14:27Z</time>
      </trkpt>
      <trkpt lat="46.02306" lon="6.51198">
        <ele>2070</ele>
        <time>2018-01-28T12:14:28Z</time>
      </trkpt>
      <trkpt lat="46.02306" lon="6.51199">
        <ele>2070</ele>
        <time>2018-01-28T12:14:29Z</time>
      </trkpt>
      <trkpt lat="46.02306" lon="6.51201">
        <ele>2070</ele>
        <time>2018-01-28T12:14:30Z</time>
      </trkpt>
      <trkpt lat="46.02306" lon="6.51202">
        <ele>2070</ele>
        <time>2018-01-28T12:14:31Z</time>
      </trkpt>
      <trkpt lat="46.02306" lon="6.51204">
        <ele>2070</ele>
        <time>2018-01-28T12:14:32Z</time>
      </trkpt>
      <trkpt lat="46.02306" lon="6.51205">
        <ele>2070</ele>
        <time>2018-01-28T12:14:33Z</time>
      </trkpt>
      <trkpt lat="46.02306" lon="6.51207">
        <ele>2071</ele>
        <time>2018-01-28T12:14:34Z</time>
      </trkpt>
      <trkpt lat="46.02306" lon="6.51209">
        <ele>2071</ele>
        <time>2018-01-28T12:14:35Z</time>
      </trkpt>
      <trkpt lat="46.02303" lon="6.51235">
        <ele>2073</ele>
        <time>2018-01-28T12:14:53Z</time>
      </trkpt>
      <trkpt lat="46.02303" lon="6.5124">
        <ele>2074</ele>
        <time>2018-01-28T12:14:57Z</time>
      </trkpt>
      <trkpt lat="46.02304" lon="6.51246">
        <ele>2074</ele>
        <time>2018-01-28T12:15:02Z</time>
      </trkpt>
      <trkpt lat="46.02304" lon="6.51247">
        <ele>2074</ele>
        <time>2018-01-28T12:15:03Z</time>
      </trkpt>
      <trkpt lat="46.02304" lon="6.51257">
        <ele>2079</ele>
        <time>2018-01-28T12:15:11Z</time>
      </trkpt>
      <trkpt lat="46.02302" lon="6.51262">
        <ele>2079</ele>
        <time>2018-01-28T12:15:16Z</time>
      </trkpt>
      <trkpt lat="46.02302" lon="6.51263">
        <ele>2080</ele>
        <time>2018-01-28T12:15:17Z</time>
      </trkpt>
      <trkpt lat="46.02299" lon="6.51265">
        <ele>2080</ele>
        <time>2018-01-28T12:15:21Z</time>
      </trkpt>
      <trkpt lat="46.02297" lon="6.51267">
        <ele>2080</ele>
        <time>2018-01-28T12:15:23Z</time>
      </trkpt>
      <trkpt lat="46.0229" lon="6.51277">
        <ele>2080</ele>
        <time>2018-01-28T12:15:37Z</time>
      </trkpt>
      <trkpt lat="46.02279" lon="6.51285">
        <ele>2081</ele>
        <time>2018-01-28T12:15:52Z</time>
      </trkpt>
      <trkpt lat="46.02268" lon="6.51288">
        <ele>2082</ele>
        <time>2018-01-28T12:16:06Z</time>
      </trkpt>
      <trkpt lat="46.02259" lon="6.51289">
        <ele>2082</ele>
        <time>2018-01-28T12:16:15Z</time>
      </trkpt>
      <trkpt lat="46.02259" lon="6.51289">
        <ele>2082</ele>
        <time>2018-01-28T12:16:16Z</time>
      </trkpt>
      <trkpt lat="46.02257" lon="6.51289">
        <ele>2082</ele>
        <time>2018-01-28T12:16:17Z</time>
      </trkpt>
      <trkpt lat="46.02244" lon="6.51287">
        <ele>2066</ele>
        <time>2018-01-28T12:16:34Z</time>
      </trkpt>
      <trkpt lat="46.02245" lon="6.51285">
        <ele>2066</ele>
        <time>2018-01-28T12:16:35Z</time>
      </trkpt>
      <trkpt lat="46.02245" lon="6.51281">
        <ele>2067</ele>
        <time>2018-01-28T12:16:39Z</time>
      </trkpt>
      <trkpt lat="46.02245" lon="6.51279">
        <ele>2067</ele>
        <time>2018-01-28T12:16:46Z</time>
      </trkpt>
      <trkpt lat="46.02245" lon="6.51278">
        <ele>2068</ele>
        <time>2018-01-28T12:16:51Z</time>
      </trkpt>
      <trkpt lat="46.02246" lon="6.51276">
        <ele>2068</ele>
        <time>2018-01-28T12:16:57Z</time>
      </trkpt>
      <trkpt lat="46.02246" lon="6.51278">
        <ele>2068</ele>
        <time>2018-01-28T12:17:00Z</time>
      </trkpt>
      <trkpt lat="46.02247" lon="6.51278">
        <ele>2068</ele>
        <time>2018-01-28T12:17:15Z</time>
      </trkpt>
      <trkpt lat="46.02246" lon="6.51278">
        <ele>2068</ele>
        <time>2018-01-28T12:17:20Z</time>
      </trkpt>
      <trkpt lat="46.02246" lon="6.51278">
        <ele>2068</ele>
        <time>2018-01-28T12:17:24Z</time>
      </trkpt>
      <trkpt lat="46.02248" lon="6.51278">
        <ele>2068</ele>
        <time>2018-01-28T12:17:48Z</time>
      </trkpt>
      <trkpt lat="46.02248" lon="6.51278">
        <ele>2068</ele>
        <time>2018-01-28T12:17:53Z</time>
      </trkpt>
      <trkpt lat="46.02246" lon="6.51277">
        <ele>2068</ele>
        <time>2018-01-28T12:18:01Z</time>
      </trkpt>
      <trkpt lat="46.02247" lon="6.51277">
        <ele>2068</ele>
        <time>2018-01-28T12:18:11Z</time>
      </trkpt>
      <trkpt lat="46.02247" lon="6.51275">
        <ele>2069</ele>
        <time>2018-01-28T12:18:29Z</time>
      </trkpt>
      <trkpt lat="46.02247" lon="6.51274">
        <ele>2069</ele>
        <time>2018-01-28T12:18:37Z</time>
      </trkpt>
      <trkpt lat="46.02246" lon="6.51274">
        <ele>2069</ele>
        <time>2018-01-28T12:18:43Z</time>
      </trkpt>
      <trkpt lat="46.02247" lon="6.51273">
        <ele>2069</ele>
        <time>2018-01-28T12:18:49Z</time>
      </trkpt>
      <trkpt lat="46.02247" lon="6.51273">
        <ele>2069</ele>
        <time>2018-01-28T12:18:54Z</time>
      </trkpt>
      <trkpt lat="46.02247" lon="6.51274">
        <ele>2069</ele>
        <time>2018-01-28T12:19:03Z</time>
      </trkpt>
      <trkpt lat="46.02246" lon="6.51274">
        <ele>2069</ele>
        <time>2018-01-28T12:19:21Z</time>
      </trkpt>
      <trkpt lat="46.02247" lon="6.51274">
        <ele>2069</ele>
        <time>2018-01-28T12:19:32Z</time>
      </trkpt>
      <trkpt lat="46.02246" lon="6.51274">
        <ele>2069</ele>
        <time>2018-01-28T12:19:37Z</time>
      </trkpt>
      <trkpt lat="46.02247" lon="6.51273">
        <ele>2069</ele>
        <time>2018-01-28T12:19:53Z</time>
      </trkpt>
      <trkpt lat="46.02247" lon="6.51273">
        <ele>2069</ele>
        <time>2018-01-28T12:19:56Z</time>
      </trkpt>
      <trkpt lat="46.02247" lon="6.51273">
        <ele>2069</ele>
        <time>2018-01-28T12:19:57Z</time>
      </trkpt>
      <trkpt lat="46.02247" lon="6.51273">
        <ele>2069</ele>
        <time>2018-01-28T12:20:03Z</time>
      </trkpt>
      <trkpt lat="46.02246" lon="6.51274">
        <ele>2069</ele>
        <time>2018-01-28T12:20:22Z</time>
      </trkpt>
      <trkpt lat="46.02246" lon="6.51274">
        <ele>2069</ele>
        <time>2018-01-28T12:20:31Z</time>
      </trkpt>
      <trkpt lat="46.02247" lon="6.51273">
        <ele>2069</ele>
        <time>2018-01-28T12:20:47Z</time>
      </trkpt>
      <trkpt lat="46.02247" lon="6.51273">
        <ele>2069</ele>
        <time>2018-01-28T12:21:08Z</time>
      </trkpt>
      <trkpt lat="46.02247" lon="6.51273">
        <ele>2070</ele>
        <time>2018-01-28T12:21:09Z</time>
      </trkpt>
      <trkpt lat="46.02247" lon="6.51273">
        <ele>2069</ele>
        <time>2018-01-28T12:21:38Z</time>
      </trkpt>
      <trkpt lat="46.02247" lon="6.51273">
        <ele>2069</ele>
        <time>2018-01-28T12:21:44Z</time>
      </trkpt>
      <trkpt lat="46.02247" lon="6.51274">
        <ele>2069</ele>
        <time>2018-01-28T12:21:50Z</time>
      </trkpt>
      <trkpt lat="46.02247" lon="6.51273">
        <ele>2069</ele>
        <time>2018-01-28T12:21:58Z</time>
      </trkpt>
      <trkpt lat="46.02247" lon="6.51274">
        <ele>2069</ele>
        <time>2018-01-28T12:22:07Z</time>
      </trkpt>
      <trkpt lat="46.02248" lon="6.51274">
        <ele>2069</ele>
        <time>2018-01-28T12:22:13Z</time>
      </trkpt>
      <trkpt lat="46.02248" lon="6.51275">
        <ele>2069</ele>
        <time>2018-01-28T12:22:17Z</time>
      </trkpt>
      <trkpt lat="46.02248" lon="6.51275">
        <ele>2069</ele>
        <time>2018-01-28T12:22:20Z</time>
      </trkpt>
      <trkpt lat="46.02248" lon="6.51275">
        <ele>2069</ele>
        <time>2018-01-28T12:22:23Z</time>
      </trkpt>
      <trkpt lat="46.02247" lon="6.51274">
        <ele>2069</ele>
        <time>2018-01-28T12:22:30Z</time>
      </trkpt>
      <trkpt lat="46.02247" lon="6.51275">
        <ele>2069</ele>
        <time>2018-01-28T12:22:38Z</time>
      </trkpt>
      <trkpt lat="46.02247" lon="6.51275">
        <ele>2069</ele>
        <time>2018-01-28T12:22:41Z</time>
      </trkpt>
      <trkpt lat="46.02247" lon="6.51275">
        <ele>2069</ele>
        <time>2018-01-28T12:22:48Z</time>
      </trkpt>
      <trkpt lat="46.02247" lon="6.51275">
        <ele>2069</ele>
        <time>2018-01-28T12:22:52Z</time>
      </trkpt>
      <trkpt lat="46.02246" lon="6.51275">
        <ele>2069</ele>
        <time>2018-01-28T12:23:16Z</time>
      </trkpt>
      <trkpt lat="46.02246" lon="6.51274">
        <ele>2069</ele>
        <time>2018-01-28T12:23:27Z</time>
      </trkpt>
      <trkpt lat="46.02246" lon="6.51275">
        <ele>2069</ele>
        <time>2018-01-28T12:23:42Z</time>
      </trkpt>
      <trkpt lat="46.02246" lon="6.51275">
        <ele>2069</ele>
        <time>2018-01-28T12:23:47Z</time>
      </trkpt>
      <trkpt lat="46.02246" lon="6.51274">
        <ele>2069</ele>
        <time>2018-01-28T12:23:58Z</time>
      </trkpt>
      <trkpt lat="46.02246" lon="6.51274">
        <ele>2069</ele>
        <time>2018-01-28T12:24:07Z</time>
      </trkpt>
      <trkpt lat="46.02246" lon="6.51274">
        <ele>2069</ele>
        <time>2018-01-28T12:24:11Z</time>
      </trkpt>
      <trkpt lat="46.02247" lon="6.51275">
        <ele>2069</ele>
        <time>2018-01-28T12:24:23Z</time>
      </trkpt>
      <trkpt lat="46.02247" lon="6.51275">
        <ele>2069</ele>
        <time>2018-01-28T12:24:29Z</time>
      </trkpt>
      <trkpt lat="46.02247" lon="6.51275">
        <ele>2069</ele>
        <time>2018-01-28T12:24:33Z</time>
      </trkpt>
      <trkpt lat="46.02247" lon="6.51277">
        <ele>2068</ele>
        <time>2018-01-28T12:24:38Z</time>
      </trkpt>
      <trkpt lat="46.02247" lon="6.51278">
        <ele>2068</ele>
        <time>2018-01-28T12:24:49Z</time>
      </trkpt>
      <trkpt lat="46.02246" lon="6.51278">
        <ele>2068</ele>
        <time>2018-01-28T12:24:53Z</time>
      </trkpt>
      <trkpt lat="46.02247" lon="6.51277">
        <ele>2068</ele>
        <time>2018-01-28T12:25:01Z</time>
      </trkpt>
      <trkpt lat="46.02247" lon="6.51278">
        <ele>2068</ele>
        <time>2018-01-28T12:25:07Z</time>
      </trkpt>
      <trkpt lat="46.02247" lon="6.51278">
        <ele>2068</ele>
        <time>2018-01-28T12:25:10Z</time>
      </trkpt>
      <trkpt lat="46.02247" lon="6.51278">
        <ele>2068</ele>
        <time>2018-01-28T12:25:15Z</time>
      </trkpt>
      <trkpt lat="46.02247" lon="6.51278">
        <ele>2068</ele>
        <time>2018-01-28T12:25:21Z</time>
      </trkpt>
      <trkpt lat="46.02247" lon="6.51277">
        <ele>2068</ele>
        <time>2018-01-28T12:25:27Z</time>
      </trkpt>
      <trkpt lat="46.02247" lon="6.51277">
        <ele>2068</ele>
        <time>2018-01-28T12:25:36Z</time>
      </trkpt>
      <trkpt lat="46.02247" lon="6.51279">
        <ele>2068</ele>
        <time>2018-01-28T12:25:43Z</time>
      </trkpt>
      <trkpt lat="46.02247" lon="6.51279">
        <ele>2068</ele>
        <time>2018-01-28T12:25:45Z</time>
      </trkpt>
      <trkpt lat="46.02247" lon="6.51279">
        <ele>2068</ele>
        <time>2018-01-28T12:25:49Z</time>
      </trkpt>
      <trkpt lat="46.02247" lon="6.51282">
        <ele>2067</ele>
        <time>2018-01-28T12:25:56Z</time>
      </trkpt>
      <trkpt lat="46.02248" lon="6.51283">
        <ele>2067</ele>
        <time>2018-01-28T12:25:57Z</time>
      </trkpt>
      <trkpt lat="46.02249" lon="6.51284">
        <ele>2067</ele>
        <time>2018-01-28T12:25:58Z</time>
      </trkpt>
      <trkpt lat="46.0225" lon="6.51284">
        <ele>2067</ele>
        <time>2018-01-28T12:25:59Z</time>
      </trkpt>
      <trkpt lat="46.02251" lon="6.51285">
        <ele>2082</ele>
        <time>2018-01-28T12:26:00Z</time>
      </trkpt>
      <trkpt lat="46.02252" lon="6.51285">
        <ele>2082</ele>
        <time>2018-01-28T12:26:01Z</time>
      </trkpt>
      <trkpt lat="46.02253" lon="6.51287">
        <ele>2082</ele>
        <time>2018-01-28T12:26:02Z</time>
      </trkpt>
      <trkpt lat="46.02254" lon="6.51287">
        <ele>2082</ele>
        <time>2018-01-28T12:26:03Z</time>
      </trkpt>
      <trkpt lat="46.02255" lon="6.51288">
        <ele>2082</ele>
        <time>2018-01-28T12:26:04Z</time>
      </trkpt>
      <trkpt lat="46.02274" lon="6.51288">
        <ele>2081</ele>
        <time>2018-01-28T12:26:10Z</time>
      </trkpt>
      <trkpt lat="46.02284" lon="6.51279">
        <ele>2081</ele>
        <time>2018-01-28T12:26:13Z</time>
      </trkpt>
      <trkpt lat="46.02285" lon="6.51273">
        <ele>2081</ele>
        <time>2018-01-28T12:26:14Z</time>
      </trkpt>
      <trkpt lat="46.02286" lon="6.51265">
        <ele>2081</ele>
        <time>2018-01-28T12:26:15Z</time>
      </trkpt>
      <trkpt lat="46.02288" lon="6.51257">
        <ele>2081</ele>
        <time>2018-01-28T12:26:16Z</time>
      </trkpt>
      <trkpt lat="46.0229" lon="6.51248">
        <ele>2075</ele>
        <time>2018-01-28T12:26:17Z</time>
      </trkpt>
      <trkpt lat="46.02293" lon="6.51237">
        <ele>2074</ele>
        <time>2018-01-28T12:26:18Z</time>
      </trkpt>
      <trkpt lat="46.02297" lon="6.51226">
        <ele>2073</ele>
        <time>2018-01-28T12:26:19Z</time>
      </trkpt>
      <trkpt lat="46.023" lon="6.51216">
        <ele>2072</ele>
        <time>2018-01-28T12:26:20Z</time>
      </trkpt>
      <trkpt lat="46.02301" lon="6.51207">
        <ele>2071</ele>
        <time>2018-01-28T12:26:21Z</time>
      </trkpt>
      <trkpt lat="46.02301" lon="6.51198">
        <ele>2070</ele>
        <time>2018-01-28T12:26:22Z</time>
      </trkpt>
      <trkpt lat="46.02302" lon="6.51188">
        <ele>2069</ele>
        <time>2018-01-28T12:26:23Z</time>
      </trkpt>
      <trkpt lat="46.02306" lon="6.51179">
        <ele>2068</ele>
        <time>2018-01-28T12:26:24Z</time>
      </trkpt>
      <trkpt lat="46.02308" lon="6.51173">
        <ele>2067</ele>
        <time>2018-01-28T12:26:25Z</time>
      </trkpt>
      <trkpt lat="46.02308" lon="6.51169">
        <ele>2067</ele>
        <time>2018-01-28T12:26:26Z</time>
      </trkpt>
      <trkpt lat="46.02307" lon="6.51166">
        <ele>2056</ele>
        <time>2018-01-28T12:26:27Z</time>
      </trkpt>
      <trkpt lat="46.02306" lon="6.51162">
        <ele>2056</ele>
        <time>2018-01-28T12:26:28Z</time>
      </trkpt>
      <trkpt lat="46.02304" lon="6.51156">
        <ele>2055</ele>
        <time>2018-01-28T12:26:29Z</time>
      </trkpt>
      <trkpt lat="46.02302" lon="6.51148">
        <ele>2054</ele>
        <time>2018-01-28T12:26:30Z</time>
      </trkpt>
      <trkpt lat="46.023" lon="6.51137">
        <ele>2053</ele>
        <time>2018-01-28T12:26:31Z</time>
      </trkpt>
      <trkpt lat="46.02296" lon="6.51114">
        <ele>2051</ele>
        <time>2018-01-28T12:26:33Z</time>
      </trkpt>
      <trkpt lat="46.02292" lon="6.51105">
        <ele>2049</ele>
        <time>2018-01-28T12:26:34Z</time>
      </trkpt>
      <trkpt lat="46.02287" lon="6.51097">
        <ele>2048</ele>
        <time>2018-01-28T12:26:35Z</time>
      </trkpt>
      <trkpt lat="46.02281" lon="6.51091">
        <ele>2046</ele>
        <time>2018-01-28T12:26:36Z</time>
      </trkpt>
      <trkpt lat="46.02279" lon="6.51085">
        <ele>2046</ele>
        <time>2018-01-28T12:26:37Z</time>
      </trkpt>
      <trkpt lat="46.02281" lon="6.51077">
        <ele>2030</ele>
        <time>2018-01-28T12:26:38Z</time>
      </trkpt>
      <trkpt lat="46.02282" lon="6.51069">
        <ele>2029</ele>
        <time>2018-01-28T12:26:39Z</time>
      </trkpt>
      <trkpt lat="46.02281" lon="6.51062">
        <ele>2028</ele>
        <time>2018-01-28T12:26:40Z</time>
      </trkpt>
      <trkpt lat="46.02279" lon="6.51058">
        <ele>2027</ele>
        <time>2018-01-28T12:26:41Z</time>
      </trkpt>
      <trkpt lat="46.02274" lon="6.51059">
        <ele>2027</ele>
        <time>2018-01-28T12:26:42Z</time>
      </trkpt>
      <trkpt lat="46.02271" lon="6.51056">
        <ele>2026</ele>
        <time>2018-01-28T12:26:43Z</time>
      </trkpt>
      <trkpt lat="46.02267" lon="6.51052">
        <ele>2025</ele>
        <time>2018-01-28T12:26:44Z</time>
      </trkpt>
      <trkpt lat="46.02263" lon="6.5105">
        <ele>2025</ele>
        <time>2018-01-28T12:26:45Z</time>
      </trkpt>
      <trkpt lat="46.02258" lon="6.51051">
        <ele>2025</ele>
        <time>2018-01-28T12:26:46Z</time>
      </trkpt>
      <trkpt lat="46.02256" lon="6.51053">
        <ele>2025</ele>
        <time>2018-01-28T12:26:47Z</time>
      </trkpt>
      <trkpt lat="46.02252" lon="6.51055">
        <ele>2025</ele>
        <time>2018-01-28T12:26:48Z</time>
      </trkpt>
      <trkpt lat="46.02248" lon="6.51056">
        <ele>2014</ele>
        <time>2018-01-28T12:26:49Z</time>
      </trkpt>
      <trkpt lat="46.02246" lon="6.51055">
        <ele>2013</ele>
        <time>2018-01-28T12:26:50Z</time>
      </trkpt>
      <trkpt lat="46.02244" lon="6.51053">
        <ele>2013</ele>
        <time>2018-01-28T12:26:51Z</time>
      </trkpt>
      <trkpt lat="46.02243" lon="6.51053">
        <ele>2012</ele>
        <time>2018-01-28T12:26:52Z</time>
      </trkpt>
      <trkpt lat="46.0224" lon="6.51053">
        <ele>2012</ele>
        <time>2018-01-28T12:26:59Z</time>
      </trkpt>
      <trkpt lat="46.02238" lon="6.51055">
        <ele>2013</ele>
        <time>2018-01-28T12:27:00Z</time>
      </trkpt>
      <trkpt lat="46.02237" lon="6.51057">
        <ele>2013</ele>
        <time>2018-01-28T12:27:01Z</time>
      </trkpt>
      <trkpt lat="46.02236" lon="6.51058">
        <ele>2013</ele>
        <time>2018-01-28T12:27:02Z</time>
      </trkpt>
      <trkpt lat="46.02208" lon="6.51086">
        <ele>2025</ele>
        <time>2018-01-28T12:27:15Z</time>
      </trkpt>
      <trkpt lat="46.02203" lon="6.51088">
        <ele>2023</ele>
        <time>2018-01-28T12:27:17Z</time>
      </trkpt>
      <trkpt lat="46.02201" lon="6.51083">
        <ele>2008</ele>
        <time>2018-01-28T12:27:18Z</time>
      </trkpt>
      <trkpt lat="46.02199" lon="6.51077">
        <ele>2007</ele>
        <time>2018-01-28T12:27:19Z</time>
      </trkpt>
      <trkpt lat="46.02197" lon="6.5107">
        <ele>2006</ele>
        <time>2018-01-28T12:27:20Z</time>
      </trkpt>
      <trkpt lat="46.02196" lon="6.51063">
        <ele>2006</ele>
        <time>2018-01-28T12:27:21Z</time>
      </trkpt>
      <trkpt lat="46.02195" lon="6.51055">
        <ele>2005</ele>
        <time>2018-01-28T12:27:22Z</time>
      </trkpt>
      <trkpt lat="46.02193" lon="6.51049">
        <ele>2004</ele>
        <time>2018-01-28T12:27:23Z</time>
      </trkpt>
      <trkpt lat="46.02193" lon="6.51043">
        <ele>2004</ele>
        <time>2018-01-28T12:27:24Z</time>
      </trkpt>
      <trkpt lat="46.02194" lon="6.51037">
        <ele>2003</ele>
        <time>2018-01-28T12:27:25Z</time>
      </trkpt>
      <trkpt lat="46.02195" lon="6.51033">
        <ele>2003</ele>
        <time>2018-01-28T12:27:26Z</time>
      </trkpt>
      <trkpt lat="46.02195" lon="6.51028">
        <ele>2002</ele>
        <time>2018-01-28T12:27:27Z</time>
      </trkpt>
      <trkpt lat="46.02195" lon="6.51024">
        <ele>2002</ele>
        <time>2018-01-28T12:27:28Z</time>
      </trkpt>
      <trkpt lat="46.02194" lon="6.51019">
        <ele>2001</ele>
        <time>2018-01-28T12:27:29Z</time>
      </trkpt>
      <trkpt lat="46.02193" lon="6.51016">
        <ele>2000</ele>
        <time>2018-01-28T12:27:30Z</time>
      </trkpt>
      <trkpt lat="46.02193" lon="6.51015">
        <ele>2000</ele>
        <time>2018-01-28T12:27:31Z</time>
      </trkpt>
      <trkpt lat="46.02192" lon="6.51017">
        <ele>2000</ele>
        <time>2018-01-28T12:27:37Z</time>
      </trkpt>
      <trkpt lat="46.02192" lon="6.51019">
        <ele>2000</ele>
        <time>2018-01-28T12:27:38Z</time>
      </trkpt>
      <trkpt lat="46.02188" lon="6.51029">
        <ele>2001</ele>
        <time>2018-01-28T12:27:40Z</time>
      </trkpt>
      <trkpt lat="46.02186" lon="6.5103">
        <ele>2001</ele>
        <time>2018-01-28T12:27:41Z</time>
      </trkpt>
      <trkpt lat="46.02183" lon="6.51027">
        <ele>2000</ele>
        <time>2018-01-28T12:27:42Z</time>
      </trkpt>
      <trkpt lat="46.0218" lon="6.51026">
        <ele>2000</ele>
        <time>2018-01-28T12:27:43Z</time>
      </trkpt>
      <trkpt lat="46.02177" lon="6.51025">
        <ele>1999</ele>
        <time>2018-01-28T12:27:44Z</time>
      </trkpt>
      <trkpt lat="46.02173" lon="6.51024">
        <ele>1999</ele>
        <time>2018-01-28T12:27:45Z</time>
      </trkpt>
      <trkpt lat="46.0217" lon="6.51025">
        <ele>1999</ele>
        <time>2018-01-28T12:27:46Z</time>
      </trkpt>
      <trkpt lat="46.02168" lon="6.51023">
        <ele>1998</ele>
        <time>2018-01-28T12:27:47Z</time>
      </trkpt>
      <trkpt lat="46.02165" lon="6.51018">
        <ele>1995</ele>
        <time>2018-01-28T12:27:48Z</time>
      </trkpt>
      <trkpt lat="46.02161" lon="6.51018">
        <ele>1995</ele>
        <time>2018-01-28T12:27:49Z</time>
      </trkpt>
      <trkpt lat="46.02157" lon="6.51019">
        <ele>1995</ele>
        <time>2018-01-28T12:27:50Z</time>
      </trkpt>
      <trkpt lat="46.02153" lon="6.51017">
        <ele>1995</ele>
        <time>2018-01-28T12:27:51Z</time>
      </trkpt>
      <trkpt lat="46.02149" lon="6.51014">
        <ele>1996</ele>
        <time>2018-01-28T12:27:52Z</time>
      </trkpt>
      <trkpt lat="46.02146" lon="6.51015">
        <ele>1996</ele>
        <time>2018-01-28T12:27:53Z</time>
      </trkpt>
      <trkpt lat="46.02142" lon="6.51017">
        <ele>1997</ele>
        <time>2018-01-28T12:27:54Z</time>
      </trkpt>
      <trkpt lat="46.02138" lon="6.51018">
        <ele>1997</ele>
        <time>2018-01-28T12:27:55Z</time>
      </trkpt>
      <trkpt lat="46.02133" lon="6.51022">
        <ele>1998</ele>
        <time>2018-01-28T12:27:56Z</time>
      </trkpt>
      <trkpt lat="46.02129" lon="6.51027">
        <ele>1999</ele>
        <time>2018-01-28T12:27:57Z</time>
      </trkpt>
      <trkpt lat="46.02124" lon="6.51035">
        <ele>1999</ele>
        <time>2018-01-28T12:27:58Z</time>
      </trkpt>
      <trkpt lat="46.02121" lon="6.51044">
        <ele>1999</ele>
        <time>2018-01-28T12:27:59Z</time>
      </trkpt>
      <trkpt lat="46.0212" lon="6.51053">
        <ele>2000</ele>
        <time>2018-01-28T12:28:00Z</time>
      </trkpt>
      <trkpt lat="46.0212" lon="6.5107">
        <ele>2000</ele>
        <time>2018-01-28T12:28:02Z</time>
      </trkpt>
      <trkpt lat="46.02117" lon="6.51078">
        <ele>2000</ele>
        <time>2018-01-28T12:28:03Z</time>
      </trkpt>
      <trkpt lat="46.02111" lon="6.51083">
        <ele>2000</ele>
        <time>2018-01-28T12:28:04Z</time>
      </trkpt>
      <trkpt lat="46.02105" lon="6.51091">
        <ele>2002</ele>
        <time>2018-01-28T12:28:05Z</time>
      </trkpt>
      <trkpt lat="46.02098" lon="6.51096">
        <ele>2002</ele>
        <time>2018-01-28T12:28:06Z</time>
      </trkpt>
      <trkpt lat="46.02091" lon="6.51101">
        <ele>2002</ele>
        <time>2018-01-28T12:28:07Z</time>
      </trkpt>
      <trkpt lat="46.02085" lon="6.5111">
        <ele>2002</ele>
        <time>2018-01-28T12:28:08Z</time>
      </trkpt>
      <trkpt lat="46.02079" lon="6.51115">
        <ele>1984</ele>
        <time>2018-01-28T12:28:09Z</time>
      </trkpt>
      <trkpt lat="46.02074" lon="6.51125">
        <ele>1982</ele>
        <time>2018-01-28T12:28:10Z</time>
      </trkpt>
      <trkpt lat="46.02068" lon="6.51132">
        <ele>1981</ele>
        <time>2018-01-28T12:28:11Z</time>
      </trkpt>
      <trkpt lat="46.02063" lon="6.51141">
        <ele>1980</ele>
        <time>2018-01-28T12:28:12Z</time>
      </trkpt>
      <trkpt lat="46.02059" lon="6.51153">
        <ele>1979</ele>
        <time>2018-01-28T12:28:13Z</time>
      </trkpt>
      <trkpt lat="46.02055" lon="6.51164">
        <ele>1978</ele>
        <time>2018-01-28T12:28:14Z</time>
      </trkpt>
      <trkpt lat="46.02051" lon="6.51177">
        <ele>1960</ele>
        <time>2018-01-28T12:28:15Z</time>
      </trkpt>
      <trkpt lat="46.02049" lon="6.51187">
        <ele>1957</ele>
        <time>2018-01-28T12:28:16Z</time>
      </trkpt>
      <trkpt lat="46.02044" lon="6.51198">
        <ele>1953</ele>
        <time>2018-01-28T12:28:17Z</time>
      </trkpt>
      <trkpt lat="46.02039" lon="6.51206">
        <ele>1950</ele>
        <time>2018-01-28T12:28:18Z</time>
      </trkpt>
      <trkpt lat="46.02033" lon="6.51208">
        <ele>1947</ele>
        <time>2018-01-28T12:28:19Z</time>
      </trkpt>
      <trkpt lat="46.02027" lon="6.51213">
        <ele>1944</ele>
        <time>2018-01-28T12:28:20Z</time>
      </trkpt>
      <trkpt lat="46.02021" lon="6.51217">
        <ele>1941</ele>
        <time>2018-01-28T12:28:21Z</time>
      </trkpt>
      <trkpt lat="46.02015" lon="6.51222">
        <ele>1937</ele>
        <time>2018-01-28T12:28:22Z</time>
      </trkpt>
      <trkpt lat="46.02009" lon="6.51227">
        <ele>1932</ele>
        <time>2018-01-28T12:28:23Z</time>
      </trkpt>
      <trkpt lat="46.02006" lon="6.51235">
        <ele>1926</ele>
        <time>2018-01-28T12:28:24Z</time>
      </trkpt>
      <trkpt lat="46.02005" lon="6.51243">
        <ele>1917</ele>
        <time>2018-01-28T12:28:25Z</time>
      </trkpt>
      <trkpt lat="46.02004" lon="6.51251">
        <ele>1903</ele>
        <time>2018-01-28T12:28:26Z</time>
      </trkpt>
      <trkpt lat="46.02001" lon="6.51268">
        <ele>1901</ele>
        <time>2018-01-28T12:28:28Z</time>
      </trkpt>
      <trkpt lat="46.02" lon="6.51278">
        <ele>1869</ele>
        <time>2018-01-28T12:28:29Z</time>
      </trkpt>
      <trkpt lat="46.01999" lon="6.51288">
        <ele>1862</ele>
        <time>2018-01-28T12:28:30Z</time>
      </trkpt>
      <trkpt lat="46.01996" lon="6.51299">
        <ele>1856</ele>
        <time>2018-01-28T12:28:31Z</time>
      </trkpt>
      <trkpt lat="46.01992" lon="6.51309">
        <ele>1850</ele>
        <time>2018-01-28T12:28:32Z</time>
      </trkpt>
      <trkpt lat="46.01986" lon="6.51316">
        <ele>1848</ele>
        <time>2018-01-28T12:28:33Z</time>
      </trkpt>
      <trkpt lat="46.01982" lon="6.51322">
        <ele>1846</ele>
        <time>2018-01-28T12:28:34Z</time>
      </trkpt>
      <trkpt lat="46.01984" lon="6.51327">
        <ele>1845</ele>
        <time>2018-01-28T12:28:35Z</time>
      </trkpt>
      <trkpt lat="46.01986" lon="6.51329">
        <ele>1844</ele>
        <time>2018-01-28T12:28:36Z</time>
      </trkpt>
      <trkpt lat="46.01989" lon="6.51331">
        <ele>1843</ele>
        <time>2018-01-28T12:28:37Z</time>
      </trkpt>
      <trkpt lat="46.0199" lon="6.51332">
        <ele>1842</ele>
        <time>2018-01-28T12:28:38Z</time>
      </trkpt>
      <trkpt lat="46.01991" lon="6.51333">
        <ele>1842</ele>
        <time>2018-01-28T12:28:39Z</time>
      </trkpt>
      <trkpt lat="46.0199" lon="6.51332">
        <ele>1842</ele>
        <time>2018-01-28T12:28:49Z</time>
      </trkpt>
      <trkpt lat="46.01991" lon="6.51335">
        <ele>1829</ele>
        <time>2018-01-28T12:28:54Z</time>
      </trkpt>
      <trkpt lat="46.01992" lon="6.51339">
        <ele>1828</ele>
        <time>2018-01-28T12:28:55Z</time>
      </trkpt>
      <trkpt lat="46.0199" lon="6.51345">
        <ele>1825</ele>
        <time>2018-01-28T12:28:56Z</time>
      </trkpt>
      <trkpt lat="46.01989" lon="6.51353">
        <ele>1822</ele>
        <time>2018-01-28T12:28:57Z</time>
      </trkpt>
      <trkpt lat="46.01986" lon="6.51361">
        <ele>1819</ele>
        <time>2018-01-28T12:28:58Z</time>
      </trkpt>
      <trkpt lat="46.01981" lon="6.51366">
        <ele>1817</ele>
        <time>2018-01-28T12:28:59Z</time>
      </trkpt>
      <trkpt lat="46.01976" lon="6.5137">
        <ele>1815</ele>
        <time>2018-01-28T12:29:00Z</time>
      </trkpt>
      <trkpt lat="46.01973" lon="6.51376">
        <ele>1814</ele>
        <time>2018-01-28T12:29:01Z</time>
      </trkpt>
      <trkpt lat="46.0197" lon="6.51379">
        <ele>1813</ele>
        <time>2018-01-28T12:29:02Z</time>
      </trkpt>
      <trkpt lat="46.01966" lon="6.51383">
        <ele>1811</ele>
        <time>2018-01-28T12:29:03Z</time>
      </trkpt>
      <trkpt lat="46.01964" lon="6.5139">
        <ele>1810</ele>
        <time>2018-01-28T12:29:04Z</time>
      </trkpt>
      <trkpt lat="46.0196" lon="6.51397">
        <ele>1809</ele>
        <time>2018-01-28T12:29:05Z</time>
      </trkpt>
      <trkpt lat="46.01956" lon="6.51407">
        <ele>1807</ele>
        <time>2018-01-28T12:29:06Z</time>
      </trkpt>
      <trkpt lat="46.0195" lon="6.51414">
        <ele>1804</ele>
        <time>2018-01-28T12:29:07Z</time>
      </trkpt>
      <trkpt lat="46.01944" lon="6.51421">
        <ele>1790</ele>
        <time>2018-01-28T12:29:08Z</time>
      </trkpt>
      <trkpt lat="46.01938" lon="6.51432">
        <ele>1789</ele>
        <time>2018-01-28T12:29:09Z</time>
      </trkpt>
      <trkpt lat="46.01933" lon="6.51439">
        <ele>1787</ele>
        <time>2018-01-28T12:29:10Z</time>
      </trkpt>
      <trkpt lat="46.01926" lon="6.51448">
        <ele>1786</ele>
        <time>2018-01-28T12:29:11Z</time>
      </trkpt>
      <trkpt lat="46.01922" lon="6.51457">
        <ele>1785</ele>
        <time>2018-01-28T12:29:12Z</time>
      </trkpt>
      <trkpt lat="46.0192" lon="6.5147">
        <ele>1782</ele>
        <time>2018-01-28T12:29:13Z</time>
      </trkpt>
      <trkpt lat="46.01915" lon="6.51481">
        <ele>1766</ele>
        <time>2018-01-28T12:29:14Z</time>
      </trkpt>
      <trkpt lat="46.01909" lon="6.51489">
        <ele>1765</ele>
        <time>2018-01-28T12:29:15Z</time>
      </trkpt>
      <trkpt lat="46.01906" lon="6.51499">
        <ele>1765</ele>
        <time>2018-01-28T12:29:16Z</time>
      </trkpt>
      <trkpt lat="46.01906" lon="6.5151">
        <ele>1754</ele>
        <time>2018-01-28T12:29:17Z</time>
      </trkpt>
      <trkpt lat="46.01905" lon="6.51522">
        <ele>1749</ele>
        <time>2018-01-28T12:29:18Z</time>
      </trkpt>
      <trkpt lat="46.01904" lon="6.51534">
        <ele>1746</ele>
        <time>2018-01-28T12:29:19Z</time>
      </trkpt>
      <trkpt lat="46.01901" lon="6.51544">
        <ele>1743</ele>
        <time>2018-01-28T12:29:20Z</time>
      </trkpt>
      <trkpt lat="46.01899" lon="6.51553">
        <ele>1741</ele>
        <time>2018-01-28T12:29:21Z</time>
      </trkpt>
      <trkpt lat="46.01898" lon="6.51563">
        <ele>1739</ele>
        <time>2018-01-28T12:29:22Z</time>
      </trkpt>
      <trkpt lat="46.01895" lon="6.51573">
        <ele>1738</ele>
        <time>2018-01-28T12:29:23Z</time>
      </trkpt>
      <trkpt lat="46.01895" lon="6.51583">
        <ele>1737</ele>
        <time>2018-01-28T12:29:24Z</time>
      </trkpt>
      <trkpt lat="46.01893" lon="6.51593">
        <ele>1723</ele>
        <time>2018-01-28T12:29:25Z</time>
      </trkpt>
      <trkpt lat="46.01891" lon="6.51604">
        <ele>1722</ele>
        <time>2018-01-28T12:29:26Z</time>
      </trkpt>
      <trkpt lat="46.01892" lon="6.51613">
        <ele>1720</ele>
        <time>2018-01-28T12:29:27Z</time>
      </trkpt>
      <trkpt lat="46.01895" lon="6.5162">
        <ele>1720</ele>
        <time>2018-01-28T12:29:28Z</time>
      </trkpt>
      <trkpt lat="46.019" lon="6.51627">
        <ele>1719</ele>
        <time>2018-01-28T12:29:29Z</time>
      </trkpt>
      <trkpt lat="46.01903" lon="6.51634">
        <ele>1718</ele>
        <time>2018-01-28T12:29:30Z</time>
      </trkpt>
      <trkpt lat="46.01902" lon="6.5164">
        <ele>1718</ele>
        <time>2018-01-28T12:29:31Z</time>
      </trkpt>
      <trkpt lat="46.01899" lon="6.51647">
        <ele>1717</ele>
        <time>2018-01-28T12:29:32Z</time>
      </trkpt>
      <trkpt lat="46.01895" lon="6.51655">
        <ele>1716</ele>
        <time>2018-01-28T12:29:33Z</time>
      </trkpt>
      <trkpt lat="46.01891" lon="6.51662">
        <ele>1715</ele>
        <time>2018-01-28T12:29:34Z</time>
      </trkpt>
      <trkpt lat="46.01888" lon="6.51673">
        <ele>1705</ele>
        <time>2018-01-28T12:29:35Z</time>
      </trkpt>
      <trkpt lat="46.01885" lon="6.51683">
        <ele>1703</ele>
        <time>2018-01-28T12:29:36Z</time>
      </trkpt>
      <trkpt lat="46.01878" lon="6.51692">
        <ele>1701</ele>
        <time>2018-01-28T12:29:37Z</time>
      </trkpt>
      <trkpt lat="46.01871" lon="6.51697">
        <ele>1700</ele>
        <time>2018-01-28T12:29:38Z</time>
      </trkpt>
      <trkpt lat="46.01864" lon="6.517">
        <ele>1699</ele>
        <time>2018-01-28T12:29:39Z</time>
      </trkpt>
      <trkpt lat="46.01857" lon="6.51703">
        <ele>1698</ele>
        <time>2018-01-28T12:29:40Z</time>
      </trkpt>
      <trkpt lat="46.01852" lon="6.51708">
        <ele>1697</ele>
        <time>2018-01-28T12:29:41Z</time>
      </trkpt>
      <trkpt lat="46.01854" lon="6.51713">
        <ele>1697</ele>
        <time>2018-01-28T12:29:42Z</time>
      </trkpt>
      <trkpt lat="46.01856" lon="6.51717">
        <ele>1696</ele>
        <time>2018-01-28T12:29:43Z</time>
      </trkpt>
      <trkpt lat="46.01864" lon="6.5173">
        <ele>1696</ele>
        <time>2018-01-28T12:29:46Z</time>
      </trkpt>
      <trkpt lat="46.01867" lon="6.51734">
        <ele>1696</ele>
        <time>2018-01-28T12:29:47Z</time>
      </trkpt>
      <trkpt lat="46.0187" lon="6.51738">
        <ele>1696</ele>
        <time>2018-01-28T12:29:48Z</time>
      </trkpt>
      <trkpt lat="46.01871" lon="6.51744">
        <ele>1696</ele>
        <time>2018-01-28T12:29:49Z</time>
      </trkpt>
      <trkpt lat="46.01869" lon="6.51749">
        <ele>1695</ele>
        <time>2018-01-28T12:29:50Z</time>
      </trkpt>
      <trkpt lat="46.01867" lon="6.51753">
        <ele>1687</ele>
        <time>2018-01-28T12:29:51Z</time>
      </trkpt>
      <trkpt lat="46.01867" lon="6.51757">
        <ele>1686</ele>
        <time>2018-01-28T12:29:52Z</time>
      </trkpt>
      <trkpt lat="46.01867" lon="6.51761">
        <ele>1687</ele>
        <time>2018-01-28T12:29:53Z</time>
      </trkpt>
      <trkpt lat="46.01869" lon="6.51765">
        <ele>1687</ele>
        <time>2018-01-28T12:29:54Z</time>
      </trkpt>
      <trkpt lat="46.01872" lon="6.51778">
        <ele>1687</ele>
        <time>2018-01-28T12:29:57Z</time>
      </trkpt>
      <trkpt lat="46.01873" lon="6.51784">
        <ele>1686</ele>
        <time>2018-01-28T12:29:59Z</time>
      </trkpt>
      <trkpt lat="46.01872" lon="6.51787">
        <ele>1686</ele>
        <time>2018-01-28T12:30:00Z</time>
      </trkpt>
      <trkpt lat="46.01871" lon="6.51791">
        <ele>1686</ele>
        <time>2018-01-28T12:30:01Z</time>
      </trkpt>
      <trkpt lat="46.01868" lon="6.51794">
        <ele>1685</ele>
        <time>2018-01-28T12:30:02Z</time>
      </trkpt>
      <trkpt lat="46.01866" lon="6.51798">
        <ele>1684</ele>
        <time>2018-01-28T12:30:03Z</time>
      </trkpt>
      <trkpt lat="46.01863" lon="6.51805">
        <ele>1683</ele>
        <time>2018-01-28T12:30:04Z</time>
      </trkpt>
      <trkpt lat="46.01859" lon="6.51809">
        <ele>1682</ele>
        <time>2018-01-28T12:30:05Z</time>
      </trkpt>
      <trkpt lat="46.01855" lon="6.51811">
        <ele>1681</ele>
        <time>2018-01-28T12:30:06Z</time>
      </trkpt>
      <trkpt lat="46.01852" lon="6.51814">
        <ele>1679</ele>
        <time>2018-01-28T12:30:07Z</time>
      </trkpt>
      <trkpt lat="46.01851" lon="6.5182">
        <ele>1678</ele>
        <time>2018-01-28T12:30:08Z</time>
      </trkpt>
      <trkpt lat="46.01848" lon="6.51827">
        <ele>1675</ele>
        <time>2018-01-28T12:30:09Z</time>
      </trkpt>
      <trkpt lat="46.01846" lon="6.51832">
        <ele>1674</ele>
        <time>2018-01-28T12:30:10Z</time>
      </trkpt>
      <trkpt lat="46.01844" lon="6.51838">
        <ele>1670</ele>
        <time>2018-01-28T12:30:11Z</time>
      </trkpt>
      <trkpt lat="46.01841" lon="6.51842">
        <ele>1670</ele>
        <time>2018-01-28T12:30:12Z</time>
      </trkpt>
      <trkpt lat="46.01838" lon="6.51843">
        <ele>1669</ele>
        <time>2018-01-28T12:30:13Z</time>
      </trkpt>
      <trkpt lat="46.01835" lon="6.51842">
        <ele>1669</ele>
        <time>2018-01-28T12:30:14Z</time>
      </trkpt>
      <trkpt lat="46.01833" lon="6.51841">
        <ele>1660</ele>
        <time>2018-01-28T12:30:15Z</time>
      </trkpt>
      <trkpt lat="46.01831" lon="6.51839">
        <ele>1661</ele>
        <time>2018-01-28T12:30:16Z</time>
      </trkpt>
      <trkpt lat="46.01827" lon="6.51843">
        <ele>1658</ele>
        <time>2018-01-28T12:30:23Z</time>
      </trkpt>
      <trkpt lat="46.01827" lon="6.51846">
        <ele>1657</ele>
        <time>2018-01-28T12:30:24Z</time>
      </trkpt>
      <trkpt lat="46.01827" lon="6.51849">
        <ele>1656</ele>
        <time>2018-01-28T12:30:25Z</time>
      </trkpt>
      <trkpt lat="46.01828" lon="6.51854">
        <ele>1654</ele>
        <time>2018-01-28T12:30:26Z</time>
      </trkpt>
      <trkpt lat="46.01828" lon="6.5186">
        <ele>1653</ele>
        <time>2018-01-28T12:30:27Z</time>
      </trkpt>
      <trkpt lat="46.01824" lon="6.51862">
        <ele>1652</ele>
        <time>2018-01-28T12:30:28Z</time>
      </trkpt>
      <trkpt lat="46.0182" lon="6.51863">
        <ele>1651</ele>
        <time>2018-01-28T12:30:29Z</time>
      </trkpt>
      <trkpt lat="46.01817" lon="6.51867">
        <ele>1650</ele>
        <time>2018-01-28T12:30:30Z</time>
      </trkpt>
      <trkpt lat="46.01813" lon="6.51871">
        <ele>1649</ele>
        <time>2018-01-28T12:30:31Z</time>
      </trkpt>
      <trkpt lat="46.01809" lon="6.51872">
        <ele>1648</ele>
        <time>2018-01-28T12:30:32Z</time>
      </trkpt>
      <trkpt lat="46.01806" lon="6.51875">
        <ele>1647</ele>
        <time>2018-01-28T12:30:33Z</time>
      </trkpt>
      <trkpt lat="46.01802" lon="6.51879">
        <ele>1646</ele>
        <time>2018-01-28T12:30:34Z</time>
      </trkpt>
      <trkpt lat="46.01797" lon="6.51879">
        <ele>1645</ele>
        <time>2018-01-28T12:30:35Z</time>
      </trkpt>
      <trkpt lat="46.01792" lon="6.51878">
        <ele>1645</ele>
        <time>2018-01-28T12:30:36Z</time>
      </trkpt>
      <trkpt lat="46.01788" lon="6.51878">
        <ele>1644</ele>
        <time>2018-01-28T12:30:37Z</time>
      </trkpt>
      <trkpt lat="46.01785" lon="6.51879">
        <ele>1643</ele>
        <time>2018-01-28T12:30:38Z</time>
      </trkpt>
      <trkpt lat="46.01783" lon="6.5188">
        <ele>1643</ele>
        <time>2018-01-28T12:30:39Z</time>
      </trkpt>
      <trkpt lat="46.01782" lon="6.51881">
        <ele>1642</ele>
        <time>2018-01-28T12:30:40Z</time>
      </trkpt>
      <trkpt lat="46.01781" lon="6.51881">
        <ele>1642</ele>
        <time>2018-01-28T12:30:41Z</time>
      </trkpt>
      <trkpt lat="46.0178" lon="6.51881">
        <ele>1642</ele>
        <time>2018-01-28T12:30:42Z</time>
      </trkpt>
      <trkpt lat="46.01778" lon="6.51882">
        <ele>1641</ele>
        <time>2018-01-28T12:30:43Z</time>
      </trkpt>
      <trkpt lat="46.01776" lon="6.51882">
        <ele>1641</ele>
        <time>2018-01-28T12:30:44Z</time>
      </trkpt>
      <trkpt lat="46.01772" lon="6.51882">
        <ele>1640</ele>
        <time>2018-01-28T12:30:45Z</time>
      </trkpt>
      <trkpt lat="46.01769" lon="6.51881">
        <ele>1640</ele>
        <time>2018-01-28T12:30:46Z</time>
      </trkpt>
      <trkpt lat="46.01767" lon="6.51881">
        <ele>1640</ele>
        <time>2018-01-28T12:30:47Z</time>
      </trkpt>
      <trkpt lat="46.01757" lon="6.51877">
        <ele>1639</ele>
        <time>2018-01-28T12:30:54Z</time>
      </trkpt>
      <trkpt lat="46.01755" lon="6.51868">
        <ele>1640</ele>
        <time>2018-01-28T12:31:05Z</time>
      </trkpt>
      <trkpt lat="46.01754" lon="6.51866">
        <ele>1640</ele>
        <time>2018-01-28T12:31:06Z</time>
      </trkpt>
      <trkpt lat="46.01753" lon="6.51864">
        <ele>1640</ele>
        <time>2018-01-28T12:31:13Z</time>
      </trkpt>
      <trkpt lat="46.01752" lon="6.51863">
        <ele>1640</ele>
        <time>2018-01-28T12:31:18Z</time>
      </trkpt>
      <trkpt lat="46.01751" lon="6.51857">
        <ele>1640</ele>
        <time>2018-01-28T12:31:20Z</time>
      </trkpt>
      <trkpt lat="46.01749" lon="6.51852">
        <ele>1623</ele>
        <time>2018-01-28T12:31:21Z</time>
      </trkpt>
      <trkpt lat="46.01747" lon="6.51846">
        <ele>1626</ele>
        <time>2018-01-28T12:31:22Z</time>
      </trkpt>
      <trkpt lat="46.01746" lon="6.51843">
        <ele>1627</ele>
        <time>2018-01-28T12:31:23Z</time>
      </trkpt>
      <trkpt lat="46.01745" lon="6.51842">
        <ele>1628</ele>
        <time>2018-01-28T12:31:24Z</time>
      </trkpt>
      <trkpt lat="46.01743" lon="6.51838">
        <ele>1628</ele>
        <time>2018-01-28T12:31:30Z</time>
      </trkpt>
      <trkpt lat="46.0174" lon="6.51837">
        <ele>1627</ele>
        <time>2018-01-28T12:31:31Z</time>
      </trkpt>
      <trkpt lat="46.01737" lon="6.51835">
        <ele>1626</ele>
        <time>2018-01-28T12:31:32Z</time>
      </trkpt>
      <trkpt lat="46.01733" lon="6.5183">
        <ele>1633</ele>
        <time>2018-01-28T12:31:33Z</time>
      </trkpt>
      <trkpt lat="46.0173" lon="6.51827">
        <ele>1633</ele>
        <time>2018-01-28T12:31:34Z</time>
      </trkpt>
      <trkpt lat="46.01726" lon="6.51826">
        <ele>1632</ele>
        <time>2018-01-28T12:31:35Z</time>
      </trkpt>
      <trkpt lat="46.01724" lon="6.5183">
        <ele>1631</ele>
        <time>2018-01-28T12:31:36Z</time>
      </trkpt>
      <trkpt lat="46.01723" lon="6.51833">
        <ele>1631</ele>
        <time>2018-01-28T12:31:37Z</time>
      </trkpt>
      <trkpt lat="46.01723" lon="6.51835">
        <ele>1618</ele>
        <time>2018-01-28T12:31:38Z</time>
      </trkpt>
      <trkpt lat="46.01721" lon="6.51839">
        <ele>1617</ele>
        <time>2018-01-28T12:31:40Z</time>
      </trkpt>
      <trkpt lat="46.0172" lon="6.51842">
        <ele>1616</ele>
        <time>2018-01-28T12:31:41Z</time>
      </trkpt>
      <trkpt lat="46.01719" lon="6.51843">
        <ele>1615</ele>
        <time>2018-01-28T12:31:42Z</time>
      </trkpt>
      <trkpt lat="46.01715" lon="6.51847">
        <ele>1614</ele>
        <time>2018-01-28T12:31:45Z</time>
      </trkpt>
      <trkpt lat="46.01713" lon="6.51849">
        <ele>1613</ele>
        <time>2018-01-28T12:31:46Z</time>
      </trkpt>
      <trkpt lat="46.01713" lon="6.51852">
        <ele>1612</ele>
        <time>2018-01-28T12:31:47Z</time>
      </trkpt>
      <trkpt lat="46.01713" lon="6.51856">
        <ele>1612</ele>
        <time>2018-01-28T12:31:48Z</time>
      </trkpt>
      <trkpt lat="46.01714" lon="6.5186">
        <ele>1612</ele>
        <time>2018-01-28T12:31:49Z</time>
      </trkpt>
      <trkpt lat="46.01715" lon="6.51872">
        <ele>1610</ele>
        <time>2018-01-28T12:31:53Z</time>
      </trkpt>
      <trkpt lat="46.01713" lon="6.51873">
        <ele>1610</ele>
        <time>2018-01-28T12:31:54Z</time>
      </trkpt>
      <trkpt lat="46.0171" lon="6.51873">
        <ele>1609</ele>
        <time>2018-01-28T12:31:55Z</time>
      </trkpt>
      <trkpt lat="46.01708" lon="6.51877">
        <ele>1608</ele>
        <time>2018-01-28T12:31:56Z</time>
      </trkpt>
      <trkpt lat="46.01706" lon="6.51879">
        <ele>1607</ele>
        <time>2018-01-28T12:31:57Z</time>
      </trkpt>
      <trkpt lat="46.01702" lon="6.51879">
        <ele>1607</ele>
        <time>2018-01-28T12:31:58Z</time>
      </trkpt>
      <trkpt lat="46.01698" lon="6.51878">
        <ele>1606</ele>
        <time>2018-01-28T12:31:59Z</time>
      </trkpt>
      <trkpt lat="46.01696" lon="6.51879">
        <ele>1605</ele>
        <time>2018-01-28T12:32:00Z</time>
      </trkpt>
      <trkpt lat="46.01695" lon="6.51881">
        <ele>1604</ele>
        <time>2018-01-28T12:32:01Z</time>
      </trkpt>
      <trkpt lat="46.01695" lon="6.51884">
        <ele>1604</ele>
        <time>2018-01-28T12:32:02Z</time>
      </trkpt>
      <trkpt lat="46.01693" lon="6.51894">
        <ele>1602</ele>
        <time>2018-01-28T12:32:04Z</time>
      </trkpt>
      <trkpt lat="46.01694" lon="6.51899">
        <ele>1601</ele>
        <time>2018-01-28T12:32:05Z</time>
      </trkpt>
      <trkpt lat="46.01691" lon="6.51901">
        <ele>1599</ele>
        <time>2018-01-28T12:32:06Z</time>
      </trkpt>
      <trkpt lat="46.01688" lon="6.51901">
        <ele>1598</ele>
        <time>2018-01-28T12:32:07Z</time>
      </trkpt>
      <trkpt lat="46.01684" lon="6.51899">
        <ele>1597</ele>
        <time>2018-01-28T12:32:08Z</time>
      </trkpt>
      <trkpt lat="46.01681" lon="6.51896">
        <ele>1597</ele>
        <time>2018-01-28T12:32:09Z</time>
      </trkpt>
      <trkpt lat="46.0168" lon="6.51895">
        <ele>1597</ele>
        <time>2018-01-28T12:32:10Z</time>
      </trkpt>
      <trkpt lat="46.01675" lon="6.51896">
        <ele>1595</ele>
        <time>2018-01-28T12:32:14Z</time>
      </trkpt>
      <trkpt lat="46.0167" lon="6.519">
        <ele>1592</ele>
        <time>2018-01-28T12:32:23Z</time>
      </trkpt>
      <trkpt lat="46.01669" lon="6.51903">
        <ele>1590</ele>
        <time>2018-01-28T12:32:24Z</time>
      </trkpt>
      <trkpt lat="46.01667" lon="6.51904">
        <ele>1589</ele>
        <time>2018-01-28T12:32:25Z</time>
      </trkpt>
      <trkpt lat="46.01666" lon="6.51902">
        <ele>1574</ele>
        <time>2018-01-28T12:32:26Z</time>
      </trkpt>
      <trkpt lat="46.01664" lon="6.51899">
        <ele>1574</ele>
        <time>2018-01-28T12:32:27Z</time>
      </trkpt>
      <trkpt lat="46.01662" lon="6.51897">
        <ele>1574</ele>
        <time>2018-01-28T12:32:28Z</time>
      </trkpt>
      <trkpt lat="46.01659" lon="6.51897">
        <ele>1573</ele>
        <time>2018-01-28T12:32:29Z</time>
      </trkpt>
      <trkpt lat="46.01655" lon="6.51901">
        <ele>1573</ele>
        <time>2018-01-28T12:32:30Z</time>
      </trkpt>
      <trkpt lat="46.01651" lon="6.51904">
        <ele>1572</ele>
        <time>2018-01-28T12:32:31Z</time>
      </trkpt>
      <trkpt lat="46.01644" lon="6.51906">
        <ele>1571</ele>
        <time>2018-01-28T12:32:32Z</time>
      </trkpt>
      <trkpt lat="46.01638" lon="6.51905">
        <ele>1569</ele>
        <time>2018-01-28T12:32:33Z</time>
      </trkpt>
      <trkpt lat="46.01631" lon="6.51905">
        <ele>1567</ele>
        <time>2018-01-28T12:32:34Z</time>
      </trkpt>
      <trkpt lat="46.01625" lon="6.51903">
        <ele>1566</ele>
        <time>2018-01-28T12:32:35Z</time>
      </trkpt>
      <trkpt lat="46.01618" lon="6.519">
        <ele>1564</ele>
        <time>2018-01-28T12:32:36Z</time>
      </trkpt>
      <trkpt lat="46.01612" lon="6.51896">
        <ele>1562</ele>
        <time>2018-01-28T12:32:37Z</time>
      </trkpt>
      <trkpt lat="46.01593" lon="6.51883">
        <ele>1561</ele>
        <time>2018-01-28T12:32:41Z</time>
      </trkpt>
      <trkpt lat="46.01589" lon="6.51883">
        <ele>1560</ele>
        <time>2018-01-28T12:32:42Z</time>
      </trkpt>
      <trkpt lat="46.01583" lon="6.51886">
        <ele>1541</ele>
        <time>2018-01-28T12:32:43Z</time>
      </trkpt>
      <trkpt lat="46.01577" lon="6.5189">
        <ele>1540</ele>
        <time>2018-01-28T12:32:44Z</time>
      </trkpt>
      <trkpt lat="46.01571" lon="6.51895">
        <ele>1540</ele>
        <time>2018-01-28T12:32:45Z</time>
      </trkpt>
      <trkpt lat="46.01566" lon="6.51903">
        <ele>1539</ele>
        <time>2018-01-28T12:32:46Z</time>
      </trkpt>
      <trkpt lat="46.01559" lon="6.51909">
        <ele>1538</ele>
        <time>2018-01-28T12:32:47Z</time>
      </trkpt>
      <trkpt lat="46.01553" lon="6.51913">
        <ele>1537</ele>
        <time>2018-01-28T12:32:48Z</time>
      </trkpt>
      <trkpt lat="46.01547" lon="6.51921">
        <ele>1528</ele>
        <time>2018-01-28T12:32:49Z</time>
      </trkpt>
      <trkpt lat="46.01544" lon="6.51931">
        <ele>1527</ele>
        <time>2018-01-28T12:32:50Z</time>
      </trkpt>
      <trkpt lat="46.01542" lon="6.51937">
        <ele>1526</ele>
        <time>2018-01-28T12:32:51Z</time>
      </trkpt>
      <trkpt lat="46.01538" lon="6.5194">
        <ele>1526</ele>
        <time>2018-01-28T12:32:52Z</time>
      </trkpt>
      <trkpt lat="46.01534" lon="6.5194">
        <ele>1525</ele>
        <time>2018-01-28T12:32:53Z</time>
      </trkpt>
      <trkpt lat="46.01529" lon="6.51941">
        <ele>1525</ele>
        <time>2018-01-28T12:32:54Z</time>
      </trkpt>
      <trkpt lat="46.01524" lon="6.51943">
        <ele>1524</ele>
        <time>2018-01-28T12:32:55Z</time>
      </trkpt>
      <trkpt lat="46.0152" lon="6.51947">
        <ele>1523</ele>
        <time>2018-01-28T12:32:56Z</time>
      </trkpt>
      <trkpt lat="46.01516" lon="6.51953">
        <ele>1523</ele>
        <time>2018-01-28T12:32:57Z</time>
      </trkpt>
      <trkpt lat="46.01512" lon="6.51958">
        <ele>1522</ele>
        <time>2018-01-28T12:32:58Z</time>
      </trkpt>
      <trkpt lat="46.01509" lon="6.51965">
        <ele>1521</ele>
        <time>2018-01-28T12:32:59Z</time>
      </trkpt>
      <trkpt lat="46.01506" lon="6.51971">
        <ele>1520</ele>
        <time>2018-01-28T12:33:00Z</time>
      </trkpt>
      <trkpt lat="46.01504" lon="6.51976">
        <ele>1519</ele>
        <time>2018-01-28T12:33:01Z</time>
      </trkpt>
      <trkpt lat="46.01502" lon="6.51983">
        <ele>1517</ele>
        <time>2018-01-28T12:33:02Z</time>
      </trkpt>
      <trkpt lat="46.01499" lon="6.51989">
        <ele>1509</ele>
        <time>2018-01-28T12:33:03Z</time>
      </trkpt>
      <trkpt lat="46.01495" lon="6.51992">
        <ele>1509</ele>
        <time>2018-01-28T12:33:04Z</time>
      </trkpt>
      <trkpt lat="46.01491" lon="6.51996">
        <ele>1509</ele>
        <time>2018-01-28T12:33:05Z</time>
      </trkpt>
      <trkpt lat="46.01487" lon="6.52001">
        <ele>1503</ele>
        <time>2018-01-28T12:33:06Z</time>
      </trkpt>
      <trkpt lat="46.01483" lon="6.52004">
        <ele>1501</ele>
        <time>2018-01-28T12:33:07Z</time>
      </trkpt>
      <trkpt lat="46.0148" lon="6.52007">
        <ele>1500</ele>
        <time>2018-01-28T12:33:08Z</time>
      </trkpt>
      <trkpt lat="46.0148" lon="6.52012">
        <ele>1499</ele>
        <time>2018-01-28T12:33:09Z</time>
      </trkpt>
      <trkpt lat="46.01481" lon="6.52014">
        <ele>1499</ele>
        <time>2018-01-28T12:33:10Z</time>
      </trkpt>
      <trkpt lat="46.01482" lon="6.52017">
        <ele>1499</ele>
        <time>2018-01-28T12:33:16Z</time>
      </trkpt>
      <trkpt lat="46.01482" lon="6.52019">
        <ele>1499</ele>
        <time>2018-01-28T12:33:17Z</time>
      </trkpt>
      <trkpt lat="46.01481" lon="6.52022">
        <ele>1498</ele>
        <time>2018-01-28T12:33:18Z</time>
      </trkpt>
      <trkpt lat="46.01479" lon="6.52024">
        <ele>1497</ele>
        <time>2018-01-28T12:33:19Z</time>
      </trkpt>
      <trkpt lat="46.01476" lon="6.52026">
        <ele>1497</ele>
        <time>2018-01-28T12:33:20Z</time>
      </trkpt>
      <trkpt lat="46.01473" lon="6.52026">
        <ele>1496</ele>
        <time>2018-01-28T12:33:21Z</time>
      </trkpt>
      <trkpt lat="46.01469" lon="6.52025">
        <ele>1496</ele>
        <time>2018-01-28T12:33:22Z</time>
      </trkpt>
      <trkpt lat="46.01466" lon="6.52026">
        <ele>1495</ele>
        <time>2018-01-28T12:33:23Z</time>
      </trkpt>
      <trkpt lat="46.01463" lon="6.52025">
        <ele>1495</ele>
        <time>2018-01-28T12:33:24Z</time>
      </trkpt>
      <trkpt lat="46.01459" lon="6.52023">
        <ele>1494</ele>
        <time>2018-01-28T12:33:25Z</time>
      </trkpt>
      <trkpt lat="46.01451" lon="6.52018">
        <ele>1493</ele>
        <time>2018-01-28T12:33:27Z</time>
      </trkpt>
      <trkpt lat="46.01448" lon="6.52021">
        <ele>1492</ele>
        <time>2018-01-28T12:33:28Z</time>
      </trkpt>
      <trkpt lat="46.01446" lon="6.52025">
        <ele>1492</ele>
        <time>2018-01-28T12:33:29Z</time>
      </trkpt>
      <trkpt lat="46.01442" lon="6.52029">
        <ele>1491</ele>
        <time>2018-01-28T12:33:30Z</time>
      </trkpt>
      <trkpt lat="46.01436" lon="6.52038">
        <ele>1490</ele>
        <time>2018-01-28T12:33:32Z</time>
      </trkpt>
      <trkpt lat="46.01435" lon="6.52044">
        <ele>1489</ele>
        <time>2018-01-28T12:33:33Z</time>
      </trkpt>
      <trkpt lat="46.01433" lon="6.52046">
        <ele>1489</ele>
        <time>2018-01-28T12:33:34Z</time>
      </trkpt>
      <trkpt lat="46.01429" lon="6.52046">
        <ele>1489</ele>
        <time>2018-01-28T12:33:35Z</time>
      </trkpt>
      <trkpt lat="46.01425" lon="6.52047">
        <ele>1488</ele>
        <time>2018-01-28T12:33:36Z</time>
      </trkpt>
      <trkpt lat="46.0142" lon="6.5205">
        <ele>1487</ele>
        <time>2018-01-28T12:33:37Z</time>
      </trkpt>
      <trkpt lat="46.01416" lon="6.52054">
        <ele>1468</ele>
        <time>2018-01-28T12:33:38Z</time>
      </trkpt>
      <trkpt lat="46.01413" lon="6.5206">
        <ele>1468</ele>
        <time>2018-01-28T12:33:39Z</time>
      </trkpt>
      <trkpt lat="46.0141" lon="6.52063">
        <ele>1468</ele>
        <time>2018-01-28T12:33:40Z</time>
      </trkpt>
      <trkpt lat="46.01407" lon="6.52066">
        <ele>1467</ele>
        <time>2018-01-28T12:33:41Z</time>
      </trkpt>
      <trkpt lat="46.01406" lon="6.52071">
        <ele>1468</ele>
        <time>2018-01-28T12:33:42Z</time>
      </trkpt>
      <trkpt lat="46.01405" lon="6.52075">
        <ele>1468</ele>
        <time>2018-01-28T12:33:43Z</time>
      </trkpt>
      <trkpt lat="46.01403" lon="6.52077">
        <ele>1468</ele>
        <time>2018-01-28T12:33:44Z</time>
      </trkpt>
      <trkpt lat="46.014" lon="6.52081">
        <ele>1467</ele>
        <time>2018-01-28T12:33:45Z</time>
      </trkpt>
      <trkpt lat="46.01398" lon="6.52085">
        <ele>1454</ele>
        <time>2018-01-28T12:33:46Z</time>
      </trkpt>
      <trkpt lat="46.01397" lon="6.52091">
        <ele>1452</ele>
        <time>2018-01-28T12:33:47Z</time>
      </trkpt>
      <trkpt lat="46.01398" lon="6.52098">
        <ele>1451</ele>
        <time>2018-01-28T12:33:48Z</time>
      </trkpt>
      <trkpt lat="46.01399" lon="6.52105">
        <ele>1449</ele>
        <time>2018-01-28T12:33:49Z</time>
      </trkpt>
      <trkpt lat="46.01402" lon="6.5211">
        <ele>1448</ele>
        <time>2018-01-28T12:33:50Z</time>
      </trkpt>
      <trkpt lat="46.01405" lon="6.52115">
        <ele>1446</ele>
        <time>2018-01-28T12:33:51Z</time>
      </trkpt>
      <trkpt lat="46.01407" lon="6.52121">
        <ele>1445</ele>
        <time>2018-01-28T12:33:52Z</time>
      </trkpt>
      <trkpt lat="46.01408" lon="6.52127">
        <ele>1444</ele>
        <time>2018-01-28T12:33:53Z</time>
      </trkpt>
      <trkpt lat="46.01407" lon="6.52133">
        <ele>1442</ele>
        <time>2018-01-28T12:33:54Z</time>
      </trkpt>
      <trkpt lat="46.01407" lon="6.52141">
        <ele>1442</ele>
        <time>2018-01-28T12:33:55Z</time>
      </trkpt>
      <trkpt lat="46.01405" lon="6.52148">
        <ele>1441</ele>
        <time>2018-01-28T12:33:56Z</time>
      </trkpt>
      <trkpt lat="46.01404" lon="6.52155">
        <ele>1441</ele>
        <time>2018-01-28T12:33:57Z</time>
      </trkpt>
      <trkpt lat="46.01405" lon="6.52162">
        <ele>1442</ele>
        <time>2018-01-28T12:33:58Z</time>
      </trkpt>
      <trkpt lat="46.01407" lon="6.52168">
        <ele>1435</ele>
        <time>2018-01-28T12:33:59Z</time>
      </trkpt>
      <trkpt lat="46.01409" lon="6.52175">
        <ele>1434</ele>
        <time>2018-01-28T12:34:00Z</time>
      </trkpt>
      <trkpt lat="46.01412" lon="6.52182">
        <ele>1429</ele>
        <time>2018-01-28T12:34:01Z</time>
      </trkpt>
      <trkpt lat="46.01409" lon="6.52186">
        <ele>1425</ele>
        <time>2018-01-28T12:34:02Z</time>
      </trkpt>
      <trkpt lat="46.01406" lon="6.52192">
        <ele>1422</ele>
        <time>2018-01-28T12:34:03Z</time>
      </trkpt>
      <trkpt lat="46.01403" lon="6.52205">
        <ele>1417</ele>
        <time>2018-01-28T12:34:05Z</time>
      </trkpt>
      <trkpt lat="46.01401" lon="6.52208">
        <ele>1416</ele>
        <time>2018-01-28T12:34:06Z</time>
      </trkpt>
      <trkpt lat="46.01393" lon="6.5221">
        <ele>1413</ele>
        <time>2018-01-28T12:34:08Z</time>
      </trkpt>
      <trkpt lat="46.01389" lon="6.52209">
        <ele>1412</ele>
        <time>2018-01-28T12:34:09Z</time>
      </trkpt>
      <trkpt lat="46.01382" lon="6.52205">
        <ele>1411</ele>
        <time>2018-01-28T12:34:11Z</time>
      </trkpt>
      <trkpt lat="46.01378" lon="6.52202">
        <ele>1410</ele>
        <time>2018-01-28T12:34:14Z</time>
      </trkpt>
      <trkpt lat="46.01376" lon="6.522">
        <ele>1410</ele>
        <time>2018-01-28T12:34:15Z</time>
      </trkpt>
      <trkpt lat="46.01369" lon="6.52193">
        <ele>1408</ele>
        <time>2018-01-28T12:34:18Z</time>
      </trkpt>
      <trkpt lat="46.01367" lon="6.52191">
        <ele>1408</ele>
        <time>2018-01-28T12:34:19Z</time>
      </trkpt>
      <trkpt lat="46.01356" lon="6.52181">
        <ele>1405</ele>
        <time>2018-01-28T12:34:24Z</time>
      </trkpt>
      <trkpt lat="46.01347" lon="6.5217">
        <ele>1401</ele>
        <time>2018-01-28T12:34:28Z</time>
      </trkpt>
      <trkpt lat="46.01346" lon="6.52168">
        <ele>1400</ele>
        <time>2018-01-28T12:34:29Z</time>
      </trkpt>
      <trkpt lat="46.01344" lon="6.52165">
        <ele>1409</ele>
        <time>2018-01-28T12:34:33Z</time>
      </trkpt>
      <trkpt lat="46.01343" lon="6.52164">
        <ele>1408</ele>
        <time>2018-01-28T12:34:34Z</time>
      </trkpt>
      <trkpt lat="46.01339" lon="6.52155">
        <ele>1411</ele>
        <time>2018-01-28T12:34:46Z</time>
      </trkpt>
      <trkpt lat="46.01338" lon="6.52154">
        <ele>1411</ele>
        <time>2018-01-28T12:34:47Z</time>
      </trkpt>
      <trkpt lat="46.01337" lon="6.52153">
        <ele>1412</ele>
        <time>2018-01-28T12:34:48Z</time>
      </trkpt>
      <trkpt lat="46.01333" lon="6.52148">
        <ele>1392</ele>
        <time>2018-01-28T12:34:50Z</time>
      </trkpt>
      <trkpt lat="46.01333" lon="6.52145">
        <ele>1392</ele>
        <time>2018-01-28T12:34:51Z</time>
      </trkpt>
      <trkpt lat="46.0133" lon="6.52141">
        <ele>1392</ele>
        <time>2018-01-28T12:34:52Z</time>
      </trkpt>
      <trkpt lat="46.01326" lon="6.52138">
        <ele>1392</ele>
        <time>2018-01-28T12:34:53Z</time>
      </trkpt>
      <trkpt lat="46.01323" lon="6.52134">
        <ele>1392</ele>
        <time>2018-01-28T12:34:54Z</time>
      </trkpt>
      <trkpt lat="46.01319" lon="6.52131">
        <ele>1392</ele>
        <time>2018-01-28T12:34:55Z</time>
      </trkpt>
      <trkpt lat="46.01316" lon="6.52128">
        <ele>1392</ele>
        <time>2018-01-28T12:34:56Z</time>
      </trkpt>
      <trkpt lat="46.01296" lon="6.52113">
        <ele>1390</ele>
        <time>2018-01-28T12:35:00Z</time>
      </trkpt>
      <trkpt lat="46.01291" lon="6.52108">
        <ele>1389</ele>
        <time>2018-01-28T12:35:01Z</time>
      </trkpt>
      <trkpt lat="46.01281" lon="6.52099">
        <ele>1387</ele>
        <time>2018-01-28T12:35:03Z</time>
      </trkpt>
      <trkpt lat="46.01265" lon="6.52082">
        <ele>1395</ele>
        <time>2018-01-28T12:35:06Z</time>
      </trkpt>
      <trkpt lat="46.01261" lon="6.52077">
        <ele>1393</ele>
        <time>2018-01-28T12:35:07Z</time>
      </trkpt>
      <trkpt lat="46.01248" lon="6.52059">
        <ele>1372</ele>
        <time>2018-01-28T12:35:10Z</time>
      </trkpt>
      <trkpt lat="46.01243" lon="6.52055">
        <ele>1372</ele>
        <time>2018-01-28T12:35:11Z</time>
      </trkpt>
      <trkpt lat="46.01236" lon="6.52051">
        <ele>1372</ele>
        <time>2018-01-28T12:35:12Z</time>
      </trkpt>
      <trkpt lat="46.01231" lon="6.52046">
        <ele>1371</ele>
        <time>2018-01-28T12:35:13Z</time>
      </trkpt>
      <trkpt lat="46.01219" lon="6.52033">
        <ele>1371</ele>
        <time>2018-01-28T12:35:17Z</time>
      </trkpt>
      <trkpt lat="46.01218" lon="6.52033">
        <ele>1370</ele>
        <time>2018-01-28T12:35:18Z</time>
      </trkpt>
      <trkpt lat="46.01217" lon="6.52031">
        <ele>1370</ele>
        <time>2018-01-28T12:35:19Z</time>
      </trkpt>
      <trkpt lat="46.01215" lon="6.5203">
        <ele>1370</ele>
        <time>2018-01-28T12:35:20Z</time>
      </trkpt>
      <trkpt lat="46.01213" lon="6.52029">
        <ele>1369</ele>
        <time>2018-01-28T12:35:21Z</time>
      </trkpt>
      <trkpt lat="46.01212" lon="6.52028">
        <ele>1369</ele>
        <time>2018-01-28T12:35:22Z</time>
      </trkpt>
      <trkpt lat="46.01202" lon="6.52016">
        <ele>1367</ele>
        <time>2018-01-28T12:35:28Z</time>
      </trkpt>
      <trkpt lat="46.0119" lon="6.52003">
        <ele>1362</ele>
        <time>2018-01-28T12:35:31Z</time>
      </trkpt>
      <trkpt lat="46.01177" lon="6.51986">
        <ele>1375</ele>
        <time>2018-01-28T12:35:34Z</time>
      </trkpt>
      <trkpt lat="46.01173" lon="6.5198">
        <ele>1376</ele>
        <time>2018-01-28T12:35:35Z</time>
      </trkpt>
      <trkpt lat="46.01168" lon="6.51974">
        <ele>1379</ele>
        <time>2018-01-28T12:35:36Z</time>
      </trkpt>
      <trkpt lat="46.01163" lon="6.51969">
        <ele>1354</ele>
        <time>2018-01-28T12:35:37Z</time>
      </trkpt>
      <trkpt lat="46.01157" lon="6.51965">
        <ele>1354</ele>
        <time>2018-01-28T12:35:38Z</time>
      </trkpt>
      <trkpt lat="46.01153" lon="6.51962">
        <ele>1354</ele>
        <time>2018-01-28T12:35:39Z</time>
      </trkpt>
      <trkpt lat="46.01149" lon="6.51959">
        <ele>1354</ele>
        <time>2018-01-28T12:35:40Z</time>
      </trkpt>
      <trkpt lat="46.01145" lon="6.51957">
        <ele>1354</ele>
        <time>2018-01-28T12:35:41Z</time>
      </trkpt>
      <trkpt lat="46.01143" lon="6.51956">
        <ele>1354</ele>
        <time>2018-01-28T12:35:42Z</time>
      </trkpt>
      <trkpt lat="46.01141" lon="6.51955">
        <ele>1354</ele>
        <time>2018-01-28T12:35:43Z</time>
      </trkpt>
      <trkpt lat="46.01133" lon="6.51951">
        <ele>1352</ele>
        <time>2018-01-28T12:35:49Z</time>
      </trkpt>
      <trkpt lat="46.01132" lon="6.51949">
        <ele>1352</ele>
        <time>2018-01-28T12:35:50Z</time>
      </trkpt>
      <trkpt lat="46.01131" lon="6.51948">
        <ele>1352</ele>
        <time>2018-01-28T12:35:51Z</time>
      </trkpt>
      <trkpt lat="46.01129" lon="6.51947">
        <ele>1352</ele>
        <time>2018-01-28T12:35:52Z</time>
      </trkpt>
      <trkpt lat="46.01127" lon="6.51945">
        <ele>1352</ele>
        <time>2018-01-28T12:35:53Z</time>
      </trkpt>
      <trkpt lat="46.01126" lon="6.51944">
        <ele>1352</ele>
        <time>2018-01-28T12:35:54Z</time>
      </trkpt>
      <trkpt lat="46.01124" lon="6.51942">
        <ele>1351</ele>
        <time>2018-01-28T12:35:55Z</time>
      </trkpt>
      <trkpt lat="46.01103" lon="6.51924">
        <ele>1347</ele>
        <time>2018-01-28T12:36:03Z</time>
      </trkpt>
      <trkpt lat="46.01067" lon="6.51885">
        <ele>1344</ele>
        <time>2018-01-28T12:36:15Z</time>
      </trkpt>
      <trkpt lat="46.01055" lon="6.51875">
        <ele>1344</ele>
        <time>2018-01-28T12:36:19Z</time>
      </trkpt>
      <trkpt lat="46.0104" lon="6.51854">
        <ele>1344</ele>
        <time>2018-01-28T12:36:27Z</time>
      </trkpt>
      <trkpt lat="46.01022" lon="6.51835">
        <ele>1342</ele>
        <time>2018-01-28T12:36:37Z</time>
      </trkpt>
      <trkpt lat="46.01007" lon="6.51821">
        <ele>1354</ele>
        <time>2018-01-28T12:36:44Z</time>
      </trkpt>
      <trkpt lat="46.00968" lon="6.51792">
        <ele>1340</ele>
        <time>2018-01-28T12:36:57Z</time>
      </trkpt>
      <trkpt lat="46.00925" lon="6.51767">
        <ele>1333</ele>
        <time>2018-01-28T12:37:08Z</time>
      </trkpt>
      <trkpt lat="46.00922" lon="6.51763">
        <ele>1333</ele>
        <time>2018-01-28T12:37:09Z</time>
      </trkpt>
      <trkpt lat="46.00919" lon="6.5176">
        <ele>1332</ele>
        <time>2018-01-28T12:37:10Z</time>
      </trkpt>
      <trkpt lat="46.00907" lon="6.51743">
        <ele>1327</ele>
        <time>2018-01-28T12:37:15Z</time>
      </trkpt>
      <trkpt lat="46.00899" lon="6.51727">
        <ele>1326</ele>
        <time>2018-01-28T12:37:22Z</time>
      </trkpt>
      <trkpt lat="46.00897" lon="6.51725">
        <ele>1326</ele>
        <time>2018-01-28T12:37:23Z</time>
      </trkpt>
      <trkpt lat="46.00896" lon="6.51724">
        <ele>1325</ele>
        <time>2018-01-28T12:37:24Z</time>
      </trkpt>
      <trkpt lat="46.00891" lon="6.51718">
        <ele>1325</ele>
        <time>2018-01-28T12:37:29Z</time>
      </trkpt>
      <trkpt lat="46.00891" lon="6.51716">
        <ele>1325</ele>
        <time>2018-01-28T12:37:30Z</time>
      </trkpt>
      <trkpt lat="46.0089" lon="6.51715">
        <ele>1325</ele>
        <time>2018-01-28T12:37:31Z</time>
      </trkpt>
      <trkpt lat="46.00889" lon="6.51713">
        <ele>1325</ele>
        <time>2018-01-28T12:37:32Z</time>
      </trkpt>
      <trkpt lat="46.00888" lon="6.51711">
        <ele>1325</ele>
        <time>2018-01-28T12:37:33Z</time>
      </trkpt>
      <trkpt lat="46.00881" lon="6.51701">
        <ele>1325</ele>
        <time>2018-01-28T12:37:38Z</time>
      </trkpt>
      <trkpt lat="46.00874" lon="6.5169">
        <ele>1324</ele>
        <time>2018-01-28T12:37:43Z</time>
      </trkpt>
      <trkpt lat="46.00868" lon="6.51622">
        <ele>1329</ele>
        <time>2018-01-28T12:38:08Z</time>
      </trkpt>
      <trkpt lat="46.00868" lon="6.5161">
        <ele>1329</ele>
        <time>2018-01-28T12:38:13Z</time>
      </trkpt>
      <trkpt lat="46.00878" lon="6.51565">
        <ele>1331</ele>
        <time>2018-01-28T12:38:23Z</time>
      </trkpt>
      <trkpt lat="46.00879" lon="6.51557">
        <ele>1331</ele>
        <time>2018-01-28T12:38:24Z</time>
      </trkpt>
      <trkpt lat="46.00881" lon="6.51548">
        <ele>1331</ele>
        <time>2018-01-28T12:38:25Z</time>
      </trkpt>
      <trkpt lat="46.00882" lon="6.5154">
        <ele>1331</ele>
        <time>2018-01-28T12:38:26Z</time>
      </trkpt>
      <trkpt lat="46.00883" lon="6.51533">
        <ele>1331</ele>
        <time>2018-01-28T12:38:27Z</time>
      </trkpt>
      <trkpt lat="46.00885" lon="6.51526">
        <ele>1331</ele>
        <time>2018-01-28T12:38:28Z</time>
      </trkpt>
      <trkpt lat="46.00885" lon="6.51521">
        <ele>1331</ele>
        <time>2018-01-28T12:38:29Z</time>
      </trkpt>
      <trkpt lat="46.00884" lon="6.51517">
        <ele>1331</ele>
        <time>2018-01-28T12:38:30Z</time>
      </trkpt>
      <trkpt lat="46.00888" lon="6.51504">
        <ele>1332</ele>
        <time>2018-01-28T12:38:33Z</time>
      </trkpt>
      <trkpt lat="46.0089" lon="6.51497">
        <ele>1330</ele>
        <time>2018-01-28T12:38:34Z</time>
      </trkpt>
      <trkpt lat="46.0089" lon="6.51488">
        <ele>1330</ele>
        <time>2018-01-28T12:38:35Z</time>
      </trkpt>
      <trkpt lat="46.00886" lon="6.51477">
        <ele>1328</ele>
        <time>2018-01-28T12:38:36Z</time>
      </trkpt>
      <trkpt lat="46.00882" lon="6.51471">
        <ele>1327</ele>
        <time>2018-01-28T12:38:37Z</time>
      </trkpt>
      <trkpt lat="46.00877" lon="6.51472">
        <ele>1326</ele>
        <time>2018-01-28T12:38:38Z</time>
      </trkpt>
      <trkpt lat="46.00875" lon="6.51478">
        <ele>1325</ele>
        <time>2018-01-28T12:38:39Z</time>
      </trkpt>
      <trkpt lat="46.00873" lon="6.51484">
        <ele>1325</ele>
        <time>2018-01-28T12:38:40Z</time>
      </trkpt>
      <trkpt lat="46.00871" lon="6.5149">
        <ele>1324</ele>
        <time>2018-01-28T12:38:41Z</time>
      </trkpt>
      <trkpt lat="46.0087" lon="6.51497">
        <ele>1324</ele>
        <time>2018-01-28T12:38:42Z</time>
      </trkpt>
      <trkpt lat="46.00867" lon="6.51503">
        <ele>1325</ele>
        <time>2018-01-28T12:38:43Z</time>
      </trkpt>
      <trkpt lat="46.00864" lon="6.51508">
        <ele>1324</ele>
        <time>2018-01-28T12:38:44Z</time>
      </trkpt>
      <trkpt lat="46.0086" lon="6.51513">
        <ele>1323</ele>
        <time>2018-01-28T12:38:45Z</time>
      </trkpt>
      <trkpt lat="46.00854" lon="6.51517">
        <ele>1322</ele>
        <time>2018-01-28T12:38:46Z</time>
      </trkpt>
      <trkpt lat="46.00849" lon="6.51523">
        <ele>1321</ele>
        <time>2018-01-28T12:38:47Z</time>
      </trkpt>
      <trkpt lat="46.00839" lon="6.51535">
        <ele>1322</ele>
        <time>2018-01-28T12:38:49Z</time>
      </trkpt>
      <trkpt lat="46.0082" lon="6.51553">
        <ele>1300</ele>
        <time>2018-01-28T12:38:52Z</time>
      </trkpt>
      <trkpt lat="46.00812" lon="6.51553">
        <ele>1299</ele>
        <time>2018-01-28T12:38:53Z</time>
      </trkpt>
      <trkpt lat="46.00806" lon="6.51548">
        <ele>1298</ele>
        <time>2018-01-28T12:38:54Z</time>
      </trkpt>
      <trkpt lat="46.00802" lon="6.51541">
        <ele>1298</ele>
        <time>2018-01-28T12:38:55Z</time>
      </trkpt>
      <trkpt lat="46.00798" lon="6.51537">
        <ele>1297</ele>
        <time>2018-01-28T12:38:56Z</time>
      </trkpt>
      <trkpt lat="46.00796" lon="6.51538">
        <ele>1297</ele>
        <time>2018-01-28T12:38:57Z</time>
      </trkpt>
      <trkpt lat="46.00794" lon="6.51539">
        <ele>1296</ele>
        <time>2018-01-28T12:38:58Z</time>
      </trkpt>
      <trkpt lat="46.00791" lon="6.51539">
        <ele>1296</ele>
        <time>2018-01-28T12:38:59Z</time>
      </trkpt>
      <trkpt lat="46.00786" lon="6.51539">
        <ele>1295</ele>
        <time>2018-01-28T12:39:00Z</time>
      </trkpt>
      <trkpt lat="46.00781" lon="6.51539">
        <ele>1294</ele>
        <time>2018-01-28T12:39:01Z</time>
      </trkpt>
      <trkpt lat="46.00776" lon="6.51541">
        <ele>1294</ele>
        <time>2018-01-28T12:39:02Z</time>
      </trkpt>
      <trkpt lat="46.00773" lon="6.51545">
        <ele>1293</ele>
        <time>2018-01-28T12:39:03Z</time>
      </trkpt>
      <trkpt lat="46.0077" lon="6.51549">
        <ele>1292</ele>
        <time>2018-01-28T12:39:04Z</time>
      </trkpt>
      <trkpt lat="46.00769" lon="6.51553">
        <ele>1292</ele>
        <time>2018-01-28T12:39:05Z</time>
      </trkpt>
      <trkpt lat="46.00769" lon="6.51556">
        <ele>1291</ele>
        <time>2018-01-28T12:39:06Z</time>
      </trkpt>
      <trkpt lat="46.00767" lon="6.51564">
        <ele>1290</ele>
        <time>2018-01-28T12:39:08Z</time>
      </trkpt>
      <trkpt lat="46.00764" lon="6.51566">
        <ele>1289</ele>
        <time>2018-01-28T12:39:09Z</time>
      </trkpt>
      <trkpt lat="46.00759" lon="6.51567">
        <ele>1287</ele>
        <time>2018-01-28T12:39:10Z</time>
      </trkpt>
      <trkpt lat="46.00755" lon="6.5157">
        <ele>1285</ele>
        <time>2018-01-28T12:39:11Z</time>
      </trkpt>
      <trkpt lat="46.00752" lon="6.51574">
        <ele>1283</ele>
        <time>2018-01-28T12:39:12Z</time>
      </trkpt>
      <trkpt lat="46.00749" lon="6.51579">
        <ele>1277</ele>
        <time>2018-01-28T12:39:13Z</time>
      </trkpt>
      <trkpt lat="46.00745" lon="6.51582">
        <ele>1277</ele>
        <time>2018-01-28T12:39:14Z</time>
      </trkpt>
      <trkpt lat="46.00744" lon="6.51586">
        <ele>1274</ele>
        <time>2018-01-28T12:39:15Z</time>
      </trkpt>
      <trkpt lat="46.00744" lon="6.51591">
        <ele>1273</ele>
        <time>2018-01-28T12:39:16Z</time>
      </trkpt>
      <trkpt lat="46.00743" lon="6.51596">
        <ele>1271</ele>
        <time>2018-01-28T12:39:17Z</time>
      </trkpt>
      <trkpt lat="46.0074" lon="6.51601">
        <ele>1269</ele>
        <time>2018-01-28T12:39:18Z</time>
      </trkpt>
      <trkpt lat="46.00737" lon="6.51604">
        <ele>1268</ele>
        <time>2018-01-28T12:39:19Z</time>
      </trkpt>
      <trkpt lat="46.00734" lon="6.5161">
        <ele>1267</ele>
        <time>2018-01-28T12:39:20Z</time>
      </trkpt>
      <trkpt lat="46.00731" lon="6.51616">
        <ele>1266</ele>
        <time>2018-01-28T12:39:21Z</time>
      </trkpt>
      <trkpt lat="46.00728" lon="6.5162">
        <ele>1266</ele>
        <time>2018-01-28T12:39:22Z</time>
      </trkpt>
      <trkpt lat="46.00727" lon="6.51625">
        <ele>1265</ele>
        <time>2018-01-28T12:39:23Z</time>
      </trkpt>
      <trkpt lat="46.00725" lon="6.5163">
        <ele>1264</ele>
        <time>2018-01-28T12:39:24Z</time>
      </trkpt>
      <trkpt lat="46.00722" lon="6.51634">
        <ele>1264</ele>
        <time>2018-01-28T12:39:25Z</time>
      </trkpt>
      <trkpt lat="46.00721" lon="6.51639">
        <ele>1264</ele>
        <time>2018-01-28T12:39:26Z</time>
      </trkpt>
      <trkpt lat="46.0072" lon="6.51643">
        <ele>1263</ele>
        <time>2018-01-28T12:39:27Z</time>
      </trkpt>
      <trkpt lat="46.00719" lon="6.51647">
        <ele>1263</ele>
        <time>2018-01-28T12:39:28Z</time>
      </trkpt>
      <trkpt lat="46.00718" lon="6.51651">
        <ele>1263</ele>
        <time>2018-01-28T12:39:29Z</time>
      </trkpt>
      <trkpt lat="46.00718" lon="6.51655">
        <ele>1263</ele>
        <time>2018-01-28T12:39:30Z</time>
      </trkpt>
      <trkpt lat="46.00715" lon="6.5166">
        <ele>1262</ele>
        <time>2018-01-28T12:39:31Z</time>
      </trkpt>
      <trkpt lat="46.00714" lon="6.51665">
        <ele>1262</ele>
        <time>2018-01-28T12:39:32Z</time>
      </trkpt>
      <trkpt lat="46.00711" lon="6.5167">
        <ele>1253</ele>
        <time>2018-01-28T12:39:33Z</time>
      </trkpt>
      <trkpt lat="46.00707" lon="6.51675">
        <ele>1252</ele>
        <time>2018-01-28T12:39:34Z</time>
      </trkpt>
      <trkpt lat="46.00704" lon="6.51679">
        <ele>1251</ele>
        <time>2018-01-28T12:39:35Z</time>
      </trkpt>
      <trkpt lat="46.007" lon="6.51681">
        <ele>1250</ele>
        <time>2018-01-28T12:39:36Z</time>
      </trkpt>
      <trkpt lat="46.00697" lon="6.51685">
        <ele>1250</ele>
        <time>2018-01-28T12:39:37Z</time>
      </trkpt>
      <trkpt lat="46.00693" lon="6.51688">
        <ele>1249</ele>
        <time>2018-01-28T12:39:38Z</time>
      </trkpt>
      <trkpt lat="46.0069" lon="6.51691">
        <ele>1248</ele>
        <time>2018-01-28T12:39:39Z</time>
      </trkpt>
      <trkpt lat="46.00687" lon="6.51694">
        <ele>1248</ele>
        <time>2018-01-28T12:39:40Z</time>
      </trkpt>
      <trkpt lat="46.00686" lon="6.517">
        <ele>1247</ele>
        <time>2018-01-28T12:39:41Z</time>
      </trkpt>
      <trkpt lat="46.00684" lon="6.51704">
        <ele>1246</ele>
        <time>2018-01-28T12:39:42Z</time>
      </trkpt>
      <trkpt lat="46.0068" lon="6.51705">
        <ele>1246</ele>
        <time>2018-01-28T12:39:43Z</time>
      </trkpt>
      <trkpt lat="46.00677" lon="6.51709">
        <ele>1245</ele>
        <time>2018-01-28T12:39:44Z</time>
      </trkpt>
      <trkpt lat="46.00674" lon="6.51714">
        <ele>1243</ele>
        <time>2018-01-28T12:39:45Z</time>
      </trkpt>
      <trkpt lat="46.00671" lon="6.51718">
        <ele>1242</ele>
        <time>2018-01-28T12:39:46Z</time>
      </trkpt>
      <trkpt lat="46.00669" lon="6.51723">
        <ele>1240</ele>
        <time>2018-01-28T12:39:47Z</time>
      </trkpt>
      <trkpt lat="46.00667" lon="6.51728">
        <ele>1239</ele>
        <time>2018-01-28T12:39:48Z</time>
      </trkpt>
      <trkpt lat="46.00663" lon="6.5173">
        <ele>1228</ele>
        <time>2018-01-28T12:39:49Z</time>
      </trkpt>
      <trkpt lat="46.0066" lon="6.51731">
        <ele>1228</ele>
        <time>2018-01-28T12:39:50Z</time>
      </trkpt>
      <trkpt lat="46.00657" lon="6.51735">
        <ele>1228</ele>
        <time>2018-01-28T12:39:51Z</time>
      </trkpt>
      <trkpt lat="46.00655" lon="6.51738">
        <ele>1227</ele>
        <time>2018-01-28T12:39:52Z</time>
      </trkpt>
      <trkpt lat="46.00654" lon="6.5174">
        <ele>1227</ele>
        <time>2018-01-28T12:39:53Z</time>
      </trkpt>
      <trkpt lat="46.00654" lon="6.51743">
        <ele>1227</ele>
        <time>2018-01-28T12:39:54Z</time>
      </trkpt>
      <trkpt lat="46.00655" lon="6.51746">
        <ele>1226</ele>
        <time>2018-01-28T12:39:55Z</time>
      </trkpt>
      <trkpt lat="46.0066" lon="6.51757">
        <ele>1221</ele>
        <time>2018-01-28T12:40:01Z</time>
      </trkpt>
      <trkpt lat="46.00661" lon="6.51759">
        <ele>1220</ele>
        <time>2018-01-28T12:40:14Z</time>
      </trkpt>
      <trkpt lat="46.00661" lon="6.51763">
        <ele>1219</ele>
        <time>2018-01-28T12:40:33Z</time>
      </trkpt>
      <trkpt lat="46.0066" lon="6.51766">
        <ele>1219</ele>
        <time>2018-01-28T12:40:35Z</time>
      </trkpt>
      <trkpt lat="46.00659" lon="6.51766">
        <ele>1219</ele>
        <time>2018-01-28T12:40:36Z</time>
      </trkpt>
      <trkpt lat="46.00658" lon="6.51767">
        <ele>1218</ele>
        <time>2018-01-28T12:40:37Z</time>
      </trkpt>
      <trkpt lat="46.00653" lon="6.51781">
        <ele>1216</ele>
        <time>2018-01-28T12:40:46Z</time>
      </trkpt>
      <trkpt lat="46.00655" lon="6.51789">
        <ele>1215</ele>
        <time>2018-01-28T12:40:50Z</time>
      </trkpt>
      <trkpt lat="46.00658" lon="6.51803">
        <ele>1214</ele>
        <time>2018-01-28T12:40:57Z</time>
      </trkpt>
      <trkpt lat="46.00662" lon="6.5181">
        <ele>1214</ele>
        <time>2018-01-28T12:41:02Z</time>
      </trkpt>
    </trkseg>
  </trk>
</gpx>